[[{"header":{"parameterUnit":"m.s-1","parameterCategory":1,"la1":31.0,"la2":29.5877,"lo1":-88.7671,"lo2":-86.6584,"dy":0.0162,"dx":0.0185,"nx":115,"ny":88,"refTime":"2024-12-04T18:00:00:Z","depth":0,"parameterNumber":2,"parameterNumberName":"U-component_of_WINDS"},"data":[0.0,0.0,0.0,0.0,0.0,0.0,0.0,0.0,0.0,0.0,0.0,0.0,0.0,0.0,0.0,0.0,0.0,0.0,0.0,0.0,0.0,0.0,0.0,0.0,0.0,0.0,0.0,0.0,0.0,0.0,0.0,0.0,0.0,0.0,0.0,0.0,0.0,0.0,0.0,0.0,0.0,0.0,0.0,0.0,0.0,0.0,0.0,0.0,0.0,0.0,0.0,0.0,0.0,0.0,0.0,0.0,0.0,0.0,0.0,0.0,0.0,0.0,0.0,0.0,0.0,0.0,0.0,0.0,0.0,0.0,0.0,0.0,0.0,0.0,0.0,0.0,0.0,0.0,0.0,0.0,0.0,0.0,0.0,0.0,0.0,0.0,0.0,0.0,0.0,0.0,0.0,0.0,0.0,0.0,0.0,0.0,0.0,0.0,0.0,0.0,0.0,0.0,0.0,0.0,0.0,0.0,0.0,0.0,0.0,0.0,0.0,0.0,0.0,0.0,0.0,0.0,0.0,0.0,0.0,0.0,0.0,0.0,0.0,0.0,0.0,0.0,0.0,0.0,0.0,0.0,0.0,0.0,0.0,0.0,0.0,0.0,0.0,0.0,0.0,0.0,0.0,0.0,0.0,0.0,0.0,0.0,0.0,0.0,0.0,0.0,0.0,0.0,0.0,0.0,0.0,0.0,0.0,0.0,0.0,0.0,0.0,0.0,0.0,0.0,0.0,0.0,0.0,0.0,0.0,0.0,0.0,0.0,0.0,0.0,0.0,0.0,0.0,0.0,0.0,0.0,0.0,0.0,0.0,0.0,0.0,0.0,0.0,0.0,0.0,0.0,0.0,0.0,0.0,0.0,0.0,0.0,0.0,0.0,0.0,0.0,0.0,0.0,0.0,0.0,0.0,0.0,0.0,0.0,0.0,0.0,0.0,0.0,0.0,0.0,0.0,0.0,0.0,0.0,0.0,0.0,0.0,0.0,0.0,0.0,0.0,0.0,0.0,0.0,0.0,0.0,0.0,0.0,0.0,0.0,0.0,0.0,0.0,0.0,0.0,0.0,0.0,0.0,0.0,0.0,0.0,0.0,0.0,0.0,0.0,0.0,0.0,0.0,0.0,0.0,0.0,0.0,0.0,0.0,0.0,0.0,0.0,0.0,0.0,0.0,0.0,0.0,0.0,0.0,0.0,0.0,0.0,0.0,0.0,0.0,0.0,0.0,0.0,0.0,0.0,0.0,0.0,0.0,0.0,0.0,0.0,0.0,0.0,0.0,0.0,0.0,0.0,0.0,0.0,0.0,0.0,0.0,0.0,0.0,0.0,0.0,0.0,0.0,0.0,0.0,0.0,0.0,0.0,0.0,0.0,0.0,0.0,0.0,0.0,0.0,0.0,0.0,0.0,0.0,0.0,0.0,0.0,0.0,0.0,0.0,0.0,0.0,0.0,0.0,0.0,0.0,0.0,0.0,0.0,0.0,0.0,0.0,0.0,0.0,0.0,0.0,0.0,0.0,0.0,0.0,0.0,0.0,0.0,0.0,0.0,0.0,0.0,0.0,0.0,0.0,0.0,0.0,0.0,0.0,0.0,0.0,0.0,0.0,0.0,0.0,0.0,0.0,0.0,0.0,0.0,0.0,0.0,0.0,0.0,0.0,0.0,0.0,0.0,0.0,0.0,0.0,0.0,0.0,0.0,0.0,0.0,0.0,0.0,0.0,0.0,0.0,0.0,0.0,0.0,0.0,0.0,0.0,0.0,0.0,0.0,0.0,0.0,0.0,0.0,0.0,0.0,0.0,0.0,0.0,0.0,0.0,0.0,0.0,0.0,0.0,0.0,0.0,0.0,0.0,0.0,0.0,0.0,0.0,0.0,0.0,0.0,0.0,0.0,0.0,0.0,0.0,0.0,0.0,0.0,0.0,0.0,0.0,0.0,0.0,0.0,0.0,0.0,0.0,0.0,0.0,0.0,0.0,0.0,0.0,0.0,0.0,0.0,0.0,0.0,0.0,0.0,0.0,0.0,0.0,0.0,0.0,0.0,0.0,0.0,0.0,0.0,0.0,0.0,0.0,0.0,0.0,0.0,0.0,0.0,0.0,0.0,0.0,0.0,0.0,0.0,0.0,0.0,0.0,0.0,0.0,0.0,0.0,0.0,0.0,0.0,0.0,0.0,0.0,0.0,0.0,0.0,0.0,0.0,0.0,0.0,0.0,0.0,0.0,0.0,0.0,0.0,0.0,0.0,0.0,0.0,0.0,0.0,0.0,0.0,0.0,0.0,0.0,0.0,0.0,0.0,0.0,0.0,0.0,0.0,0.0,0.0,0.0,0.0,0.0,0.0,0.0,0.0,0.0,0.0,0.0,0.0,0.0,0.0,0.0,0.0,0.0,0.0,0.0,0.0,0.0,0.0,0.0,0.0,0.0,0.0,0.0,0.0,0.0,0.0,0.0,0.0,0.0,0.0,0.0,0.0,0.0,0.0,0.0,0.0,0.0,0.0,0.0,0.0,0.0,0.0,0.0,0.0,0.0,0.0,0.0,0.0,0.0,0.0,0.0,0.0,0.0,0.0,0.0,0.0,0.0,0.0,0.0,0.0,0.0,0.0,0.0,0.0,0.0,0.0,0.0,0.0,0.0,0.0,0.0,0.0,0.0,0.0,0.0,0.0,0.0,0.0,0.0,0.0,0.0,0.0,0.0,0.0,0.0,0.0,0.0,0.0,0.0,0.0,0.0,0.0,0.0,0.0,0.0,0.0,0.0,0.0,0.0,0.0,0.0,0.0,0.0,0.0,0.0,0.0,0.0,0.0,0.0,0.0,0.0,0.0,0.0,0.0,0.0,0.0,0.0,0.0,0.0,0.0,0.0,0.0,0.0,0.0,0.0,0.0,0.0,0.0,0.0,0.0,0.0,0.0,0.0,0.0,0.0,0.0,0.0,0.0,0.0,0.0,0.0,0.0,0.0,0.0,0.0,0.0,0.0,0.0,0.0,0.0,0.0,0.0,0.0,0.0,0.0,0.0,0.0,0.0,0.0,0.0,0.0,0.0,0.0,0.0,0.0,0.0,0.0,0.0,0.0,0.0,0.0,0.0,0.0,0.0,0.0,0.0,0.0,0.0,0.0,0.0,0.0,0.0,0.0,0.0,0.0,0.0,0.0,0.0,0.0,0.0,0.0,0.0,0.0,0.0,0.0,0.0,0.0,0.0,0.0,0.0,0.0,0.0,0.0,0.0,0.0,0.0,0.0,0.0,0.0,0.0,0.0,0.0,0.0,0.0,0.0,0.0,0.0,0.0,0.0,0.0,0.0,0.0,0.0,0.0,0.0,0.0,0.0,0.0,0.0,0.0,0.0,0.0,0.0,0.0,0.0,0.0,0.0,0.0,0.0,0.0,0.0,0.0,0.0,0.0,0.0,0.0,0.0,0.0,0.0,0.0,0.0,0.0,0.0,0.0,0.0,0.0,0.0,0.0,0.0,0.0,0.0,0.0,0.0,0.0,0.0,0.0,0.0,0.0,0.0,0.0,0.0,0.0,0.0,0.0,0.0,0.0,0.0,0.0,0.0,0.0,0.0,0.0,0.0,0.0,0.0,0.0,0.0,0.0,0.0,0.0,0.0,0.0,0.0,0.0,0.0,0.0,0.0,0.0,0.0,0.0,0.0,0.0,0.0,0.0,0.0,0.0,0.0,0.0,0.0,0.0,0.0,0.0,0.0,0.0,0.0,0.0,0.0,0.0,0.0,0.0,0.0,0.0,0.0,0.0,0.0,0.0,0.0,0.0,0.0,0.0,0.0,0.0,0.0,0.0,0.0,0.0,0.0,0.0,0.0,0.0,0.0,0.0,0.0,0.0,0.0,0.0,0.0,0.0,0.0,0.0,0.0,0.0,0.0,0.0,0.0,0.0,0.0,0.0,0.0,0.0,0.0,0.0,0.0,0.0,0.0,0.0,0.0,0.0,0.0,0.0,0.0,0.0,0.0,0.0,0.0,0.0,0.0,0.0,0.0,0.0,0.0,0.0,0.0,0.0,0.0,0.0,0.0,0.0,0.0,0.0,0.0,0.0,0.0,0.0,0.0,0.0,0.0,0.0,0.0,0.0,0.0,0.0,0.0,0.0,0.0,0.0,0.0,0.0,0.0,0.0,0.0,0.0,0.0,0.0,0.0,0.0,0.0,0.0,0.0,0.0,0.0,0.0,0.0,0.0,0.0,0.0,0.0,0.0,0.0,0.0,0.0,0.0,0.0,0.0,0.0,0.0,0.0,0.0,0.0,-1.5306,0.0,0.0,0.0,0.0,0.0,0.0,0.0,0.0,0.0,0.0,0.0,0.0,0.0,0.0,0.0,0.0,0.0,0.0,0.0,0.0,0.0,0.0,0.0,0.0,0.0,0.0,0.0,0.0,0.0,0.0,0.0,0.0,0.0,0.0,0.0,0.0,0.0,0.0,0.0,0.0,0.0,0.0,0.0,0.0,0.0,0.0,0.0,0.0,0.0,0.0,0.0,0.0,0.0,0.0,0.0,0.0,0.0,0.0,0.0,0.0,0.0,0.0,0.0,0.0,0.0,0.0,0.0,0.0,0.0,0.0,0.0,0.0,0.0,0.0,0.0,0.0,0.0,0.0,0.0,0.0,0.0,0.0,0.0,0.0,0.0,0.0,0.0,0.0,0.0,0.0,0.0,0.0,0.0,0.0,0.0,0.0,0.0,0.0,0.0,0.0,0.0,0.0,0.0,0.0,0.0,0.0,0.0,0.0,0.0,0.0,-1.742,-1.7397,-1.6533,-1.5828,-1.5311,0.0,0.0,0.0,0.0,0.0,0.0,0.0,0.0,0.0,0.0,0.0,0.0,0.0,0.0,0.0,0.0,0.0,0.0,0.0,0.0,0.0,0.0,0.0,0.0,0.0,0.0,0.0,0.0,0.0,0.0,0.0,0.0,0.0,0.0,0.0,0.0,0.0,0.0,0.0,0.0,0.0,0.0,0.0,0.0,0.0,0.0,0.0,0.0,0.0,0.0,0.0,0.0,0.0,0.0,0.0,0.0,0.0,0.0,0.0,0.0,0.0,0.0,0.0,0.0,0.0,0.0,0.0,0.0,0.0,0.0,0.0,0.0,0.0,0.0,0.0,0.0,0.0,0.0,0.0,0.0,0.0,0.0,0.0,0.0,0.0,0.0,0.0,0.0,0.0,0.0,0.0,0.0,0.0,0.0,0.0,0.0,0.0,0.0,0.0,0.0,0.0,0.0,0.0,0.0,0.0,0.0,0.0,0.0,0.0,0.0,0.0,0.0,-1.7258,-1.6463,-1.561,0.0,0.0,0.0,0.0,0.0,0.0,0.0,0.0,0.0,0.0,0.0,0.0,0.0,0.0,0.0,0.0,0.0,0.0,0.0,0.0,0.0,0.0,0.0,0.0,0.0,0.0,0.0,0.0,0.0,0.0,0.0,0.0,0.0,0.0,0.0,0.0,0.0,0.0,0.0,0.0,0.0,0.0,0.0,0.0,0.0,0.0,0.0,0.0,0.0,0.0,0.0,0.0,0.0,0.0,0.0,0.0,0.0,0.0,0.0,0.0,0.0,0.0,0.0,0.0,0.0,0.0,0.0,0.0,0.0,0.0,0.0,0.0,0.0,0.0,0.0,0.0,0.0,0.0,0.0,0.0,0.0,0.0,0.0,0.0,0.0,0.0,0.0,0.0,0.0,0.0,0.0,0.0,0.0,0.0,0.0,0.0,0.0,0.0,0.0,0.0,0.0,0.0,0.0,0.0,0.0,0.0,0.0,0.0,0.0,0.0,-1.7157,-1.7893,-1.7773,0.0,-1.6372,0.0,0.0,0.0,0.0,0.0,0.0,0.0,0.0,0.0,0.0,0.0,0.0,0.0,0.0,0.0,0.0,0.0,0.0,0.0,0.0,0.0,0.0,0.0,0.0,0.0,0.0,0.0,0.0,0.0,0.0,0.0,0.0,0.0,0.0,0.0,0.0,0.0,0.0,0.0,0.0,0.0,0.0,0.0,0.0,0.0,0.0,0.0,0.0,0.0,0.0,0.0,0.0,0.0,0.0,0.0,0.0,0.0,0.0,0.0,0.0,0.0,0.0,0.0,0.0,0.0,0.0,0.0,0.0,0.0,0.0,0.0,0.0,0.0,0.0,0.0,0.0,0.0,0.0,0.0,0.0,0.0,0.0,0.0,0.0,0.0,0.0,0.0,0.0,0.0,0.0,0.0,0.0,0.0,0.0,0.0,0.0,0.0,0.0,0.0,0.0,0.0,0.0,0.0,0.0,0.0,0.0,0.0,0.0,0.0,0.0,-1.8559,-1.9352,-1.8777,-1.779,0.0,0.0,0.0,0.0,0.0,0.0,0.0,0.0,0.0,0.0,0.0,0.0,0.0,0.0,0.0,0.0,0.0,0.0,0.0,0.0,0.0,0.0,0.0,0.0,0.0,0.0,0.0,0.0,0.0,0.0,0.0,0.0,0.0,0.0,0.0,0.0,0.0,0.0,0.0,0.0,0.0,0.0,0.0,0.0,0.0,0.0,0.0,0.0,0.0,0.0,0.0,0.0,0.0,0.0,0.0,0.0,0.0,0.0,0.0,0.0,0.0,0.0,0.0,0.0,0.0,0.0,0.0,0.0,0.0,0.0,0.0,0.0,0.0,0.0,0.0,0.0,0.0,0.0,0.0,0.0,0.0,0.0,0.0,0.0,0.0,0.0,0.0,0.0,0.0,0.0,0.0,0.0,0.0,0.0,0.0,0.0,0.0,0.0,0.0,0.0,0.0,0.0,0.0,0.0,0.0,0.0,0.0,0.0,0.0,0.0,-1.854,0.0,-2.0275,-1.9876,-1.8684,-1.6726,0.0,0.0,0.0,0.0,0.0,0.0,0.0,0.0,0.0,0.0,0.0,0.0,0.0,0.0,0.0,0.0,0.0,0.0,0.0,0.0,0.0,0.0,0.0,0.0,0.0,0.0,0.0,0.0,0.0,0.0,0.0,0.0,0.0,0.0,0.0,0.0,0.0,0.0,0.0,0.0,0.0,0.0,0.0,0.0,0.0,0.0,0.0,0.0,0.0,0.0,0.0,0.0,0.0,0.0,0.0,0.0,0.0,0.0,0.0,0.0,0.0,0.0,0.0,0.0,0.0,0.0,0.0,0.0,0.0,0.0,0.0,0.0,0.0,0.0,0.0,0.0,0.0,0.0,0.0,0.0,0.0,0.0,0.0,0.0,0.0,0.0,0.0,0.0,0.0,0.0,0.0,0.0,0.0,0.0,0.0,0.0,0.0,0.0,0.0,0.0,0.0,0.0,0.0,0.0,0.0,0.0,0.0,0.0,0.0,-1.7987,-1.8747,-2.028,-2.0996,-2.0174,0.0,0.0,0.0,0.0,0.0,0.0,0.0,0.0,0.0,0.0,0.0,0.0,0.0,0.0,0.0,0.0,0.0,0.0,0.0,0.0,0.0,0.0,0.0,0.0,0.0,0.0,0.0,0.0,0.0,0.0,0.0,0.0,0.0,0.0,0.0,0.0,0.0,0.0,0.0,0.0,0.0,0.0,0.0,0.0,0.0,0.0,0.0,0.0,0.0,0.0,0.0,0.0,0.0,0.0,0.0,0.0,0.0,0.0,0.0,0.0,0.0,0.0,0.0,0.0,0.0,0.0,0.0,0.0,0.0,0.0,0.0,0.0,0.0,0.0,0.0,0.0,0.0,0.0,0.0,0.0,0.0,0.0,0.0,0.0,0.0,0.0,0.0,0.0,0.0,0.0,0.0,0.0,0.0,0.0,0.0,0.0,0.0,0.0,0.0,0.0,0.0,0.0,0.0,0.0,0.0,0.0,0.0,0.0,0.0,-1.787,-1.945,-2.0517,-2.1027,-2.0819,-1.9694,0.0,0.0,0.0,0.0,0.0,0.0,0.0,0.0,0.0,0.0,0.0,0.0,0.0,0.0,0.0,0.0,0.0,0.0,0.0,0.0,0.0,0.0,0.0,0.0,0.0,0.0,0.0,0.0,0.0,0.0,0.0,0.0,0.0,0.0,0.0,0.0,0.0,0.0,0.0,0.0,0.0,0.0,0.0,0.0,0.0,0.0,0.0,0.0,0.0,0.0,0.0,0.0,0.0,0.0,0.0,0.0,0.0,0.0,0.0,0.0,0.0,0.0,0.0,0.0,0.0,0.0,0.0,0.0,0.0,0.0,0.0,0.0,0.0,0.0,0.0,0.0,0.0,0.0,0.0,0.0,0.0,0.0,0.0,0.0,0.0,0.0,0.0,0.0,0.0,0.0,0.0,0.0,0.0,0.0,0.0,0.0,0.0,0.0,0.0,0.0,0.0,0.0,0.0,0.0,0.0,0.0,0.0,0.0,0.0,-1.8719,0.0,-2.1874,0.0,-2.0935,-1.9656,0.0,0.0,0.0,0.0,0.0,0.0,0.0,0.0,0.0,0.0,0.0,0.0,0.0,0.0,0.0,0.0,0.0,0.0,0.0,0.0,0.0,0.0,0.0,0.0,0.0,0.0,0.0,0.0,0.0,0.0,0.0,0.0,0.0,0.0,0.0,0.0,0.0,0.0,0.0,0.0,0.0,0.0,0.0,0.0,0.0,0.0,0.0,0.0,0.0,0.0,0.0,0.0,0.0,0.0,0.0,0.0,0.0,0.0,0.0,0.0,0.0,0.0,0.0,0.0,0.0,0.0,0.0,0.0,0.0,0.0,0.0,0.0,0.0,0.0,0.0,0.0,0.0,0.0,0.0,0.0,0.0,0.0,0.0,0.0,0.0,0.0,0.0,0.0,0.0,0.0,0.0,0.0,0.0,0.0,0.0,0.0,0.0,0.0,0.0,0.0,0.0,0.0,0.0,0.0,0.0,0.0,0.0,0.0,-1.7928,-2.0432,-2.2036,-2.246,-2.166,-2.1472,-2.0233,0.0,0.0,0.0,0.0,0.0,0.0,0.0,0.0,0.0,0.0,0.0,0.0,0.0,0.0,0.0,0.0,0.0,0.0,0.0,0.0,0.0,0.0,0.0,0.0,0.0,0.0,0.0,0.0,0.0,0.0,0.0,0.0,0.0,0.0,0.0,0.0,0.0,0.0,0.0,0.0,0.0,0.0,0.0,0.0,0.0,0.0,0.0,0.0,0.0,0.0,0.0,0.0,0.0,0.0,0.0,0.0,0.0,0.0,0.0,0.0,0.0,0.0,0.0,0.0,0.0,0.0,0.0,0.0,0.0,0.0,0.0,0.0,0.0,0.0,0.0,0.0,0.0,0.0,0.0,0.0,0.0,0.0,0.0,0.0,0.0,0.0,0.0,0.0,0.0,0.0,0.0,0.0,0.0,0.0,0.0,0.0,0.0,0.0,0.0,0.0,0.0,0.0,0.0,0.0,0.0,0.0,0.0,0.0,0.0,-2.1374,-2.2377,-2.2784,-2.2439,-2.072,-1.912,0.0,0.0,0.0,0.0,0.0,0.0,0.0,0.0,0.0,0.0,0.0,0.0,0.0,0.0,0.0,0.0,0.0,0.0,0.0,0.0,0.0,0.0,0.0,0.0,0.0,0.0,0.0,0.0,0.0,0.0,0.0,0.0,0.0,0.0,0.0,0.0,0.0,0.0,0.0,0.0,0.0,0.0,0.0,0.0,0.0,0.0,0.0,0.0,0.0,0.0,0.0,0.0,0.0,0.0,0.0,0.0,0.0,0.0,0.0,0.0,0.0,0.0,0.0,0.0,0.0,0.0,0.0,0.0,0.0,0.0,0.0,0.0,0.0,0.0,0.0,0.0,0.0,0.0,0.0,0.0,0.0,0.0,0.0,0.0,0.0,0.0,0.0,0.0,0.0,0.0,0.0,0.0,0.0,0.0,0.0,0.0,0.0,0.0,0.0,0.0,0.0,0.0,0.0,0.0,0.0,0.0,0.0,0.0,0.0,-2.4111,-2.4574,-2.4625,-2.4283,-2.2079,-2.0042,-1.824,0.0,0.0,0.0,0.0,0.0,0.0,0.0,0.0,0.0,0.0,0.0,0.0,0.0,0.0,0.0,0.0,0.0,0.0,0.0,0.0,0.0,0.0,0.0,0.0,0.0,0.0,0.0,0.0,0.0,0.0,0.0,0.0,0.0,0.0,0.0,0.0,0.0,0.0,0.0,0.0,0.0,0.0,0.0,0.0,0.0,0.0,0.0,0.0,0.0,0.0,0.0,0.0,0.0,0.0,0.0,0.0,0.0,0.0,0.0,0.0,0.0,0.0,0.0,0.0,0.0,0.0,0.0,0.0,0.0,0.0,0.0,0.0,0.0,0.0,0.0,0.0,0.0,0.0,0.0,0.0,0.0,0.0,0.0,0.0,0.0,0.0,0.0,0.0,0.0,0.0,0.0,0.0,0.0,0.0,0.0,0.0,0.0,0.0,0.0,0.0,0.0,0.0,0.0,0.0,0.0,0.0,0.0,0.0,-2.8276,-2.8336,-2.7855,-2.6815,-2.5024,-2.2543,0.0,0.0,0.0,0.0,0.0,0.0,0.0,0.0,0.0,0.0,0.0,0.0,0.0,0.0,0.0,0.0,0.0,0.0,0.0,0.0,0.0,0.0,0.0,0.0,0.0,0.0,0.0,0.0,0.0,0.0,0.0,0.0,0.0,0.0,0.0,0.0,0.0,0.0,0.0,0.0,0.0,0.0,0.0,0.0,0.0,0.0,0.0,0.0,0.0,0.0,0.0,0.0,0.0,0.0,0.0,0.0,0.0,0.0,0.0,0.0,0.0,0.0,0.0,0.0,0.0,0.0,0.0,0.0,0.0,0.0,0.0,0.0,0.0,0.0,0.0,0.0,0.0,0.0,0.0,0.0,0.0,0.0,0.0,0.0,0.0,0.0,0.0,0.0,0.0,0.0,0.0,0.0,0.0,0.0,0.0,0.0,0.0,0.0,0.0,0.0,0.0,0.0,0.0,0.0,0.0,0.0,0.0,0.0,0.0,-3.0788,-3.2085,-3.1683,-2.9496,-2.5981,-2.3086,0.0,0.0,0.0,0.0,0.0,0.0,0.0,0.0,0.0,0.0,0.0,0.0,0.0,0.0,0.0,0.0,0.0,0.0,0.0,0.0,0.0,0.0,0.0,0.0,0.0,0.0,0.0,0.0,0.0,0.0,0.0,0.0,0.0,0.0,0.0,0.0,0.0,0.0,0.0,0.0,0.0,0.0,0.0,0.0,0.0,0.0,0.0,0.0,0.0,0.0,0.0,0.0,0.0,0.0,0.0,0.0,0.0,0.0,0.0,0.0,0.0,0.0,0.0,0.0,0.0,0.0,0.0,0.0,0.0,0.0,0.0,0.0,0.0,0.0,0.0,0.0,0.0,0.0,0.0,0.0,0.0,0.0,0.0,0.0,0.0,0.0,0.0,0.0,0.0,0.0,0.0,0.0,0.0,0.0,0.0,0.0,0.0,0.0,0.0,0.0,0.0,0.0,0.0,0.0,0.0,0.0,0.0,0.0,-2.9527,-3.2427,-3.4098,-3.4372,-3.3218,-2.8646,-2.5067,0.0,0.0,0.0,0.0,0.0,0.0,0.0,0.0,0.0,0.0,0.0,0.0,0.0,0.0,0.0,0.0,0.0,0.0,0.0,0.0,0.0,0.0,0.0,0.0,0.0,0.0,0.0,0.0,0.0,0.0,0.0,0.0,0.0,0.0,0.0,0.0,0.0,0.0,0.0,0.0,0.0,0.0,0.0,0.0,0.0,0.0,0.0,0.0,0.0,0.0,0.0,0.0,0.0,0.0,0.0,0.0,0.0,0.0,0.0,0.0,0.0,0.0,0.0,0.0,0.0,0.0,0.0,0.0,0.0,0.0,0.0,0.0,0.0,0.0,0.0,0.0,0.0,0.0,0.0,0.0,0.0,0.0,0.0,0.0,0.0,0.0,0.0,0.0,0.0,0.0,0.0,0.0,0.0,0.0,0.0,0.0,0.0,0.0,0.0,0.0,0.0,0.0,0.0,0.0,0.0,0.0,0.0,0.0,-3.0976,-3.3537,-3.5043,-3.6169,-3.6696,-3.1918,-2.7703,0.0,0.0,0.0,0.0,0.0,0.0,0.0,0.0,0.0,0.0,0.0,0.0,0.0,0.0,0.0,0.0,0.0,0.0,0.0,0.0,0.0,0.0,0.0,0.0,0.0,0.0,0.0,0.0,0.0,0.0,0.0,0.0,0.0,0.0,0.0,0.0,0.0,0.0,0.0,0.0,0.0,0.0,0.0,0.0,0.0,0.0,0.0,0.0,0.0,0.0,0.0,0.0,0.0,0.0,0.0,0.0,0.0,0.0,0.0,0.0,0.0,0.0,0.0,0.0,0.0,0.0,0.0,0.0,0.0,0.0,0.0,0.0,0.0,0.0,0.0,0.0,0.0,0.0,0.0,0.0,0.0,0.0,0.0,0.0,0.0,0.0,0.0,0.0,0.0,0.0,0.0,0.0,0.0,0.0,0.0,0.0,0.0,0.0,0.0,0.0,0.0,0.0,0.0,0.0,0.0,0.0,0.0,0.0,-3.2129,-3.5258,-3.6256,-3.6775,-3.6871,-3.2491,-2.8846,0.0,0.0,0.0,0.0,0.0,0.0,0.0,0.0,0.0,0.0,0.0,0.0,0.0,0.0,0.0,0.0,0.0,0.0,0.0,0.0,0.0,0.0,0.0,0.0,0.0,0.0,0.0,0.0,0.0,0.0,0.0,0.0,0.0,0.0,0.0,0.0,0.0,0.0,0.0,0.0,0.0,0.0,0.0,0.0,0.0,0.0,0.0,0.0,-1.6917,0.0,0.0,0.0,0.0,0.0,0.0,0.0,0.0,0.0,0.0,0.0,0.0,0.0,0.0,0.0,0.0,0.0,0.0,0.0,0.0,0.0,0.0,0.0,0.0,0.0,0.0,0.0,0.0,0.0,0.0,0.0,0.0,0.0,0.0,0.0,0.0,0.0,0.0,0.0,0.0,0.0,0.0,0.0,0.0,0.0,0.0,0.0,0.0,0.0,0.0,0.0,0.0,0.0,0.0,0.0,0.0,0.0,0.0,0.0,-3.289,-3.583,-3.63,-3.6625,-3.6824,-3.3887,-3.0642,0.0,0.0,0.0,0.0,0.0,0.0,0.0,0.0,0.0,0.0,0.0,0.0,0.0,0.0,0.0,0.0,0.0,0.0,0.0,0.0,0.0,0.0,0.0,0.0,0.0,0.0,0.0,0.0,0.0,0.0,0.0,0.0,0.0,0.0,0.0,0.0,0.0,0.0,0.0,0.0,0.0,0.0,0.0,0.0,0.0,0.0,0.0,0.0,0.0,0.0,0.0,0.0,0.0,0.0,0.0,0.0,0.0,0.0,0.0,0.0,0.0,0.0,0.0,0.0,0.0,0.0,0.0,0.0,0.0,0.0,0.0,0.0,0.0,0.0,0.0,0.0,0.0,0.0,0.0,0.0,0.0,0.0,0.0,0.0,0.0,0.0,0.0,0.0,0.0,0.0,0.0,0.0,0.0,0.0,0.0,0.0,0.0,0.0,0.0,0.0,0.0,0.0,0.0,0.0,0.0,0.0,0.0,-3.0441,-3.3435,-3.6055,-3.6137,-3.6387,-3.6943,-3.5129,-3.2159,-2.8041,0.0,0.0,0.0,0.0,0.0,0.0,0.0,0.0,0.0,0.0,0.0,0.0,0.0,0.0,0.0,0.0,0.0,0.0,0.0,0.0,0.0,0.0,0.0,0.0,0.0,0.0,0.0,0.0,0.0,0.0,0.0,0.0,0.0,0.0,0.0,0.0,0.0,0.0,-1.4139,-1.6281,0.0,0.0,0.0,0.0,0.0,0.0,0.0,0.0,-1.8632,0.0,0.0,0.0,0.0,0.0,0.0,0.0,0.0,0.0,0.0,0.0,0.0,0.0,0.0,0.0,0.0,0.0,0.0,0.0,0.0,0.0,0.0,0.0,0.0,0.0,0.0,0.0,0.0,0.0,0.0,0.0,0.0,0.0,0.0,0.0,0.0,0.0,0.0,0.0,0.0,0.0,0.0,0.0,0.0,0.0,0.0,0.0,0.0,0.0,0.0,0.0,0.0,0.0,0.0,0.0,0.0,-2.8037,-3.0739,-3.371,-3.6992,-3.7016,-3.6993,-3.6943,-3.4582,-3.1584,-2.8033,0.0,0.0,0.0,0.0,0.0,0.0,0.0,0.0,0.0,0.0,0.0,0.0,0.0,0.0,0.0,0.0,0.0,0.0,0.0,0.0,0.0,0.0,0.0,0.0,0.0,0.0,0.0,0.0,0.0,0.0,0.0,0.0,0.0,0.0,0.0,0.0,0.0,0.0,0.0,-1.7627,-1.8601,0.0,0.0,0.0,0.0,0.0,0.0,0.0,0.0,-2.0945,0.0,0.0,0.0,0.0,0.0,0.0,0.0,0.0,0.0,0.0,0.0,0.0,0.0,0.0,0.0,0.0,0.0,0.0,0.0,0.0,0.0,0.0,0.0,0.0,0.0,0.0,0.0,0.0,0.0,0.0,0.0,0.0,0.0,0.0,0.0,0.0,0.0,0.0,0.0,0.0,0.0,0.0,0.0,0.0,0.0,0.0,0.0,0.0,0.0,0.0,0.0,0.0,0.0,0.0,0.0,-2.8256,-3.1677,-3.4472,-3.6523,-3.6598,-3.6521,-3.6394,-3.4338,-3.1549,0.0,0.0,0.0,0.0,0.0,0.0,0.0,0.0,0.0,0.0,0.0,0.0,0.0,0.0,0.0,0.0,0.0,0.0,0.0,0.0,0.0,0.0,0.0,0.0,0.0,0.0,0.0,0.0,0.0,0.0,0.0,0.0,0.0,0.0,0.0,0.0,0.0,0.0,0.0,0.0,-1.975,-2.0686,-2.1816,0.0,0.0,0.0,0.0,0.0,0.0,-2.3217,-2.2502,0.0,0.0,0.0,0.0,0.0,0.0,0.0,0.0,0.0,0.0,0.0,0.0,0.0,0.0,0.0,0.0,0.0,0.0,0.0,0.0,0.0,0.0,0.0,0.0,0.0,0.0,0.0,0.0,0.0,0.0,0.0,0.0,0.0,0.0,0.0,0.0,0.0,0.0,0.0,0.0,0.0,0.0,0.0,0.0,0.0,0.0,0.0,0.0,0.0,0.0,0.0,0.0,0.0,0.0,0.0,-2.8317,-3.2342,-3.4941,-3.5957,-3.6016,-3.5973,-3.5864,-3.3893,-3.1325,0.0,0.0,0.0,0.0,0.0,0.0,0.0,0.0,0.0,0.0,0.0,0.0,0.0,0.0,0.0,0.0,0.0,0.0,0.0,0.0,0.0,0.0,0.0,0.0,0.0,0.0,0.0,0.0,0.0,0.0,0.0,0.0,0.0,0.0,0.0,0.0,0.0,0.0,0.0,0.0,0.0,-2.2864,-2.4228,-2.352,0.0,0.0,0.0,0.0,-2.5101,-2.4994,0.0,0.0,0.0,0.0,0.0,0.0,0.0,0.0,0.0,0.0,0.0,0.0,0.0,0.0,0.0,0.0,0.0,0.0,0.0,0.0,0.0,0.0,0.0,0.0,0.0,0.0,0.0,0.0,0.0,0.0,0.0,0.0,0.0,0.0,0.0,0.0,0.0,0.0,0.0,0.0,0.0,0.0,0.0,0.0,0.0,0.0,0.0,0.0,0.0,0.0,0.0,0.0,0.0,0.0,0.0,0.0,-2.828,-3.1758,-3.4336,-3.5918,-3.6016,-3.5973,-3.5864,-3.278,-3.0143,0.0,0.0,0.0,0.0,0.0,0.0,0.0,0.0,0.0,0.0,0.0,0.0,0.0,0.0,0.0,0.0,0.0,0.0,0.0,0.0,0.0,0.0,0.0,0.0,0.0,0.0,0.0,0.0,0.0,0.0,0.0,0.0,0.0,0.0,0.0,0.0,0.0,0.0,0.0,0.0,0.0,-2.4256,-2.5146,-2.5723,-2.5531,0.0,0.0,-2.7187,-2.7403,-2.8118,0.0,0.0,0.0,0.0,0.0,0.0,0.0,0.0,0.0,0.0,0.0,0.0,0.0,0.0,0.0,0.0,0.0,0.0,0.0,0.0,0.0,0.0,0.0,0.0,0.0,0.0,0.0,0.0,0.0,0.0,0.0,0.0,0.0,0.0,0.0,0.0,0.0,0.0,0.0,0.0,0.0,0.0,0.0,0.0,0.0,0.0,0.0,0.0,0.0,0.0,0.0,0.0,0.0,0.0,0.0,-2.5798,-2.8358,-3.2636,-3.5234,-3.5976,-3.6016,-3.5976,-3.5951,-3.2603,-2.9975,0.0,0.0,0.0,0.0,0.0,0.0,0.0,0.0,0.0,0.0,0.0,0.0,0.0,0.0,0.0,0.0,0.0,0.0,0.0,0.0,0.0,0.0,0.0,0.0,0.0,0.0,0.0,0.0,0.0,0.0,0.0,0.0,0.0,0.0,0.0,0.0,0.0,0.0,0.0,0.0,0.0,0.0,-2.6586,-2.7842,0.0,0.0,0.0,-2.9848,-2.989,0.0,0.0,0.0,0.0,0.0,0.0,0.0,0.0,0.0,0.0,0.0,0.0,0.0,0.0,0.0,0.0,0.0,0.0,0.0,0.0,0.0,0.0,0.0,0.0,0.0,0.0,0.0,0.0,0.0,0.0,0.0,0.0,0.0,0.0,0.0,0.0,0.0,0.0,0.0,0.0,0.0,0.0,0.0,0.0,0.0,0.0,0.0,0.0,0.0,0.0,0.0,0.0,0.0,0.0,0.0,0.0,0.0,-2.8629,-3.3474,-3.5975,-3.6016,-3.6016,-3.6016,-3.5957,-3.2828,0.0,0.0,0.0,0.0,0.0,0.0,0.0,0.0,0.0,0.0,0.0,0.0,0.0,0.0,0.0,0.0,0.0,0.0,0.0,0.0,0.0,0.0,0.0,0.0,0.0,0.0,0.0,0.0,0.0,0.0,0.0,0.0,0.0,0.0,0.0,0.0,0.0,0.0,0.0,0.0,0.0,0.0,-2.6806,-2.8209,-2.9953,-3.0889,0.0,0.0,-3.2015,-3.209,-3.1974,-3.0819,0.0,0.0,0.0,0.0,0.0,0.0,0.0,0.0,0.0,0.0,0.0,0.0,0.0,0.0,0.0,0.0,0.0,0.0,0.0,0.0,0.0,0.0,0.0,0.0,0.0,0.0,0.0,0.0,0.0,0.0,0.0,0.0,0.0,0.0,0.0,0.0,0.0,0.0,0.0,0.0,0.0,0.0,0.0,0.0,0.0,0.0,0.0,0.0,0.0,0.0,0.0,0.0,0.0,0.0,0.0,-2.9463,-3.3689,-3.5944,-3.5996,-3.6016,-3.6016,-3.5957,-3.3397,-3.0836,0.0,0.0,0.0,0.0,0.0,0.0,0.0,0.0,0.0,0.0,0.0,0.0,0.0,0.0,0.0,0.0,0.0,0.0,0.0,0.0,0.0,0.0,0.0,0.0,0.0,0.0,0.0,0.0,0.0,0.0,0.0,0.0,0.0,0.0,0.0,0.0,0.0,0.0,0.0,0.0,0.0,-2.9078,-2.9934,-3.2045,-3.3532,0.0,0.0,-3.3655,-3.3673,-3.4904,-3.4121,-2.887,0.0,0.0,0.0,0.0,0.0,0.0,0.0,0.0,0.0,0.0,0.0,0.0,0.0,0.0,0.0,0.0,0.0,0.0,0.0,0.0,0.0,0.0,0.0,0.0,0.0,0.0,0.0,0.0,0.0,0.0,0.0,0.0,0.0,0.0,0.0,0.0,0.0,0.0,0.0,0.0,0.0,0.0,0.0,0.0,0.0,0.0,0.0,0.0,0.0,0.0,0.0,0.0,0.0,-2.6862,-2.9433,-3.3707,-3.5929,-3.5944,-3.5975,-3.6016,-3.6016,-3.3984,-3.1698,0.0,0.0,0.0,0.0,0.0,0.0,0.0,0.0,0.0,0.0,0.0,0.0,0.0,0.0,0.0,0.0,0.0,0.0,0.0,0.0,0.0,0.0,0.0,0.0,0.0,0.0,0.0,0.0,-1.4097,-1.4381,-1.347,0.0,0.0,0.0,0.0,0.0,0.0,0.0,0.0,0.0,0.0,-3.0381,-3.2155,-3.41,0.0,0.0,-3.5404,-3.5913,-3.5404,-3.5,-3.3732,-3.0729,-2.8566,0.0,0.0,0.0,0.0,0.0,0.0,0.0,0.0,0.0,0.0,0.0,0.0,0.0,0.0,0.0,0.0,0.0,0.0,0.0,0.0,0.0,0.0,0.0,0.0,0.0,0.0,0.0,0.0,0.0,0.0,0.0,0.0,0.0,0.0,0.0,0.0,0.0,0.0,0.0,0.0,0.0,0.0,0.0,0.0,0.0,0.0,0.0,0.0,0.0,0.0,0.0,0.0,-2.6946,-2.9735,-3.3768,-3.5829,-3.5882,-3.5947,-3.5975,-3.5976,-3.457,-3.2578,0.0,0.0,0.0,0.0,0.0,0.0,0.0,0.0,0.0,0.0,0.0,0.0,0.0,0.0,0.0,0.0,0.0,0.0,0.0,0.0,0.0,0.0,0.0,0.0,0.0,0.0,0.0,0.0,-1.5285,-1.5344,-1.4286,0.0,0.0,0.0,0.0,0.0,0.0,0.0,0.0,0.0,0.0,-3.2326,-3.4284,-3.5771,-3.6505,-3.616,-3.6688,-3.6942,-3.6376,-3.5312,-3.3944,-3.2195,0.0,0.0,0.0,0.0,0.0,0.0,0.0,0.0,0.0,0.0,0.0,0.0,0.0,0.0,0.0,0.0,0.0,0.0,0.0,0.0,0.0,0.0,0.0,0.0,0.0,0.0,0.0,-1.6714,0.0,0.0,-1.5503,0.0,0.0,0.0,0.0,0.0,0.0,0.0,0.0,0.0,0.0,0.0,0.0,0.0,0.0,0.0,0.0,0.0,0.0,0.0,0.0,0.0,0.0,-2.7133,-3.0542,-3.3895,-3.5714,-3.5898,-3.5903,-3.5923,-3.5976,-3.5137,-3.3476,-3.0917,0.0,0.0,0.0,0.0,0.0,0.0,0.0,0.0,0.0,0.0,0.0,0.0,0.0,0.0,0.0,0.0,0.0,0.0,0.0,0.0,0.0,0.0,0.0,0.0,0.0,0.0,-1.3848,-1.4499,-1.5045,0.0,0.0,0.0,0.0,0.0,0.0,0.0,0.0,0.0,0.0,-3.2399,-3.5206,-3.6101,-3.696,-3.7749,-3.8487,-3.7349,-3.634,-3.6358,-3.6266,-3.5418,0.0,0.0,0.0,0.0,0.0,0.0,0.0,0.0,0.0,0.0,0.0,0.0,0.0,0.0,0.0,0.0,0.0,0.0,0.0,0.0,0.0,0.0,0.0,0.0,0.0,0.0,0.0,-2.1126,-2.0848,0.0,0.0,0.0,0.0,0.0,0.0,0.0,0.0,0.0,0.0,0.0,-2.7673,-2.7898,0.0,0.0,0.0,0.0,0.0,0.0,0.0,0.0,0.0,0.0,0.0,0.0,-2.7936,-3.1294,-3.4143,-3.5939,-3.6589,-3.6155,-3.594,-3.5976,-3.5723,-3.4101,-3.0996,0.0,0.0,0.0,0.0,0.0,0.0,0.0,0.0,0.0,0.0,0.0,0.0,0.0,0.0,0.0,0.0,0.0,0.0,0.0,0.0,0.0,0.0,0.0,0.0,0.0,-1.691,0.0,0.0,0.0,0.0,0.0,0.0,0.0,0.0,0.0,0.0,0.0,-2.7879,-3.2399,-3.4147,-3.5683,-3.7624,-3.812,-3.8579,0.0,0.0,0.0,0.0,0.0,0.0,0.0,0.0,0.0,0.0,0.0,0.0,0.0,0.0,-3.2203,-2.8493,-2.7363,-2.7149,-2.7615,0.0,0.0,0.0,0.0,0.0,0.0,0.0,0.0,0.0,0.0,0.0,0.0,0.0,0.0,-2.4352,-2.3821,-2.3556,0.0,0.0,0.0,0.0,0.0,0.0,0.0,0.0,-2.9788,-3.1403,-3.1931,-3.2164,-3.199,0.0,-3.1197,-2.8299,0.0,0.0,0.0,0.0,0.0,0.0,0.0,0.0,-2.8772,-3.2097,-3.4676,-3.6433,-3.7305,-3.6667,-3.6327,-3.638,-3.5819,-3.4219,-3.1445,-2.8887,-2.6055,0.0,0.0,0.0,0.0,0.0,0.0,0.0,0.0,0.0,0.0,0.0,0.0,0.0,0.0,0.0,0.0,0.0,0.0,0.0,0.0,0.0,0.0,0.0,-1.7911,0.0,0.0,0.0,0.0,0.0,0.0,0.0,0.0,0.0,-2.5844,-2.8007,-3.1097,-3.5298,-3.6343,-3.7187,-3.8508,0.0,0.0,0.0,0.0,0.0,0.0,0.0,-3.7459,-3.7151,-3.7353,-3.7719,-3.8285,-3.9304,-4.0018,-4.0018,0.0,0.0,-3.4321,-3.3006,-3.2797,-3.3297,-3.4029,-3.4742,-3.5214,-3.5975,-3.6684,0.0,0.0,0.0,0.0,0.0,0.0,0.0,0.0,-2.8255,-2.7363,0.0,-2.6629,0.0,0.0,0.0,0.0,-2.4678,-2.8683,0.0,0.0,-3.5241,-3.6938,-3.6847,-3.6031,-3.5689,-3.5752,-3.4891,-3.3142,-3.0535,-2.7355,0.0,0.0,0.0,0.0,0.0,0.0,-2.969,-3.3044,-3.5501,-3.7205,-3.8098,-3.7422,-3.7053,-3.7045,-3.558,-3.3984,-3.2344,-3.1406,-2.8984,-2.4766,-2.3652,0.0,0.0,0.0,0.0,0.0,0.0,0.0,0.0,0.0,0.0,0.0,0.0,0.0,0.0,0.0,0.0,0.0,0.0,0.0,0.0,-1.6607,0.0,0.0,0.0,0.0,0.0,0.0,0.0,0.0,0.0,0.0,-2.9317,-3.2546,-3.561,-3.729,0.0,0.0,0.0,0.0,-4.0873,-4.0157,-4.001,-4.0047,-4.01,-4.0047,-4.0249,-4.0985,0.0,0.0,-4.2433,-4.247,-4.2543,-4.2506,-4.3184,-4.2704,-3.9691,-3.8955,-3.8896,-3.8921,-3.9461,-4.0055,-4.0152,-4.0577,-4.1148,-3.4167,0.0,0.0,0.0,0.0,-2.9905,-3.1201,-3.3346,-3.3357,-3.3072,-3.2549,-3.1593,0.0,0.0,0.0,0.0,0.0,0.0,-3.307,-3.4536,-3.6691,-3.8003,-3.8607,-3.8924,-3.8777,-3.826,-3.7975,-3.6837,-3.4944,-3.3949,-3.0689,-2.5332,0.0,0.0,0.0,0.0,-3.1985,-3.4719,-3.6656,-3.8073,-3.9009,-3.8208,-3.7553,-3.7121,-3.6147,-3.5098,-3.4023,-3.3144,-3.1269,-2.8242,-2.6094,0.0,0.0,0.0,0.0,0.0,0.0,0.0,0.0,0.0,0.0,0.0,0.0,0.0,0.0,0.0,0.0,0.0,0.0,0.0,-1.8044,-1.9052,-1.9655,0.0,0.0,0.0,0.0,0.0,0.0,0.0,0.0,0.0,-3.5569,-3.5353,-3.5848,0.0,0.0,-3.9166,-3.9515,-4.0928,-4.2066,-4.2415,-4.2468,0.0,-4.324,-4.2837,-4.256,-4.2763,-4.3956,-4.5057,-4.5627,-4.6195,-4.6581,-4.6562,-4.6783,-4.6618,-4.5718,-4.3676,-4.25,-4.2889,-4.3203,-4.3551,-4.4066,-4.4378,-4.4544,-3.9438,-3.6065,-3.4192,-3.391,-3.4699,-3.4712,-3.5771,-3.7488,-3.7471,-3.7312,-3.6979,-3.6279,-3.4674,-3.2424,-3.1427,0.0,0.0,0.0,-3.6703,-3.805,-3.941,-4.03,-4.0816,-4.1316,-4.1285,-4.0804,-4.045,-3.9565,-3.818,-3.7526,-3.5008,-3.0766,0.0,0.0,-3.0433,-3.2268,-3.4276,-3.6432,-3.7822,-3.895,-3.9792,-3.9044,-3.8113,-3.7086,-3.662,-3.5973,-3.5135,-3.4606,-3.3297,-3.1109,-2.8863,-2.6339,0.0,0.0,0.0,0.0,0.0,0.0,0.0,0.0,0.0,0.0,0.0,-1.5358,0.0,0.0,0.0,0.0,-1.7516,-1.8313,-2.0556,-2.1243,0.0,0.0,0.0,0.0,0.0,0.0,0.0,-3.1679,-3.4444,-3.7074,-3.9331,-3.8927,-3.8927,-4.0414,-4.0891,-4.1148,-4.1295,0.0,-4.3791,-4.3956,-4.425,-4.4617,-4.5094,-4.5039,-4.5039,-4.5351,-4.6177,-4.7113,-4.7957,-4.8251,-4.8526,-4.9077,-4.904,-4.8912,-4.9242,-4.7664,-4.6379,-4.6617,-4.6929,-4.7297,-4.7774,-4.759,-4.7443,-4.3508,-4.322,-4.0123,-3.9104,-3.9592,-3.9611,-4.0008,-4.0689,-4.0689,-4.0285,-3.9669,-4.0304,-3.8854,-3.5904,-3.5962,0.0,-3.8373,-3.9996,-4.1085,-4.1923,-4.272,-4.3085,-4.3085,-4.3085,-4.3085,-4.3066,-4.2288,-4.1489,-4.065,-3.9181,-3.7969,-3.7077,-3.5565,-3.4648,-3.4353,-3.5154,-3.6385,-3.7969,-3.8834,-3.9688,-4.0458,-3.9786,-3.865,-3.7141,-3.7031,-3.6591,-3.5746,-3.5707,-3.4941,-3.3255,-3.1599,-2.9175,-2.5854,0.0,0.0,0.0,0.0,0.0,0.0,0.0,0.0,0.0,0.0,0.0,0.0,0.0,0.0,0.0,-2.1534,0.0,-2.3299,-2.3373,0.0,0.0,0.0,-2.6953,-2.9225,-3.1629,-3.399,-3.6303,0.0,0.0,-4.1279,-4.2727,-4.3735,-4.379,-4.4305,-4.4433,-4.3681,-4.4892,-4.5736,-4.5039,-4.559,-4.6067,-4.6177,-4.6654,-4.7241,-4.7865,-4.8343,-4.8636,-4.9298,-4.9077,-4.9224,-5.0435,-5.016,-4.9904,-5.0637,-5.06,-5.0674,-4.9812,-5.0196,-5.0692,-5.0545,-5.0013,-4.9701,-4.6913,-4.6836,-4.6028,-4.4355,-4.22,-4.2181,-4.2297,-4.2489,-4.247,-4.2374,-4.2162,-4.1681,-4.0681,-3.9342,-4.0008,-4.0519,-4.095,-4.2008,-4.2585,-4.2797,-4.2989,-4.3085,-4.3085,-4.3085,-4.3085,-4.3066,-4.2893,-4.2681,-4.247,-4.2085,-4.145,-4.0596,-4.02,-3.8392,-3.5346,-3.6,-3.6942,-3.7988,-3.8854,-3.9688,-4.0446,-3.9786,-3.8916,-3.7874,-3.7303,-3.6588,-3.5742,-3.5703,-3.4925,-3.3288,-3.2172,-3.0332,-2.754,-2.4178,0.0,0.0,0.0,0.0,0.0,0.0,0.0,0.0,0.0,-1.9276,-1.9599,0.0,-2.2238,0.0,-2.3171,-2.4447,-2.6447,-2.6678,0.0,0.0,-3.1329,-3.2265,-3.3482,-3.5756,-3.7716,-3.8909,-4.0616,-4.2268,-4.3681,-4.4709,-4.5553,-4.6122,-4.5351,-4.4635,-4.4488,-4.5773,-4.6764,-4.6617,-4.7149,-4.7737,-4.7682,-4.7865,-4.8067,-4.825,-4.8857,-4.9372,-4.9574,-4.9958,-5.0343,-5.0747,-5.0674,-5.0618,-5.082,-5.1261,-5.1628,-5.1426,-5.1114,-5.082,-5.0802,-5.0655,-5.0582,-4.8096,-4.8096,-4.8096,-4.7009,-4.5316,-4.5336,-4.5124,-4.4816,-4.4797,-4.4586,-4.4171,-4.3297,-4.2874,-4.2786,-4.2874,-4.3124,-4.3528,-4.3989,-4.422,-4.422,-4.4201,-4.422,-4.4201,-4.4201,-4.422,-4.4182,-4.3816,-4.3624,-4.3605,-4.3278,-4.2874,-4.2374,-4.2385,-4.0816,-3.7853,-3.7815,-3.7911,-3.8007,-3.8861,-3.9688,-4.0458,-3.9757,-3.8762,-3.7501,-3.6726,-3.5723,-3.4497,-3.4439,-3.4027,-3.3117,-3.2255,-3.0983,-2.9113,-2.6207,-2.3798,0.0,0.0,0.0,0.0,0.0,0.0,0.0,0.0,0.0,0.0,0.0,-2.4752,-2.5129,-2.6843,-2.8631,-3.0301,-3.0797,-3.188,-3.4027,-3.5293,-3.6285,-3.7092,-3.9368,-4.113,-4.1956,-4.3461,-4.4746,-4.5663,-4.6471,-4.7131,-4.7571,-4.6856,-4.6287,-4.6379,-4.7113,-4.7626,-4.7645,-4.8012,-4.8324,-4.8324,-4.8636,-4.8875,-4.893,-4.9591,-5.0233,-5.0583,-5.0729,-5.1004,-5.1665,-5.1591,-5.1463,-5.1811,-5.2197,-5.2546,-5.2491,-5.2197,-5.1903,-5.1846,-5.1591,-5.1389,-4.8432,-4.8432,-4.8432,-4.8432,-4.8432,-4.8452,-4.7913,-4.7058,-4.7038,-4.6624,-4.5864,-4.5105,-4.5201,-4.5883,-4.5124,-4.5201,-4.5902,-4.5817,-4.5768,-4.5759,-4.5652,-4.5594,-4.5594,-4.5594,-4.5594,-4.5556,-4.4836,-4.4479,-4.4432,-4.3758,-4.3355,-4.3258,-4.3258,-4.2393,-4.0708,-3.9977,-3.9142,-3.82,-3.9027,-3.9746,-4.0323,-3.9669,-3.8469,-3.6769,-3.5923,-3.4731,-3.3141,-3.2968,-3.2833,-3.2718,-3.2058,-3.1352,-3.0558,-2.8242,-2.6328,0.0,-2.3426,0.0,0.0,0.0,0.0,0.0,0.0,0.0,0.0,-2.7282,-2.7897,-2.8808,-3.1439,-3.3445,-3.4339,-3.5059,-3.594,-3.711,-3.8469,-3.9662,-4.0616,-4.2543,-4.4103,-4.4929,-4.625,-4.7113,-4.7241,-4.7902,-4.8306,-4.8269,-4.8177,-4.8086,-4.8251,-4.8233,-4.8251,-4.8324,-4.8324,-4.8361,-4.8563,-4.9114,-4.961,-4.9776,-5.0417,-5.1169,-5.1775,-5.1499,-5.1573,-5.2747,-5.2582,-5.2399,-5.3075,-5.3148,-5.3167,-5.313,-5.3075,-5.3057,-5.302,-5.2601,-5.2417,-5.0202,-5.0212,-5.0202,-5.0212,-5.0202,-5.0202,-4.9317,-4.7875,-4.7875,-4.7778,-4.7625,-4.7451,-4.7471,-4.7605,-4.7451,-4.7471,-4.7586,-4.6951,-4.6663,-4.6624,-4.5932,-4.5594,-4.5594,-4.5594,-4.5594,-4.5594,-4.5421,-4.5364,-4.5336,-4.5182,-4.4767,-4.4085,-4.4085,-4.3239,-4.1643,0.0,0.0,0.0,-3.9842,-4.0035,-3.9554,-3.94,-3.8469,-3.675,-3.5923,0.0,-3.3987,-3.3256,-3.2602,-3.1968,-3.1775,0.0,0.0,0.0,0.0,0.0,0.0,0.0,0.0,0.0,0.0,0.0,-3.2392,-3.1177,-2.8115,-3.0588,-3.3073,-3.4541,-3.5257,-3.6193,-3.7624,-3.7885,-3.9111,-4.1772,-4.2413,-4.3149,-4.4562,-4.5168,-4.5755,-4.6544,-4.6911,-4.7351,-4.7957,-4.8233,-4.8306,-4.8324,-4.8324,-4.8324,-4.8324,-4.8343,-4.8324,-4.8324,-4.8379,-4.86,-4.9262,-4.9537,-4.9978,-5.0453,-5.1242,-5.1775,-5.1995,-5.2472,-5.269,-5.3185,-5.3096,-5.2965,-5.3188,-5.3185,-5.3185,-5.3185,-5.3185,-5.3185,-5.3185,-5.3096,-5.3023,-5.0683,-5.0683,-5.0683,-5.0683,0.0,-5.0683,-5.0212,-4.9356,-4.8933,-4.8509,-4.8096,-4.8096,-4.8096,-4.8096,-4.8096,-4.8096,-4.8086,-4.7682,-4.749,-4.7471,-4.7028,-4.6836,-4.6817,-4.6432,-4.624,-4.622,-4.5797,-4.5594,-4.5594,-4.5594,-4.5383,-4.4932,-4.494,-4.4297,-4.3066,-4.2662,-4.1816,-4.0546,-4.0931,-4.0931,-4.0527,-4.0131,-3.9084,-3.7411,-3.6538,0.0,0.0,0.0,0.0,0.0,0.0,0.0,0.0,0.0,0.0,-3.2865,-3.25,-3.2635,-3.341,-3.3775,-3.463,-3.6252,-3.6974,-3.5857,-3.2317,-3.4623,-3.6725,-3.7955,-3.9129,-4.0341,-4.1534,-4.2011,-4.2892,-4.447,-4.4672,-4.5039,-4.5773,-4.6269,-4.6654,-4.7058,-4.7443,-4.7846,-4.8251,-4.8324,-4.8324,-4.8324,-4.8324,-4.8471,-4.8802,-4.8563,-4.8434,-4.8838,-4.8948,-4.9224,-5.0051,-5.0602,-5.0877,-5.1389,-5.2068,-5.2509,-5.2601,-5.2949,-5.3185,-5.3185,-5.3185,-5.3185,-5.3185,-5.3185,-5.3185,-5.3185,-5.3185,-5.3185,-5.3185,-5.3185,-5.3185,-5.0683,-5.0683,-5.0683,-5.0789,-5.0914,-5.0923,-5.102,-5.1097,-5.0077,0.0,0.0,-4.8567,-4.8567,-4.8567,-4.8567,-4.8567,-4.8548,-4.8413,-4.8317,-4.8317,-4.8182,-4.8096,-4.8067,-4.7423,-4.7124,-4.7086,-4.624,-4.5817,-4.5817,-4.5671,-4.5594,-4.5594,-4.5594,-4.5229,-4.4528,-4.3874,-4.3181,-4.2489,-4.2173,-4.195,-4.1788,-4.1085,-3.9938,-3.8277,-3.7385,-3.6199,-3.4718,-3.4507,-3.4103,-3.343,-3.418,-3.4725,-3.4891,-3.5699,-3.6231,-3.6365,-3.6519,-3.7212,-3.8565,-3.8126,-3.8466,-4.0024,-4.1022,-4.0435,-3.7776,-3.8909,-4.0084,-4.0891,-4.2763,-4.4195,-4.4874,-4.5498,-4.5957,-4.6085,-4.6122,-4.6159,-4.6342,-4.6874,-4.7333,-4.7388,-4.7883,-4.8324,-4.8306,-4.8324,-4.8379,-4.8526,-4.8618,-4.8838,-4.95,-4.9279,-4.9132,-4.9702,-4.9812,-5.0068,-5.0857,-5.1463,-5.2016,-5.2197,-5.2747,-5.3167,-5.3185,-5.3185,-5.3185,-5.3185,-5.3185,-5.3185,-5.3185,-5.3185,-5.3185,-5.3185,-5.3185,-5.3185,-5.3185,-5.3185,-5.3185,-5.0702,-5.0683,-5.0683,-5.1106,-5.1731,-5.1731,-5.2164,-5.2702,-5.1202,-5.0442,-5.0337,-5.0346,-5.0337,-5.0327,-5.0317,-5.0346,-5.0279,-4.9548,-4.9221,-4.9183,-4.8452,-4.8096,-4.8105,-4.799,-4.7952,-4.7894,-4.7105,-4.6721,-4.6644,-4.5979,-4.5594,-4.5614,-4.5594,-4.5537,-4.5421,-4.5306,-4.519,-4.5056,-4.3643,-4.2566,-4.1808,-4.1673,-4.0816,-3.9181,-3.8296,-3.7373,-3.6385,-3.5731,-3.5269,-3.5173,-3.5923,-3.6699,-3.745,-3.8296,-3.9084,-3.9777,-4.0508,-4.1038,-4.1288,-4.2445,-4.3656,-4.4733,-4.559,-4.5042,-4.2791,-4.3314,-4.4213,-4.4966,-4.5333,-4.559,-4.5736,-4.5883,-4.625,-4.6838,-4.6929,-4.7186,-4.7792,-4.7994,-4.8067,-4.8067,-4.8233,-4.8324,-4.8379,-4.8379,-4.8655,-4.9225,-4.95,-4.9757,-5.038,-5.0545,-5.049,-5.06,-5.0637,-5.0967,-5.1646,-5.1903,-5.2307,-5.2949,-5.3075,-5.3185,-5.3185,-5.3185,-5.3185,-5.3185,-5.3185,-5.3185,-5.3185,-5.3185,-5.3185,-5.3185,-5.3185,-5.3185,-5.3185,-5.3185,-5.3185,-5.2049,-5.2049,-5.2049,-5.226,-5.2596,-5.2596,-5.2818,-5.3126,-5.2395,-5.1798,-5.1337,-5.0894,-5.0683,-5.0683,-5.0683,-5.0683,-5.0673,-5.0308,-5.0106,-5.0077,-4.9683,-4.949,-4.9452,-4.9029,-4.8817,-4.874,-4.7971,-4.7567,-4.7519,-4.7144,-4.6951,-4.6932,-4.6528,-4.6075,-4.5633,-4.5594,-4.5594,-4.5575,-4.4836,-4.4036,-4.3181,-4.3162,-4.2585,-4.1373,-4.0969,-4.0373,-3.9481,-3.9115,-3.8712,-3.8219,-3.9027,-3.9654,-4.0065,-4.0893,-4.1931,-4.317,-4.3643,-4.4259,-4.5173,-4.5932,-4.6464,-4.6782,-4.7329,-4.7143,-4.5894,-4.5511,-4.57,-4.6452,-4.6526,-4.6746,-4.715,-4.7205,-4.737,-4.77,-4.7736,-4.7883,-4.8233,-4.8324,-4.8324,-4.8324,-4.8324,-4.8489,-4.8948,-4.9003,-4.9315,-5.0105,-5.0563,-5.1061,-5.1408,-5.1811,-5.1922,-5.1555,-5.1463,-5.1793,-5.2491,-5.2656,-5.2821,-5.3167,-5.3185,-5.3185,-5.3185,-5.3185,-5.3185,-5.3185,-5.3185,-5.3185,-5.3185,-5.3185,-5.3185,-5.3185,-5.3185,-5.3185,-5.3185,-5.3185,-5.3185,-5.3203,-5.3203,-5.3203,-5.3318,-5.351,-5.3683,-5.376,-5.376,-5.3568,-5.3106,-5.2423,-5.1625,-5.127,-5.126,-5.126,-5.126,-5.125,-5.1048,-5.0971,-5.0952,-5.0789,-5.0683,-5.0635,-5.0,-4.9683,-4.9586,-4.8798,-4.8394,-4.8375,-4.8202,-4.8096,-4.8029,-4.7481,-4.6817,-4.6163,-4.6172,-4.6172,-4.6172,-4.6172,-4.5652,-4.4624,-4.4586,-4.4182,-4.3431,-4.3355,-4.297,-4.2162,-4.2096,-4.1797,-4.1208,-4.2085,-4.2662,-4.272,-4.3662,-4.4816,-4.5998,-4.6172,-4.6817,-4.8221,-4.8394,-4.8326,-4.8193,-4.8369,-4.8423,-4.8184,-4.7313,-4.6893,-4.7296,-4.7369,-4.7608,-4.8104,-4.8269,-4.8379,-4.8545,-4.86,-4.86,-4.8618,-4.8746,-4.8765,-4.8673,-4.8746,-4.9189,-4.9764,-4.9927,-5.0196,-5.0967,-5.1775,-5.2234,-5.2344,-5.2858,-5.2876,-5.2509,-5.2252,-5.2472,-5.3093,-5.3167,-5.3167,-5.3185,-5.3185,-5.3185,-5.3185,-5.3185,-5.3185,-5.3185,-5.3185,-5.3185,-5.3206,-5.3295,-5.3295,-5.3251,-5.3293,-5.3318,-5.3227,-5.3316,-5.3274,-5.3241,-5.3203,-5.328,-5.3645,-5.4434,-5.5107,-5.5395,-5.5318,-5.4684,-5.4337,-5.4107,-5.3356,-5.2953,-5.2991,-5.2933,-5.2895,-5.2837,-5.2135,-5.1788,-5.1702,-5.1029,-5.0683,-5.0731,-5.0616,-5.0596,-5.0442,-4.9663,-4.9279,-4.924,-4.8548,-4.8135,-4.8096,-4.8029,-4.7932,-4.7836,-4.7817,-4.7855,-4.7875,-4.7875,-4.7086,-4.5594,-4.5479,-4.5066,-4.422,-4.422,-4.3816,-4.3181,-4.297,-4.2951,-4.2989,-4.4374,-4.5229,-4.5364,-4.6721,-4.7673,-4.7836,-4.7855,-4.8298,-4.9163,-4.9279,-4.9459,-4.9792,-4.9543,-4.9532,-4.9806,-4.9492,-4.8931,-4.8454,-4.8252,-4.8344,-4.8287,-4.8417,-4.8785,-4.9389,-4.9482,-4.95,-4.9536,-5.0141,-5.0288,-4.9555,-5.0013,-5.0723,-5.1028,-5.0988,-5.1101,-5.1858,-5.2493,-5.297,-5.3033,-5.3143,-5.3277,-5.3122,-5.3081,-5.3081,-5.3206,-5.3185,-5.3185,-5.3185,-5.3185,-5.3185,-5.3185,-5.3185,-5.3185,-5.3185,-5.3185,-5.3185,-5.3297,-5.3444,-5.3565,-5.3361,-5.3444,-5.3586,-5.3359,-5.3464,-5.3546,-5.4664,-5.4684,-5.4684,-5.4876,-5.5241,-5.5568,-5.5684,-5.5645,-5.5357,-5.5203,-5.5164,-5.4818,-5.4145,-5.3222,-5.3203,-5.3203,-5.3164,-5.2837,-5.2673,-5.2645,-5.2318,-5.1895,-5.1452,-5.1433,-5.1164,-5.0712,-5.0327,-5.0164,-5.0115,-4.9817,-4.9375,-4.8913,-4.8856,-4.8625,-4.8135,-4.8096,-4.8096,-4.8096,-4.8096,-4.7759,-4.7182,-4.7086,-4.6913,-4.6605,-4.6547,-4.6413,-4.6105,-4.6067,-4.6047,-4.6086,-4.6721,-4.7086,-4.7086,-4.774,-4.8336,-4.8836,-4.9356,-4.9779,-5.0144,-5.0173,-5.047,-5.1133,-5.058,-5.0489,-5.1142,-5.089,-5.0491,-5.0213,-5.012,-5.0047,-4.9817,-4.999,-5.0213,-5.0314,-5.0306,-5.0288,-5.0306,-5.0618,-5.0637,-5.0362,-5.0582,-5.1186,-5.1936,-5.2382,-5.2695,-5.2988,-5.3216,-5.3297,-5.3504,-5.3564,-5.3682,-5.3907,-5.3979,-5.372,-5.3359,-5.3185,-5.3206,-5.3206,-5.3185,-5.3185,-5.3206,-5.3185,-5.3185,-5.3185,-5.3185,-5.3295,-5.3526,-5.3424,-5.3422,-5.3402,-5.3359,-5.3381,-5.3209,-5.3525,-5.3663,-5.5684,-5.5684,-5.5684,-5.5684,-5.5684,-5.5684,-5.5684,-5.5684,-5.5684,-5.5684,-5.5684,-5.5684,-5.5049,-5.3991,-5.3876,-5.3876,-5.3876,-5.3664,-5.3568,-5.353,-5.3337,-5.2856,-5.2288,-5.2231,-5.1972,-5.1471,-5.1404,-5.1289,-5.1029,-5.076,-5.0356,-4.9837,-4.974,-4.9433,-4.8875,-4.8817,-4.8817,-4.8836,-4.8817,-4.8817,-4.8817,-4.8817,-4.8586,-4.8163,-4.8096,-4.8096,-4.8096,-4.8096,-4.8096,-4.8096,-4.8317,-4.8471,-4.8452,-4.8663,-4.9086,-4.974,-5.0548,-5.1029,-5.1029,-5.1241,-5.1625,-5.2123,-5.1605,-5.159,-5.2231,-5.2127,-5.2027,-5.2235,-5.2336,-5.2139,-5.125,-5.1304,-5.136,-5.1417,-5.1298,-5.1175,-5.1297,-5.1382,-5.1426,-5.1187,-5.1532,-5.199,-5.2953,-5.3687,-5.4074,-5.3939,-5.3739,-5.3623,-5.3924,-5.4014,-5.4137,-5.4455,-5.4487,-5.424,-5.3681,-5.3623,-5.3563,-5.3522,-5.3543,-5.3402,-5.3336,-5.3295,-5.3185,-5.3185,-5.3185,-5.3251,-5.3424,-5.3359,-5.3422,-5.3604,-5.3505,-5.323,-5.3206,-5.3604,-5.3942,-5.5684,-5.5684,-5.5684,-5.5684,-5.5684,-5.5684,-5.5684,-5.5684,-5.5684,-5.5684,-5.5684,-5.5684,-5.5645,-5.5491,-5.5415,-5.5549,-5.5434,-5.4741,-5.4434,-5.4376,-5.3664,-5.3222,-5.3164,-5.3145,-5.3106,-5.2876,-5.2856,-5.2549,-5.1846,-5.1144,-5.0683,-5.0693,-5.0731,-5.0654,-5.051,-5.05,-5.0558,-5.0404,-5.0394,-5.0539,-5.051,-5.0539,-4.9721,-4.8471,-4.8154,-4.8231,-4.8202,-4.8135,-4.8154,-4.8135,-4.8933,-4.9356,-4.9394,-5.0106,-5.0567,-5.0712,-5.1395,-5.1846,-5.1942,-5.2519,-5.3029,-5.3075,-5.2712,-5.2831,-5.3547,-5.3341,-5.3428,-5.4223,-5.4463,-5.3974,-5.2421,-5.1961,-5.2083,-5.2846,-5.2363,-5.2168,-5.2475,-5.2742,-5.2679,-5.232,-5.2901,-5.3621,-5.4288,-5.4766,-5.476,-5.4547,-5.4439,-5.4423,-5.4439,-5.4471,-5.4519,-5.4563,-5.4597,-5.4503,-5.442,-5.424,-5.429,-5.4223,-5.3924,-5.374,-5.3624,-5.3505,-5.3339,-5.3185,-5.3185,-5.3209,-5.3274,-5.3424,-5.3644,-5.3683,-5.3462,-5.3269,-5.3185,-5.3943,-5.429,-5.5684,-5.5684,-5.5684,-5.5684,-5.5684,-5.5684,-5.5684,-5.5684,-5.5684,-5.5684,-5.5684,-5.5684,-5.5684,-5.5684,-5.5684,-5.5684,-5.5665,-5.5376,-5.5261,-5.5222,-5.4934,-5.453,-5.4049,-5.403,-5.3703,-5.326,-5.3203,-5.3049,-5.276,-5.2414,-5.2299,-5.2299,-5.2299,-5.2049,-5.1568,-5.1491,-5.1241,-5.0741,-5.0683,-5.0943,-5.1375,-5.0971,-5.0606,-5.0519,-5.001,-4.976,-4.976,-4.976,-4.976,-4.976,-5.0077,-5.0231,-5.0298,-5.101,-5.1471,-5.1548,-5.2279,-5.2741,-5.2769,-5.301,-5.3472,-5.3951,-5.3616,-5.3728,-5.4427,-5.4523,-5.4572,-5.4857,-5.5256,-5.4997,-5.4524,-5.3792,-5.3532,-5.3811,-5.3293,-5.2922,-5.3274,-5.3496,-5.3455,-5.3367,-5.4018,-5.4678,-5.4804,-5.5021,-5.5034,-5.4895,-5.4689,-5.4659,-5.4838,-5.4895,-5.4966,-5.5199,-5.5282,-5.5269,-5.5269,-5.476,-5.4468,-5.4452,-5.4288,-5.4066,-5.3906,-5.3739,-5.3565,-5.3295,-5.3251,-5.3274,-5.3361,-5.3485,-5.372,-5.3682,-5.3422,-5.3248,-5.3185,-5.3943,-5.434,-5.5684,-5.5684,-5.5684,-5.5684,-5.5684,-5.5684,-5.5684,-5.5684,-5.5684,-5.5684,-5.5684,-5.5684,-5.5684,-5.5684,-5.5684,-5.5684,-5.5684,-5.5684,-5.5684,-5.5684,-5.5684,-5.5395,-5.4972,-5.4895,-5.4587,-5.403,-5.3722,-5.3626,-5.3587,-5.3337,-5.3203,-5.3183,-5.3203,-5.2904,-5.2385,-5.2308,-5.2029,-5.1587,-5.151,-5.1798,-5.2202,-5.1798,-5.176,-5.2154,-5.1779,-5.1221,-5.075,-5.0683,-5.0846,-5.1029,-5.1087,-5.1202,-5.1529,-5.201,-5.2327,-5.2404,-5.3145,-5.3606,-5.3683,-5.3857,-5.428,-5.4799,-5.4622,-5.4701,-5.5237,-5.5275,-5.5237,-5.5212,-5.53,-5.5489,-5.5212,-5.4614,-5.4433,-5.4655,-5.4137,-5.3796,-5.417,-5.4099,-5.4031,-5.4081,-5.4583,-5.5021,-5.5101,-5.5244,-5.5294,-5.5294,-5.5034,-5.5034,-5.5224,-5.5306,-5.5356,-5.564,-5.5651,-5.561,-5.5588,-5.5212,-5.5034,-5.4993,-5.4745,-5.4481,-5.4219,-5.403,-5.3777,-5.3504,-5.3359,-5.3402,-5.3465,-5.3585,-5.3605,-5.3624,-5.3442,-5.3206,-5.3482,-5.3925,-5.429,-5.5684,-5.5684,-5.5684,-5.5684,-5.5684,-5.5684,-5.5684,-5.5684,-5.5684,-5.5684,-5.5684,-5.5684,-5.5684,-5.5684,-5.5684,-5.5684,-5.5684,-5.5684,-5.5684,-5.5684,-5.5684,-5.5684,-5.5588,-5.5568,-5.5549,-5.5434,-5.4838,-5.4491,-5.4453,-5.3818,-5.3453,-5.3337,-5.3453,-5.3433,-5.3222,-5.3203,-5.3183,-5.2991,-5.2933,-5.3068,-5.3183,-5.3049,-5.3049,-5.3183,-5.3087,-5.2337,-5.0894,-5.0837,-5.1241,-5.1808,-5.1923,-5.2327,-5.2895,-5.3145,-5.3203,-5.3337,-5.403,-5.4472,-5.4587,-5.5126,-5.5434,-5.5549,-5.5615,-5.5525,-5.5572,-5.5588,-5.5435,-5.5186,-5.508,-5.4966,-5.4594,-5.4221,-5.435,-5.5343,-5.476,-5.4452,-5.4804,-5.4701,-5.4503,-5.4532,-5.4876,-5.5094,-5.5186,-5.5411,-5.5599,-5.5599,-5.5588,-5.5535,-5.5588,-5.5599,-5.5662,-5.5703,-5.5684,-5.5684,-5.5684,-5.5673,-5.5662,-5.5599,-5.5275,-5.4988,-5.4727,-5.4494,-5.4168,-5.387,-5.3524,-5.3505,-5.3464,-5.3545,-5.3444,-5.3422,-5.3251,-5.3227,-5.3462,-5.3796,-5.4274,-5.5684,-5.5684,-5.5684,-5.5684,-5.5684,-5.5684,-5.5684,-5.5684,-5.5684,-5.5684,-5.5684,-5.5684,-5.5684,-5.5684,-5.5684,-5.5684,-5.5684,-5.5684,-5.5684,-5.5684,-5.5684,-5.5684,-5.5684,-5.5684,-5.5684,-5.5665,-5.5453,-5.5318,-5.5241,-5.4991,-5.4934,-5.4914,-5.4895,-5.4607,-5.4107,-5.4087,-5.3837,-5.326,-5.3203,-5.3472,-5.3953,-5.351,-5.3491,-5.3972,-5.351,-5.2914,-5.2472,-5.2414,-5.2549,-5.2799,-5.2799,-5.2933,-5.326,-5.378,-5.4068,-5.4184,-5.4857,-5.5318,-5.5338,-5.5511,-5.5684,-5.5684,-5.5684,-5.5684,-5.5662,-5.5446,-5.5269,-5.5061,-5.4867,-5.4628,-5.4484,-5.4371,-5.456,-5.5212,-5.4544,-5.4385,-5.496,-5.4775,-5.4671,-5.4881,-5.5021,-5.5199,-5.5435,-5.5662,-5.5684,-5.5684,-5.5684,-5.5684,-5.5684,-5.5684,-5.5684,-5.5684,-5.5684,-5.5684,-5.5684,-5.5684,-5.5684,-5.5684,-5.5524,-5.5343,-5.5115,-5.4862,-5.4544,-5.417,-5.3814,-5.3585,-5.3525,-5.3484,-5.3422,-5.338,-5.3359,-5.3336,-5.3316,-5.3682,-5.4274,-5.5684,-5.5684,-5.5684,-5.5684,-5.5684,-5.5684,-5.5684,-5.5684,-5.5684,-5.5684,-5.5684,-5.5684,-5.5684,-5.5684,-5.5684,-5.5684,-5.5684,-5.5684,-5.5684,-5.5684,-5.5684,-5.5684,-5.5684,-5.5684,-5.5684,-5.5684,-5.5684,-5.5684,-5.5684,-5.5684,-5.5684,-5.5684,-5.5684,-5.5453,-5.4991,-5.4934,-5.4626,-5.4184,-5.4145,-5.4395,-5.4703,-5.4395,-5.4376,-5.4799,-5.4414,-5.4164,-5.4145,-5.4126,-5.3991,-5.3799,-5.3953,-5.4126,-5.4184,-5.4645,-5.4953,-5.5049,-5.5376,-5.5684,-5.5684,-5.5665,-5.5684,-5.5684,-5.5684,-5.5684,-5.5651,-5.5423,-5.525,-5.4862,-5.4655,-5.4373,-5.4103,-5.4171,-5.442,-5.4819,-5.4591,-5.4606,-5.5141,-5.5101,-5.4947,-5.5115,-5.5224,-5.5375,-5.5454,-5.5651,-5.5673,-5.5684,-5.5684,-5.5684,-5.5684,-5.5684,-5.5684,-5.5684,-5.5684,-5.5684,-5.5684,-5.5684,-5.5684,-5.5684,-5.5662,-5.5554,-5.5399,-5.5115,-5.4819,-5.4319,-5.3906,-5.3701,-5.3623,-5.3565,-5.3526,-5.3485,-5.342,-5.3422,-5.3482,-5.3979,-5.4519,-5.5684,-5.5684,-5.5684,-5.5684,-5.5684,-5.5684,-5.5684,-5.5684,-5.5684,-5.5684,-5.5684,-5.5684,-5.5684,-5.5684,-5.5684,-5.5684,-5.5684,-5.5684,-5.5684,-5.5684,-5.5684,-5.5684,-5.5684,-5.5684,-5.5684,-5.5684,-5.5684,-5.5684,-5.5684,-5.5684,-5.5684,-5.5684,-5.5684,-5.5684,-5.5568,-5.5665,-5.5568,-5.5453,-5.553,-5.5568,-5.5607,-5.5607,-5.5588,-5.5626,-5.5549,-5.5491,-5.5453,-5.5415,-5.5203,-5.4761,-5.5164,-5.5434,-5.5607,-5.5684,-5.5626,-5.5588,-5.5684,-5.5684,-5.5684,-5.5684,-5.5684,-5.5684,-5.5684,-5.5684,-5.5673,-5.5558,-5.5237,-5.464,-5.4452,-5.4119,-5.3603,-5.3644,-5.4047,-5.4516,-5.4862,-5.5224,-5.5546,-5.5558,-5.5387,-5.5199,-5.5399,-5.5566,-5.5282,-5.5524,-5.5662,-5.5684,-5.5684,-5.5684,-5.5684,-5.5684,-5.5684,-5.5684,-5.5684,-5.5684,-5.5684,-5.5684,-5.5684,-5.5684,-5.5684,-5.5651,-5.5607,-5.5356,-5.5075,-5.4591,-5.4219,-5.3979,-5.372,-5.3682,-5.3525,-5.3339,-5.3339,-5.3462,-5.3739,-5.4189,-5.4609,-5.5684,-5.5684,-5.5684,-5.5684,-5.5684,-5.5684,-5.5684,-5.5684,-5.5684,-5.5684,-5.5684,-5.5684,-5.5684,-5.5684,-5.5684,-5.5684,-5.5684,-5.5684,-5.5684,-5.5684,-5.5684,-5.5684,-5.5684,-5.5684,-5.5684,-5.5684,-5.5684,-5.5684,-5.5684,-5.5684,-5.5684,-5.5684,-5.5684,-5.5684,-5.5684,-5.5684,-5.5684,-5.5684,-5.5684,-5.5684,-5.5684,-5.5684,-5.5684,-5.5684,-5.5684,-5.5684,-5.5684,-5.5684,-5.5626,-5.5434,-5.5549,-5.5684,-5.5684,-5.5684,-5.5684,-5.5684,-5.5684,-5.5684,-5.5684,-5.5684,-5.5684,-5.5684,-5.5684,-5.5684,-5.5703,-5.5423,-5.5034,-5.4532,-5.424,-5.3923,-5.3702,-5.3758,-5.4168,-5.4833,-5.5262,-5.5466,-5.5331,-5.5237,-5.5199,-5.5128,-5.5224,-5.5343,-5.5512,-5.5599,-5.5684,-5.5684,-5.5684,-5.5684,-5.5684,-5.5684,-5.5684,-5.5684,-5.5684,-5.5684,-5.5684,-5.5684,-5.5684,-5.5684,-5.5684,-5.5684,-5.5662,-5.5588,-5.5319,-5.496,-5.4843,-5.4621,-5.4101,-5.3777,-5.3525,-5.3482,-5.34,-5.3564,-5.3814,-5.4185,-5.4636,-5.5684,-5.5684,-5.5684,-5.5684,-5.5684,-5.5684,-5.5684,-5.5684,-5.5684,-5.5684,-5.5684,-5.5684,-5.5684,-5.5684,-5.5684,-5.5684,-5.5684,-5.5684,-5.5684,-5.5684,-5.5684,-5.5684,-5.5684,-5.5684,-5.5684,-5.5684,-5.5684,-5.5684,-5.5684,-5.5684,-5.5684,-5.5684,-5.5684,-5.5684,-5.5684,-5.5684,-5.5684,-5.5684,-5.5684,-5.5684,-5.5684,-5.5684,-5.5684,-5.5684,-5.5684,-5.5684,-5.5684,-5.5684,-5.5684,-5.5684,-5.5684,-5.5684,-5.5684,-5.5684,-5.5684,-5.5684,-5.5684,-5.5684,-5.5684,-5.5684,-5.5684,-5.5684,-5.5684,-5.5684,-5.5662,-5.5466,-5.5186,-5.4809,-5.4478,-5.4286,-5.417,-5.4236,-5.4667,-5.5237,-5.5566,-5.5599,-5.5356,-5.5368,-5.5343,-5.5343,-5.5356,-5.5423,-5.5673,-5.5684,-5.5684,-5.5684,-5.5684,-5.5684,-5.5684,-5.5684,-5.5684,-5.5684,-5.5684,-5.5684,-5.5684,-5.5684,-5.5684,-5.5684,-5.5684,-5.5684,-5.5684,-5.5684,-5.5477,-5.5269,-5.5306,-5.5141,-5.451,-5.4135,-5.4204,-5.4085,-5.3833,-5.387,-5.4219,-5.4333,-5.4771,-5.5684,-5.5684,-5.5684,-5.5684,-5.5684,-5.5684,-5.5684,-5.5684,-5.5684,-5.5684,-5.5684,-5.5684,-5.5684,-5.5684,-5.5684,-5.5684,-5.5684,-5.5684,-5.5684,-5.5684,-5.5684,-5.5684,-5.5684,-5.5684,-5.5684,-5.5684,-5.5684,-5.5684,-5.5684,-5.5684,-5.5684,-5.5684,-5.5684,-5.5684,-5.5684,-5.5684,-5.5684,-5.5684,-5.5684,-5.5684,-5.5684,-5.5684,-5.5684,-5.5684,-5.5684,-5.5684,-5.5684,-5.5684,-5.5684,-5.5684,-5.5684,-5.5684,-5.5684,-5.5684,-5.5684,-5.5684,-5.5684,-5.5684,-5.5684,-5.5684,-5.5684,-5.5684,-5.5684,-5.5684,-5.5684,-5.564,-5.5477,-5.5067,-5.5088,-5.4848,-5.4686,-5.489,-5.5224,-5.5577,-5.5703,-5.5684,-5.5684,-5.5684,-5.5684,-5.5684,-5.5703,-5.5703,-5.5684,-5.5684,-5.5684,-5.5684,-5.5684,-5.5684,-5.5684,-5.5684,-5.5684,-5.5684,-5.5684,-5.5684,-5.5684,-5.5684,-5.5684,-5.5684,-5.5684,-5.5684,-5.5684,-5.5651,-5.5501,-5.5411,-5.5477,-5.5269,-5.4775,-5.464,-5.4731,-5.4547,-5.4171,-5.4516,-5.489,-5.48,-5.5048,-5.5684,-5.5684,-5.5684,-5.5684,-5.5684,-5.5684,-5.5684,-5.5684,-5.5684,-5.5684,-5.5684,-5.5684,-5.5684,-5.5684,-5.5684,-5.5684,-5.5684,-5.5684,-5.5684,-5.5684,-5.5684,-5.5684,-5.5684,-5.5684,-5.5684,-5.5684,-5.5684,-5.5684,-5.5684,-5.5684,-5.5684,-5.5684,-5.5684,-5.5684,-5.5684,-5.5684,-5.5684,-5.5684,-5.5684,-5.5684,-5.5684,-5.5684,-5.5684,-5.5684,-5.5684,-5.5684,-5.5684,-5.5684,-5.5684,-5.5684,-5.5684,-5.5684,-5.5684,-5.5684,-5.5684,-5.5684,-5.5684,-5.5684,-5.5684,-5.5684,-5.5684,-5.5684,-5.5684,-5.5684,-5.5684,-5.5684,-5.5512,-5.5199,-5.5088,-5.5075,-5.5021,-5.5331,-5.5554,-5.5662,-5.5684,-5.5684,-5.5684,-5.5684,-5.5684,-5.5684,-5.5684,-5.5684,-5.5684,-5.5684,-5.5684,-5.5684,-5.5684,-5.5684,-5.5684,-5.5684,-5.5684,-5.5684,-5.5684,-5.5684,-5.5684,-5.5684,-5.5684,-5.5684,-5.5684,-5.5684,-5.5684,-5.5684,-5.5577,-5.5577,-5.564,-5.5331,-5.5007,-5.4966,-5.5053,-5.4779,-5.4597,-5.4881,-5.5088,-5.5115,-5.5212,-5.5684,-5.5684,-5.5684,-5.5684,-5.5684,-5.5684,-5.5684,-5.5684,-5.5684,-5.5684,-5.5684,-5.5684,-5.5684,-5.5684,-5.5684,-5.5684,-5.5684,-5.5684,-5.5684,-5.5684,-5.5684,-5.5684,-5.5684,-5.5684,-5.5684,-5.5684,-5.5684,-5.5684,-5.5684,-5.5684,-5.5684,-5.5684,-5.5684,-5.5684,-5.5684,-5.5684,-5.5684,-5.5684,-5.5684,-5.5684,-5.5684,-5.5684,-5.5684,-5.5684,-5.5684,-5.5684,-5.5684,-5.5684,-5.5684,-5.5684,-5.5684,-5.5684,-5.5684,-5.5684,-5.5684,-5.5684,-5.5684,-5.5684,-5.5684,-5.5684,-5.5684,-5.5684,-5.5684,-5.5684,-5.5684,-5.5684,-5.561,-5.5435,-5.5387,-5.5387,-5.538,-5.5512,-5.5684,-5.5684,-5.5684,-5.5684,-5.5684,-5.5684,-5.5684,-5.5684,-5.5684,-5.5684,-5.5684,-5.5684,-5.5684,-5.5684,-5.5684,-5.5684,-5.5684,-5.5684,-5.5684,-5.5684,-5.5684,-5.5684,-5.5684,-5.5684,-5.5684,-5.5684,-5.5684,-5.5684,-5.5684,-5.5684,-5.5684,-5.5703,-5.5703,-5.5651,-5.5399,-5.5375,-5.5338,-5.5269,-5.5199,-5.5224,-5.5262,-5.538,-5.5458,-5.5684,-5.5684,-5.5684,-5.5684,-5.5684,-5.5684,-5.5684,-5.5684,-5.5684,-5.5684,-5.5684,-5.5684,-5.5684,-5.5684,-5.5684,-5.5684,-5.5684,-5.5684,-5.5684,-5.5684,-5.5684,-5.5684,-5.5684,-5.5684,-5.5684,-5.5684,-5.5684,-5.5684,-5.5684,-5.5684,-5.5684,-5.5684,-5.5684,-5.5684,-5.5684,-5.5684,-5.5684,-5.5684,-5.5684,-5.5684,-5.5684,-5.5684,-5.5684,-5.5684,-5.5684,-5.5684,-5.5684,-5.5684,-5.5684,-5.5684,-5.5684,-5.5684,-5.5684,-5.5684,-5.5684,-5.5684,-5.5684,-5.5684,-5.5684,-5.5684,-5.5684,-5.5684,-5.5684,-5.5684,-5.5684,-5.5684,-5.5673,-5.5673,-5.5651,-5.5651,-5.5703,-5.5684,-5.5684,-5.5684,-5.5684,-5.5684,-5.5684,-5.5684,-5.5684,-5.5684,-5.5684,-5.5684,-5.5684,-5.5684,-5.5684,-5.5684,-5.5684,-5.5684,-5.5684,-5.5684,-5.5684,-5.5684,-5.5684,-5.5684,-5.5684,-5.5684,-5.5684,-5.5684,-5.5684,-5.5684,-5.5684,-5.5684,-5.5684,-5.5684,-5.5684,-5.5662,-5.5651,-5.5577,-5.5588,-5.5684,-5.5651,-5.5512,-5.5546,-5.5673,-5.5703,-5.5684,-5.5684,-5.5684,-5.5703,-5.5703,-5.5703,-5.5742,-5.5684,-5.5722,-5.5684,-5.5684,-5.5684,-5.5684,-5.5684,-5.5684,-5.5684,-5.5684,-5.5684,-5.5684,-5.5684,-5.5684,-5.5684,-5.5684,-5.5684,-5.5684,-5.5684,-5.5684,-5.5684,-5.5684,-5.5684,-5.5684,-5.5684,-5.5684,-5.5684,-5.5684,-5.5684,-5.5684,-5.5684,-5.5684,-5.5684,-5.5684,-5.5684,-5.5684,-5.5684,-5.5684,-5.5684,-5.5684,-5.5684,-5.5684,-5.5684,-5.5684,-5.5684,-5.5684,-5.5684,-5.5684,-5.5684,-5.5684,-5.5684,-5.5684,-5.5684,-5.5684,-5.5684,-5.5684,-5.5684,-5.5684,-5.5684,-5.5684,-5.5684,-5.5684,-5.5684,-5.5684,-5.5684,-5.5684,-5.5684,-5.5684,-5.5684,-5.5684,-5.5684,-5.5684,-5.5684,-5.5684,-5.5684,-5.5684,-5.5684,-5.5684,-5.5684,-5.5684,-5.5684,-5.5684,-5.5684,-5.5684,-5.5684,-5.5684,-5.5684,-5.5684,-5.5684,-5.5684,-5.5684,-5.5684,-5.5684,-5.5684,-5.5684,-5.5684,-5.5684,-5.5684,-5.5684,-5.5684,-5.5684,-5.5684,-5.5684,-5.5684,-5.5684,-5.5684,-5.5684,-5.5684,-5.5684,-5.5752,-5.6175,-5.6368,-5.6368,-5.6368,-5.6368,-5.6291,-5.5915,-5.5684,-5.5684,-5.5684,-5.5684,-5.5684,-5.5684,-5.5684,-5.5684,-5.5684,-5.5684,-5.5684,-5.5684,-5.5684,-5.5684,-5.5684,-5.5684,-5.5684,-5.5684,-5.5684,-5.5684,-5.5684,-5.5684,-5.5684,-5.5684,-5.5684,-5.5684,-5.5684,-5.5684,-5.5684,-5.5684,-5.5684,-5.5684,-5.5684,-5.5684,-5.5684,-5.5684,-5.5684,-5.5684,-5.5684,-5.5684,-5.5684,-5.5684,-5.5684,-5.5684,-5.5684,-5.5684,-5.5684,-5.5684,-5.5684,-5.5684,-5.5684,-5.5684,-5.5684,-5.5684,-5.5684,-5.5684,-5.5684,-5.5684,-5.5684,-5.5684,-5.5684,-5.5684,-5.5684,-5.5684,-5.5684,-5.5684,-5.5684,-5.5684,-5.5684,-5.5684,-5.5684,-5.5684,-5.5684,-5.5684,-5.5684,-5.5684,-5.5684,-5.5684,-5.5684,-5.5684,-5.5684,-5.5684,-5.5684,-5.5684,-5.5684,-5.5684,-5.5684,-5.5684,-5.5684,-5.5684,-5.5684,-5.5684,-5.5684,-5.5684,-5.5684,-5.5684,-5.5684,-5.5684,-5.5684,-5.5684,-5.5684,-5.5684,-5.5684,-5.5684,-5.5684,-5.5684,-5.5684,-5.5761,-5.6637,-5.6907,-5.6791,-5.6926,-5.6868,-5.6618,-5.5992,-5.5684,-5.5684,-5.5684,-5.5684,-5.5684,-5.5684,-5.5684,-5.5684,-5.5684,-5.5684,-5.5684,-5.5684,-5.5684,-5.5684,-5.5684,-5.5684,-5.5684,-5.5684,-5.5684,-5.5684,-5.5684,-5.5684,-5.5684,-5.5684,-5.5684,-5.5684,-5.5684,-5.5684,-5.5684,-5.5684,-5.5684,-5.5684,-5.5684,-5.5684,-5.5684,-5.5684,-5.5684,-5.5684,-5.5684,-5.5684,-5.5684,-5.5684,-5.5684,-5.5684,-5.5684,-5.5684,-5.5684,-5.5684,-5.5684,-5.5684,-5.5684,-5.5684,-5.5684,-5.5684,-5.5684,-5.5684,-5.5684,-5.5684,-5.5684,-5.5684,-5.5684,-5.5684,-5.5684,-5.5684,-5.5684,-5.5684,-5.5684,-5.5684,-5.5684,-5.5684,-5.5684,-5.5684,-5.5684,-5.5684,-5.5684,-5.5684,-5.5684,-5.5684,-5.5684,-5.5684,-5.5684,-5.5684,-5.5684,-5.5684,-5.5684,-5.5684,-5.5684,-5.5684,-5.5684,-5.5684,-5.5684,-5.5684,-5.5684,-5.5684,-5.5684,-5.5684,-5.5684,-5.5684,-5.5684,-5.5684,-5.5684,-5.5684,-5.5684,-5.5684,-5.5684,-5.5684,-5.5684,-5.5771,-5.6656,-5.656,-5.6107,-5.6753,-5.6588,-5.6002,-5.5818,-5.5684,-5.5684,-5.5684,-5.5684,-5.5684,-5.5684,-5.5684,-5.5684,-5.5684,-5.5684,-5.5684,-5.5684,-5.5684,-5.5684,-5.5684,-5.5684,-5.5684,-5.5684,-5.5684,-5.5684,-5.5684,-5.5684,-5.5684,-5.5684,-5.5684,-5.5684,-5.5684,-5.5684,-5.5684,-5.5684,-5.5684,-5.5684,-5.5684,-5.5684,-5.5684,-5.5684,-5.5684,-5.5684,-5.5684,-5.5684,-5.5684,-5.5684,-5.5684,-5.5684,-5.5684,-5.5684,-5.5684,-5.5684,-5.5684,-5.5684,-5.5684,-5.5684,-5.5684,-5.5684,-5.5684,-5.5684,-5.5684,-5.5684,-5.5684,-5.5684,-5.5684,-5.5684,-5.5684,-5.5684,-5.5684,-5.5684,-5.5684,-5.5684,-5.5684,-5.5684,-5.5684,-5.5684,-5.5684,-5.5684,-5.5684,-5.5684,-5.5684,-5.5684,-5.5684,-5.5684,-5.5684,-5.5684,-5.5684,-5.5684,-5.5684,-5.5684,-5.5684,-5.5684,-5.5684,-5.5684,-5.5684,-5.5684,-5.5684,-5.5684,-5.5684,-5.5684,-5.5684,-5.5684,-5.5684,-5.5684,-5.5684,-5.5684,-5.5684,-5.5684,-5.5684,-5.5684,-5.5684,-5.5818,-5.7184,-5.753,-5.7261,-5.7588,-5.753,-5.7011,-5.6126,-5.5684,-5.5684,-5.5684,-5.5684,-5.5684,-5.5684,-5.5684,-5.5684,-5.5684,-5.5684,-5.5684,-5.5684,-5.5684,-5.5684,-5.5684,-5.5684,-5.5684,-5.5684,-5.5684,-5.5684,-5.5684,-5.5684,-5.5684,-5.5684,-5.5684,-5.5684,-5.5684,-5.5684,-5.5684,-5.5684,-5.5684,-5.5684,-5.5684,-5.5684,-5.5684,-5.5684,-5.5684,-5.5684,-5.5684,-5.5684,-5.5684,-5.5684,-5.5684,-5.5684,-5.5684,-5.5684,-5.5684,-5.5684,-5.5684,-5.5684,-5.5684,-5.5684,-5.5684,-5.5684,-5.5684,-5.5684,-5.5684,-5.5684,-5.5684,-5.5684,-5.5684,-5.5684,-5.5684,-5.5684,-5.5684,-5.5684,-5.5684,-5.5684,-5.5684,-5.5684,-5.5684,-5.5684,-5.5684,-5.5684,-5.5684,-5.5684,-5.5684,-5.5684,-5.5684,-5.5684,-5.5684,-5.5684,-5.5684,-5.5684,-5.5684,-5.5684,-5.5684,-5.5684,-5.5684,-5.5684,-5.5684,-5.5684,-5.5684,-5.5684,-5.5684,-5.5684,-5.5684,-5.5684,-5.5684,-5.5684,-5.5684,-5.5684,-5.5684,-5.5684,-5.5684,-5.5684,-5.5684,-5.5876,-5.7588,-5.8069,-5.7723,-5.8088,-5.7992,-5.7434,-5.6242,-5.5684,-5.5684,-5.5684,-5.5684,-5.5684,-5.5684,-5.5684,-5.5684,-5.5684,-5.5684,-5.5684,-5.5684,-5.5684,-5.5684,-5.5684,-5.5684,-5.5684,-5.5684,-5.5684,-5.5684,-5.5684,-5.5684,-5.5684,-5.5684,-5.5684,-5.5684,-5.5684,-5.5684,-5.5684,-5.5684,-5.5684,-5.5684,-5.5684,-5.5684,-5.5684,-5.5684,-5.5684,-5.5684,-5.5684,-5.5684,-5.5684,-5.5684,-5.5684,-5.5684,-5.5684,-5.5684,-5.5684,-5.5684,-5.5684,-5.5684,-5.5684,-5.5684,-5.5684,-5.5684,-5.5684,-5.5684,-5.5684,-5.5684,-5.5684,-5.5684,-5.5684,-5.5684,-5.5684,-5.5684,-5.5684,-5.5684,-5.5684,-5.5684,-5.5684,-5.5684,-5.5684,-5.5684,-5.5684,-5.5684,-5.5684,-5.5684,-5.5684,-5.5684,-5.5684,-5.5684,-5.5684,-5.5684,-5.5684,-5.5684,-5.5684,-5.5684,-5.5684,-5.5684,-5.5684,-5.5684,-5.5684,-5.5684,-5.5684,-5.5684,-5.5684,-5.5684,-5.5684,-5.5684,-5.5684,-5.5684,-5.5684,-5.5684,-5.5684,-5.5684,-5.5684,-5.5684,-5.5684,-5.5838,-5.7569,-5.7453,-5.6203,-5.7627,-5.7415,-5.6357,-5.5915,-5.5752,-5.5684,-5.5684,-5.5684,-5.5684,-5.5684,-5.5684,-5.5684,-5.5684,-5.5684,-5.5684,-5.5684,-5.5684,-5.5684,-5.5684,-5.5684,-5.5684,-5.5684,-5.5684,-5.5684,-5.5684,-5.5684,-5.5684,-5.5684,-5.5684,-5.5684,-5.5684,-5.5684,-5.5684,-5.5684,-5.5684,-5.5684,-5.5684,-5.5684,-5.5684,-5.5684,-5.5684,-5.5684,-5.5684,-5.5684,-5.5684,-5.5684,-5.5684,-5.5684,-5.5684,-5.5684,-5.5684,-5.5684,-5.5684,-5.5684,-5.5684,-5.5684,-5.5684,-5.5684,-5.5684,-5.5684,-5.5684,-5.5684,-5.5684,-5.5684,-5.5684,-5.5684,-5.5684,-5.5684,-5.5684,-5.5684,-5.5684,-5.5684,-5.5684,-5.5684,-5.5684,-5.5684,-5.5684,-5.5684,-5.5684,-5.5684,-5.5684,-5.5684,-5.5684,-5.5684,-5.5684,-5.5684,-5.5684,-5.5684,-5.5684,-5.5684,-5.5684,-5.5684,-5.5684,-5.5684,-5.5684,-5.5684,-5.5684,-5.5684,-5.5684,-5.5684,-5.5684,-5.5684,-5.5684,-5.5684,-5.5684,-5.5684,-5.5684,-5.5684,-5.5684,-5.5684,-5.5684,-5.5857,-5.7569,-5.7934,-5.7376,-5.8531,-5.8377,-5.7319,-5.6722,-5.6156,-5.5722,-5.5684,-5.5684,-5.5684,-5.5684,-5.5684,-5.5684,-5.5684,-5.5684,-5.5684,-5.5684,-5.5684,-5.5684,-5.5684,-5.5684,-5.5684,-5.5684,-5.5684,-5.5684,-5.5684,-5.5684,-5.5684,-5.5684,-5.5684,-5.5684,-5.5684,-5.5684,-5.5684,-5.5684,-5.5684,-5.5684,-5.5684,-5.5684,-5.5684,-5.5684,-5.5684,-5.5684,-5.5684,-5.5684,-5.5684,-5.5684,-5.5684,-5.5684,-5.5684,-5.5684,-5.5684,-5.5684,-5.5684,-5.5684,-5.5684,-5.5684,-5.5684,-5.5684,-5.5684,-5.5684,-5.5684,-5.5684,-5.5684,-5.5684,-5.5684,-5.5684,-5.5684,-5.5684,-5.5684,-5.5684,-5.5684,-5.5684,-5.5684,-5.5684,-5.5684,-5.5684,-5.5684,-5.5684,-5.5684,-5.5684,-5.5684,-5.5684,-5.5684,-5.5684,-5.5684,-5.5684,-5.5684,-5.5684,-5.5684,-5.5684,-5.5684,-5.5684,-5.5684,-5.5684,-5.5684,-5.5684,-5.5684,-5.5684,-5.5684,-5.5684,-5.5684,-5.5684,-5.5684,-5.5684,-5.5684,-5.5684,-5.5684,-5.5684,-5.5684,-5.5684,-5.5857,-5.6261,-5.7684,-5.8146,-5.8069,-5.905,-5.905,-5.828,-5.7646,-5.6876,-5.6099,-5.6088,-5.5895,-5.5761,-5.5684,-5.5684,-5.5684,-5.5684,-5.5684,-5.5684,-5.5684,-5.5684,-5.5684,-5.5684,-5.5684,-5.5684,-5.5684,-5.5684,-5.5684,-5.5684,-5.5684,-5.5684,-5.5684,-5.5684,-5.5684,-5.5684,-5.5684,-5.5684,-5.5684,-5.5684,-5.5684,-5.5684,-5.5684,-5.5684,-5.5684,-5.5684,-5.5684,-5.5684,-5.5684,-5.5684,-5.5684,-5.5684,-5.5684,-5.5684,-5.5684,-5.5684,-5.5684,-5.5684,-5.5684,-5.5684,-5.5684,-5.5684,-5.5684,-5.5684,-5.5684,-5.5684,-5.5684,-5.5684,-5.5684,-5.5684,-5.5684,-5.5684,-5.5684,-5.5684,-5.5684,-5.5684,-5.5684,-5.5684,-5.5684,-5.5684,-5.5684,-5.5684,-5.5684,-5.5684,-5.5684,-5.5684,-5.5684,-5.5684,-5.5684,-5.5684,-5.5684,-5.5684,-5.5684,-5.5684,-5.5684,-5.5684,-5.5684,-5.5684,-5.5684,-5.5684,-5.5684,-5.5684,-5.5684,-5.5684,-5.5684,-5.5684,-5.5684,-5.5684,-5.5684,-5.5684,-5.5684,-5.5684,-5.5684,-5.5684,-5.5684,-5.6184,-5.7041,-5.7934,-5.7857,-5.7492,-5.8838,-5.9088,-5.8454,-5.8223,-5.7646,-5.6887,-5.6868,-5.6406,-5.5857,-5.5684,-5.5684,-5.5684,-5.5684,-5.5684,-5.5684,-5.5684,-5.5684,-5.5684,-5.5684,-5.5684,-5.5684,-5.5684,-5.5684,-5.5684,-5.5684,-5.5684,-5.5684,-5.5684,-5.5684,-5.5684,-5.5684,-5.5684,-5.5684,-5.5684,-5.5684,-5.5684,-5.5684,-5.5684,-5.5684,-5.5684,-5.5684,-5.5684,-5.5684,-5.5684,-5.5684,-5.5684,-5.5684,-5.5684,-5.5684,-5.5684,-5.5684,-5.5684,-5.5684,-5.5684,-5.5684,-5.5684,-5.5684,-5.5684,-5.5684,-5.5684,-5.5684,-5.5684,-5.5684,-5.5684,-5.5684,-5.5684,-5.5684,-5.5684,-5.5684,-5.5684,-5.5684,-5.5684,-5.5684,-5.5684,-5.5684,-5.5684,-5.5684,-5.5684,-5.5684,-5.5684,-5.5684,-5.5684,-5.5684,-5.5684,-5.5684,-5.5684,-5.5684,-5.5684,-5.5684,-5.5684,-5.5684,-5.5684,-5.5684,-5.5684,-5.5684,-5.5684,-5.5684,-5.5684,-5.5684,-5.5684,-5.5684,-5.5684,-5.5684,-5.5684,-5.5684,-5.5684,-5.5684,-5.5684,-5.5684,-5.5684,-5.6214,-5.706,-5.7915,-5.8434,-5.8781,-5.9858,-5.9896,-5.9088,-5.8511,-5.7819,-5.7137,-5.7022,-5.6522,-5.5915,-5.5742,-5.5742,-5.5742,-5.5684,-5.5684,-5.5722,-5.5703,-5.5684,-5.5684,-5.5684,-5.5684,-5.5684,-5.5684,-5.5684,-5.5684,-5.5684,-5.5684,-5.5684,-5.5684,-5.5684,-5.5684,-5.5684,-5.5684,-5.5684,-5.5684,-5.5684,-5.5684,-5.5684,-5.5684,-5.5684,-5.5684,-5.5684,-5.5684,-5.5684,-5.5684,-5.5684,-5.5684,-5.5684,-5.5684,-5.5684,-5.5684,-5.5684,-5.5684,-5.5684,-5.5684,-5.5684,-5.5684,-5.5684,-5.5684,-5.5684,-5.5684,-5.5684,-5.5684,-5.5684,-5.5684,-5.5684,-5.5684,-5.5684,-5.5684,-5.5684,-5.5684,-5.5684,-5.5684,-5.5684,-5.5684,-5.5684,-5.5684,-5.5684,-5.5684,-5.5684,-5.5684,-5.5684,-5.5684,-5.5684,-5.5684,-5.5684,-5.5684,-5.5684,-5.5684,-5.5684,-5.5684,-5.5684,-5.5684,-5.5684,-5.5684,-5.5684,-5.5684,-5.5684,-5.5684,-5.5684,-5.5684,-5.5684,-5.5684,-5.5684,-5.5684,-5.5684,-5.5684,-5.5684,-5.5684,-5.5684,-5.5684,-5.6395,-5.7473,-5.8069,-5.8954,-5.9935,-6.055,-6.0454,-5.9896,-5.9377,-5.8665,-5.7973,-5.7607,-5.6992,-5.6376,-5.6156,-5.6126,-5.6145,-5.6145,-5.6145,-5.6099,-5.578,-5.5722,-5.5684,-5.5684,-5.5684,-5.5684,-5.5684,-5.5684,-5.5684,-5.5684,-5.5684,-5.5684,-5.5684,-5.5684,-5.5684,-5.5684,-5.5684,-5.5684,-5.5684,-5.5684,-5.5684,-5.5684,-5.5684,-5.5684,-5.5684,-5.5684,-5.5684,-5.5684,-5.5684,-5.5684,-5.5684,-5.5684,-5.5684,-5.5684,-5.5684,-5.5684,-5.5684,-5.5684,-5.5684,-5.5684,-5.5684,-5.5684,-5.5684,-5.5684,-5.5684,-5.5684,-5.5684,-5.5684,-5.5684,-5.5684,-5.5684,-5.5684,-5.5684,-5.5684,-5.5684,-5.5684,-5.5684,-5.5684,-5.5684,-5.5684,-5.5684,-5.5684,-5.5684,-5.5684,-5.5684,-5.5684,-5.5684,-5.5684,-5.5684,-5.5684,-5.5684,-5.5684,-5.5684,-5.5684,-5.5684,-5.5684,-5.5684,-5.5684,-5.5684,-5.5684,-5.5684,-5.5684,-5.5684,-5.5684,-5.5684,-5.5684,-5.5684,-5.5684,-5.5684,-5.5684,-5.5684,-5.5684,-5.5684,-5.5684,-5.5684,-5.6684,-5.8165,-5.8261,-5.9165,-6.055,-6.0723,-6.0762,-6.0762,-6.0742,-6.0204,-5.9377,-5.855,-5.7838,-5.7165,-5.706,-5.7041,-5.6926,-5.6945,-5.6849,-5.6618,-5.603,-5.5838,-5.5684,-5.5684,-5.5684,-5.5684,-5.5684,-5.5684,-5.5684,-5.5684,-5.5684,-5.5684,-5.5684,-5.5684,-5.5684,-5.5684,-5.5684,-5.5684,-5.5684,-5.5684,-5.5684,-5.5684,-5.5684,-5.5684,-5.5684,-5.5684,-5.5684,-5.5684,-5.5684,-5.5684,-5.5684,-5.5684,-5.5684,-5.5684,-5.5684,-5.5684,-5.5684,-5.5684,-5.5684,-5.5684,-5.5684,-5.5684,-5.5684,-5.5684,-5.5684,-5.5684,-5.5684,-5.5684,-5.5684,-5.5684,-5.5684,-5.5684,-5.5684,-5.5684,-5.5684,-5.5684,-5.5684,-5.5684,-5.5684,-5.5684,-5.5684,-5.5684,-5.5684,-5.5684,-5.5684,-5.5684,-5.5684,-5.5684,-5.5684,-5.5684,-5.5684,-5.5684,-5.5684,-5.5684,-5.5684,-5.5684,-5.5684,-5.5684,-5.5684,-5.5684,-5.5684,-5.5684,-5.5684,-5.5684,-5.5684,-5.5684,-5.5684,-5.5684,-5.5684,-5.5684,-5.5684,-5.5684,-5.5684,-5.5684,-5.5684,-5.6338,-5.7338,-5.7368,-5.8338,-5.9838,-6.0512,-6.08,-6.08,-6.0781,-6.0319,-5.9473,-5.9261,-5.8627,-5.7973,-5.7915,-5.7915,-5.7703,-5.7357,-5.708,-5.6695,-5.6252,-5.5857,-5.5684,-5.5684,-5.5684,-5.5684,-5.5684,-5.5684,-5.5684,-5.5684,-5.5684,-5.5684,-5.5684,-5.5684,-5.5684,-5.5684,-5.5684,-5.5684,-5.5684,-5.5684,-5.5684,-5.5684,-5.5684,-5.5684,-5.5684,-5.5684,-5.5684,-5.5684,-5.5684,-5.5684,-5.5684,-5.5684,-5.5684,-5.5684,-5.5684,-5.5684,-5.5684,-5.5684,-5.5684,-5.5684,-5.5684,-5.5684,-5.5684,-5.5684,-5.5684,-5.5684,-5.5684,-5.5684,-5.5684,-5.5684,-5.5684,-5.5684,-5.5684,-5.5684,-5.5684,-5.5684,-5.5684,-5.5684,-5.5684,-5.5684,-5.5684,-5.5684,-5.5684,-5.5684,-5.5684,-5.5684,-5.5684,-5.5684,-5.5684,-5.5684,-5.5684,-5.5684,-5.5684,-5.5684,-5.5684,-5.5684,-5.5684,-5.5684,-5.5684,-5.5684,-5.5684,-5.5684,-5.5684,-5.5684,-5.5684,-5.5684,-5.5684,-5.5684,-5.5684,-5.5684,-5.5684,-5.5684,-5.5684,-5.5684,-5.5684,-5.6214,-5.6964,-5.7022,-5.7953,-5.9435,-6.0069,-6.0454,-6.0742,-6.08,-6.0473,-5.9992,-5.9646,-5.9223,-5.8838,-5.8761,-5.8761,-5.8723,-5.8396,-5.7992,-5.7376,-5.6522,-5.6088,-5.5857,-5.5684,-5.5684,-5.5684,-5.5684,-5.5684,-5.5684,-5.5684,-5.5684,-5.5684,-5.5684,-5.5684,-5.5684,-5.5684,-5.5684,-5.5684,-5.5684,-5.5684,-5.5684,-5.5684,-5.5684,-5.5684,-5.5684,-5.5684,-5.5684,-5.5684,-5.5684,-5.5684,-5.5684,-5.5684,-5.5684,-5.5684,-5.5684,-5.5684,-5.5684,-5.5684,-5.5684,-5.5684,-5.5684,-5.5684,-5.5684,-5.5684,-5.5684,-5.5684,-5.5684,-5.5684,-5.5684,-5.5684,-5.5684,-5.5684,-5.5684,-5.5684,-5.5684,-5.5684,-5.5684,-5.5684,-5.5684,-5.5684,-5.5684,-5.5684,-5.5684,-5.5684,-5.5684,-5.5684,-5.5684,-5.5684,-5.5684,-5.5684,-5.5684,-5.5684,-5.5684,-5.5684,-5.5684,-5.5684,-5.5684,-5.5684,-5.5684,-5.5684,-5.5684,-5.5684,-5.5684,-5.5684,-5.5684,-5.5684,-5.5684,-5.5684,-5.5684,-5.5684,-5.5684,-5.5684,-5.5684,-5.5684,-5.5684,-5.6175,-5.6887,-5.6983,-5.783,-5.9204,-5.9435,-5.9973,-6.0666,-6.0742,-6.0781,-6.0589,-5.9973,-5.9665,-5.9608,-5.9627,-5.9627,-5.9415,-5.9108,-5.8492,-5.8165,-5.6945,-5.6233,-5.5818,-5.5684,-5.5684,-5.5684,-5.5684,-5.5684,-5.5684,-5.5684,-5.5684,-5.5684,-5.5684,-5.5684,-5.5684,-5.5684,-5.5793,-5.6097,-5.5871,-5.5684,-5.5684,-5.5684,-5.5684,-5.5684,-5.5684,-5.5684,-5.5684,-5.5684,-5.5684,-5.5684,-5.5684,-5.5684,-5.5684,-5.5684,-5.5684,-5.5684,-5.5684,-5.5684,-5.5684,-5.5684,-5.5684,-5.5684,-5.5684,-5.5684,-5.5684,-5.5684,-5.5684,-5.5684,-5.5684,-5.5684,-5.5684,-5.5684,-5.5684,-5.5684,-5.5684,-5.5684,-5.5684,-5.5684,-5.5684,-5.5684,-5.5684,-5.5684,-5.5684,-5.5684,-5.5684,-5.5684,-5.5684,-5.5684,-5.5684,-5.5684,-5.5684,-5.5684,-5.5684,-5.5684,-5.5684,-5.5684,-5.5684,-5.5684,-5.5684,-5.5684,-5.5684,-5.5684,-5.5684,-5.5684,-5.5684,-5.5684,-5.5684,-5.5684,-5.5684,-5.5684,-5.5684,-5.5684,-5.5684,-5.5684,-5.5684,-5.581,-5.6069,-5.6714,-5.7272,-5.7772,-5.8973,-5.9588,-5.9877,-6.0531,-6.0762,-6.0742,-6.0569,-6.0427,-6.0404,-6.0384,-6.0384,-6.0261,-5.9547,-5.863,-5.791,-5.6977,-5.6312,-5.5752,-5.5684,-5.5733,-5.5684,-5.5684,-5.5901,-5.5852,-5.5803,-5.5714,-5.5684,-5.5684,-5.5684,-5.5714,-5.5744,-5.6087,-5.6559,-5.6329,-5.6067,-5.6019,-5.5803,-5.5684,-5.5684,-5.5684,-5.5684,-5.5684,-5.5684,-5.5684,-5.5684,-5.5684,-5.5684,-5.5684,-5.5684,-5.5684,-5.5684,-5.5684,-5.5684,-5.5684,-5.5684,-5.5684,-5.5684,-5.5684,-5.5684,-5.5684,-5.5684,-5.5684,-5.5684,-5.5684,-5.5684,-5.5684,-5.5684,-5.5684,-5.5684,-5.5684,-5.5684,-5.5684,-5.5684,-5.5684,-5.5684,-5.5684,-5.5684,-5.5684,-5.5684,-5.5684,-5.5684,-5.5684,-5.5684,-5.5684,-5.5684,-5.5684,-5.5684,-5.5684,-5.5684,-5.5684,-5.5684,-5.5684,-5.5684,-5.5684,-5.5684,-5.5684,-5.5684,-5.5684,-5.5684,-5.5684,-5.5684,-5.5684,-5.5684,-5.5684,-5.5684,-5.5684,-5.5684,-5.5684,-5.5684,-5.5684,-5.5684,-5.5761,-5.6214,-5.6676,-5.7137,-5.8011,-5.8781,-5.9511,-6.0031,-6.0454,-6.0762,-6.0812,-6.0831,-6.0882,-6.0883,-6.0945,-6.0809,-6.0138,-5.9233,-5.8259,-5.7361,-5.6558,-5.6104,-5.5744,-5.6165,-5.6223,-5.6824,-5.6983,-5.6444,-5.6329,-5.6329,-5.5852,-5.5733,-5.5714,-5.5773,-5.6087,-5.6588,-5.7124,-5.6955,-5.6983,-5.6777,-5.6358,-5.5793,-5.5684,-5.5714,-5.5714,-5.5684,-5.5684,-5.5684,-5.5684,-5.5684,-5.5684,-5.5684,-5.5684,-5.5684,-5.5684,-5.5684,-5.5684,-5.5684,-5.5684,-5.5684,-5.5684,-5.5684,-5.5684,-5.5684,-5.5684,-5.5684,-5.5684,-5.5684,-5.5684,-5.5684,-5.5684,-5.5684,-5.5684,-5.5684,-5.5684,-5.5684,-5.5684,-5.5684,-5.5684,-5.5684,-5.5684,-5.5684,-5.5684,-5.5684,-5.5684,-5.5684,-5.5684,-5.5684,-5.5684,-5.5684,-5.5684,-5.5684,-5.5684,-5.5684,-5.5684,-5.5684,-5.5684,-5.5684,-5.5684,-5.5684,-5.5684,-5.5684,-5.5684,-5.5684,-5.5684,-5.5684,-5.5684,-5.5684,-5.5684,-5.5684,-5.5684,-5.5684,-5.5684,-5.5684,-5.5684,-5.5684,-5.5703,-5.6126,-5.6791,-5.7003,-5.78,-5.9023,-5.946,-5.995,-6.0554,-6.0723,-6.0884,-6.0973,-6.1014,-6.1131,-6.1026,-6.0533,-5.9753,-5.9026,-5.8275,-5.7195,-5.6329,-5.5852,-5.63,-5.7097,-5.7857,-5.7765,-5.7401,-5.7124,-5.6616,-5.6009,-5.5793,-5.5744,-5.6097,-5.6645,-5.7319,-5.7883,-5.815,-5.8565,-5.7988,-5.7105,-5.6444,-5.6067,-5.5882,-5.5822,-5.5763,-5.5684,-5.5684,-5.5684,-5.5684,-5.5684,-5.5684,-5.5684,-5.5684,-5.5684,-5.5684,-5.5684,-5.5684,-5.5684,-5.5684,-5.5684,-5.5684,-5.5684,-5.5684,-5.5684,-5.5684,-5.5744,-5.5744,-5.5744,-5.5744,-5.5684,-5.5684,-5.5684,-5.5684,-5.5684,-5.5684,-5.5684,-5.5684,-5.5684,-5.5684,-5.5684,-5.5684,-5.5684,-5.5684,-5.5684,-5.5684,-5.5684,-5.5684,-5.5684,-5.5684,-5.5684,-5.5684,-5.5684,-5.5684,-5.5684,-5.5684,-5.5684,-5.5684,-5.5684,-5.5684,-5.5684,-5.5684,-5.5684,-5.5684,-5.5684,-5.5684,-5.5684,-5.5684,-5.5684,-5.5684,-5.5684,-5.5684,-5.5684,-5.5684,-5.5684,-5.5684,-5.5684,-5.581,-5.6049,-5.6695,-5.7214,-5.77,-5.9109,-5.9785,-5.9944,-6.0626,-6.097,-6.1006,-6.1006,-6.1131,-6.1242,-6.0857,-6.0378,-5.9697,-5.8411,-5.7478,-5.6854,-5.6435,-5.6483,-5.742,-5.8451,-5.8521,-5.8355,-5.7732,-5.7144,-5.6805,-5.6009,-5.6194,-5.6872,-5.7467,-5.8072,-5.8767,-5.9061,-5.9263,-5.9564,-5.8723,-5.7765,-5.73,-5.6919,-5.6406,-5.5979,-5.5714,-5.5684,-5.5684,-5.5684,-5.5684,-5.5684,-5.5684,-5.5684,-5.5684,-5.5684,-5.5684,-5.5684,-5.5684,-5.5684,-5.5684,-5.5684,-5.5684,-5.5684,-5.5684,-5.5744,-5.5882,-5.5882,-5.5882,-5.5871,-5.5733,-5.5684,-5.5684,-5.5684,-5.5684,-5.5684,-5.5684,-5.5684,-5.5684,-5.5684,-5.5684,-5.5684,-5.5684,-5.5684,-5.5684,-5.5684,-5.5684,-5.5684,-5.5684,-5.5684,-5.5684,-5.5684,-5.5684,-5.5684,-5.5684,-5.5684,-5.5684,-5.5684,-5.5684,-5.5684,-5.5684,-5.5684,-5.5684,-5.5684,-5.5684,-5.5684,-5.5684,-5.5684,-5.5684,-5.5684,-5.5684,-5.5684,-5.5684,-5.5684]},{"header":{"parameterUnit":"m.s-1","parameterCategory":1,"la1":31.0,"la2":29.5877,"lo1":-88.7671,"lo2":-86.6584,"dy":0.0162,"dx":0.0185,"nx":115,"ny":88,"refTime":"2024-12-04T18:00:00:Z","depth":0,"parameterNumber":3,"parameterNumberName":"V-component_of_WINDS"},"data":[0.0,0.0,0.0,0.0,0.0,0.0,0.0,0.0,0.0,0.0,0.0,0.0,0.0,0.0,0.0,0.0,0.0,0.0,0.0,0.0,0.0,0.0,0.0,0.0,0.0,0.0,0.0,0.0,0.0,0.0,0.0,0.0,0.0,0.0,0.0,0.0,0.0,0.0,0.0,0.0,0.0,0.0,0.0,0.0,0.0,0.0,0.0,0.0,0.0,0.0,0.0,0.0,0.0,0.0,0.0,0.0,0.0,0.0,0.0,0.0,0.0,0.0,0.0,0.0,0.0,0.0,0.0,0.0,0.0,0.0,0.0,0.0,0.0,0.0,0.0,0.0,0.0,0.0,0.0,0.0,0.0,0.0,0.0,0.0,0.0,0.0,0.0,0.0,0.0,0.0,0.0,0.0,0.0,0.0,0.0,0.0,0.0,0.0,0.0,0.0,0.0,0.0,0.0,0.0,0.0,0.0,0.0,0.0,0.0,0.0,0.0,0.0,0.0,0.0,0.0,0.0,0.0,0.0,0.0,0.0,0.0,0.0,0.0,0.0,0.0,0.0,0.0,0.0,0.0,0.0,0.0,0.0,0.0,0.0,0.0,0.0,0.0,0.0,0.0,0.0,0.0,0.0,0.0,0.0,0.0,0.0,0.0,0.0,0.0,0.0,0.0,0.0,0.0,0.0,0.0,0.0,0.0,0.0,0.0,0.0,0.0,0.0,0.0,0.0,0.0,0.0,0.0,0.0,0.0,0.0,0.0,0.0,0.0,0.0,0.0,0.0,0.0,0.0,0.0,0.0,0.0,0.0,0.0,0.0,0.0,0.0,0.0,0.0,0.0,0.0,0.0,0.0,0.0,0.0,0.0,0.0,0.0,0.0,0.0,0.0,0.0,0.0,0.0,0.0,0.0,0.0,0.0,0.0,0.0,0.0,0.0,0.0,0.0,0.0,0.0,0.0,0.0,0.0,0.0,0.0,0.0,0.0,0.0,0.0,0.0,0.0,0.0,0.0,0.0,0.0,0.0,0.0,0.0,0.0,0.0,0.0,0.0,0.0,0.0,0.0,0.0,0.0,0.0,0.0,0.0,0.0,0.0,0.0,0.0,0.0,0.0,0.0,0.0,0.0,0.0,0.0,0.0,0.0,0.0,0.0,0.0,0.0,0.0,0.0,0.0,0.0,0.0,0.0,0.0,0.0,0.0,0.0,0.0,0.0,0.0,0.0,0.0,0.0,0.0,0.0,0.0,0.0,0.0,0.0,0.0,0.0,0.0,0.0,0.0,0.0,0.0,0.0,0.0,0.0,0.0,0.0,0.0,0.0,0.0,0.0,0.0,0.0,0.0,0.0,0.0,0.0,0.0,0.0,0.0,0.0,0.0,0.0,0.0,0.0,0.0,0.0,0.0,0.0,0.0,0.0,0.0,0.0,0.0,0.0,0.0,0.0,0.0,0.0,0.0,0.0,0.0,0.0,0.0,0.0,0.0,0.0,0.0,0.0,0.0,0.0,0.0,0.0,0.0,0.0,0.0,0.0,0.0,0.0,0.0,0.0,0.0,0.0,0.0,0.0,0.0,0.0,0.0,0.0,0.0,0.0,0.0,0.0,0.0,0.0,0.0,0.0,0.0,0.0,0.0,0.0,0.0,0.0,0.0,0.0,0.0,0.0,0.0,0.0,0.0,0.0,0.0,0.0,0.0,0.0,0.0,0.0,0.0,0.0,0.0,0.0,0.0,0.0,0.0,0.0,0.0,0.0,0.0,0.0,0.0,0.0,0.0,0.0,0.0,0.0,0.0,0.0,0.0,0.0,0.0,0.0,0.0,0.0,0.0,0.0,0.0,0.0,0.0,0.0,0.0,0.0,0.0,0.0,0.0,0.0,0.0,0.0,0.0,0.0,0.0,0.0,0.0,0.0,0.0,0.0,0.0,0.0,0.0,0.0,0.0,0.0,0.0,0.0,0.0,0.0,0.0,0.0,0.0,0.0,0.0,0.0,0.0,0.0,0.0,0.0,0.0,0.0,0.0,0.0,0.0,0.0,0.0,0.0,0.0,0.0,0.0,0.0,0.0,0.0,0.0,0.0,0.0,0.0,0.0,0.0,0.0,0.0,0.0,0.0,0.0,0.0,0.0,0.0,0.0,0.0,0.0,0.0,0.0,0.0,0.0,0.0,0.0,0.0,0.0,0.0,0.0,0.0,0.0,0.0,0.0,0.0,0.0,0.0,0.0,0.0,0.0,0.0,0.0,0.0,0.0,0.0,0.0,0.0,0.0,0.0,0.0,0.0,0.0,0.0,0.0,0.0,0.0,0.0,0.0,0.0,0.0,0.0,0.0,0.0,0.0,0.0,0.0,0.0,0.0,0.0,0.0,0.0,0.0,0.0,0.0,0.0,0.0,0.0,0.0,0.0,0.0,0.0,0.0,0.0,0.0,0.0,0.0,0.0,0.0,0.0,0.0,0.0,0.0,0.0,0.0,0.0,0.0,0.0,0.0,0.0,0.0,0.0,0.0,0.0,0.0,0.0,0.0,0.0,0.0,0.0,0.0,0.0,0.0,0.0,0.0,0.0,0.0,0.0,0.0,0.0,0.0,0.0,0.0,0.0,0.0,0.0,0.0,0.0,0.0,0.0,0.0,0.0,0.0,0.0,0.0,0.0,0.0,0.0,0.0,0.0,0.0,0.0,0.0,0.0,0.0,0.0,0.0,0.0,0.0,0.0,0.0,0.0,0.0,0.0,0.0,0.0,0.0,0.0,0.0,0.0,0.0,0.0,0.0,0.0,0.0,0.0,0.0,0.0,0.0,0.0,0.0,0.0,0.0,0.0,0.0,0.0,0.0,0.0,0.0,0.0,0.0,0.0,0.0,0.0,0.0,0.0,0.0,0.0,0.0,0.0,0.0,0.0,0.0,0.0,0.0,0.0,0.0,0.0,0.0,0.0,0.0,0.0,0.0,0.0,0.0,0.0,0.0,0.0,0.0,0.0,0.0,0.0,0.0,0.0,0.0,0.0,0.0,0.0,0.0,0.0,0.0,0.0,0.0,0.0,0.0,0.0,0.0,0.0,0.0,0.0,0.0,0.0,0.0,0.0,0.0,0.0,0.0,0.0,0.0,0.0,0.0,0.0,0.0,0.0,0.0,0.0,0.0,0.0,0.0,0.0,0.0,0.0,0.0,0.0,0.0,0.0,0.0,0.0,0.0,0.0,0.0,0.0,0.0,0.0,0.0,0.0,0.0,0.0,0.0,0.0,0.0,0.0,0.0,0.0,0.0,0.0,0.0,0.0,0.0,0.0,0.0,0.0,0.0,0.0,0.0,0.0,0.0,0.0,0.0,0.0,0.0,0.0,0.0,0.0,0.0,0.0,0.0,0.0,0.0,0.0,0.0,0.0,0.0,0.0,0.0,0.0,0.0,0.0,0.0,0.0,0.0,0.0,0.0,0.0,0.0,0.0,0.0,0.0,0.0,0.0,0.0,0.0,0.0,0.0,0.0,0.0,0.0,0.0,0.0,0.0,0.0,0.0,0.0,0.0,0.0,0.0,0.0,0.0,0.0,0.0,0.0,0.0,0.0,0.0,0.0,0.0,0.0,0.0,0.0,0.0,0.0,0.0,0.0,0.0,0.0,0.0,0.0,0.0,0.0,0.0,0.0,0.0,0.0,0.0,0.0,0.0,0.0,0.0,0.0,0.0,0.0,0.0,0.0,0.0,0.0,0.0,0.0,0.0,0.0,0.0,0.0,0.0,0.0,0.0,0.0,0.0,0.0,0.0,0.0,0.0,0.0,0.0,0.0,0.0,0.0,0.0,0.0,0.0,0.0,0.0,0.0,0.0,0.0,0.0,0.0,0.0,0.0,0.0,0.0,0.0,0.0,0.0,0.0,0.0,0.0,0.0,0.0,0.0,0.0,0.0,0.0,0.0,0.0,0.0,0.0,0.0,0.0,0.0,0.0,0.0,0.0,0.0,0.0,0.0,0.0,0.0,0.0,0.0,0.0,0.0,0.0,0.0,0.0,0.0,0.0,0.0,0.0,0.0,0.0,0.0,0.0,0.0,0.0,0.0,0.0,0.0,0.0,0.0,0.0,0.0,0.0,0.0,0.0,0.0,0.0,0.0,0.0,0.0,0.0,0.0,0.0,0.0,0.0,0.0,0.0,0.0,0.0,0.0,0.0,0.0,0.0,0.0,0.0,0.0,0.0,0.0,0.0,0.0,0.0,0.0,0.0,0.0,0.0,0.0,0.0,0.0,0.0,0.0,0.0,0.0,0.0,0.0,0.1609,0.0,0.0,0.0,0.0,0.0,0.0,0.0,0.0,0.0,0.0,0.0,0.0,0.0,0.0,0.0,0.0,0.0,0.0,0.0,0.0,0.0,0.0,0.0,0.0,0.0,0.0,0.0,0.0,0.0,0.0,0.0,0.0,0.0,0.0,0.0,0.0,0.0,0.0,0.0,0.0,0.0,0.0,0.0,0.0,0.0,0.0,0.0,0.0,0.0,0.0,0.0,0.0,0.0,0.0,0.0,0.0,0.0,0.0,0.0,0.0,0.0,0.0,0.0,0.0,0.0,0.0,0.0,0.0,0.0,0.0,0.0,0.0,0.0,0.0,0.0,0.0,0.0,0.0,0.0,0.0,0.0,0.0,0.0,0.0,0.0,0.0,0.0,0.0,0.0,0.0,0.0,0.0,0.0,0.0,0.0,0.0,0.0,0.0,0.0,0.0,0.0,0.0,0.0,0.0,0.0,0.0,0.0,0.0,0.0,0.0,-0.0247,0.0418,0.0993,0.1489,0.1914,0.0,0.0,0.0,0.0,0.0,0.0,0.0,0.0,0.0,0.0,0.0,0.0,0.0,0.0,0.0,0.0,0.0,0.0,0.0,0.0,0.0,0.0,0.0,0.0,0.0,0.0,0.0,0.0,0.0,0.0,0.0,0.0,0.0,0.0,0.0,0.0,0.0,0.0,0.0,0.0,0.0,0.0,0.0,0.0,0.0,0.0,0.0,0.0,0.0,0.0,0.0,0.0,0.0,0.0,0.0,0.0,0.0,0.0,0.0,0.0,0.0,0.0,0.0,0.0,0.0,0.0,0.0,0.0,0.0,0.0,0.0,0.0,0.0,0.0,0.0,0.0,0.0,0.0,0.0,0.0,0.0,0.0,0.0,0.0,0.0,0.0,0.0,0.0,0.0,0.0,0.0,0.0,0.0,0.0,0.0,0.0,0.0,0.0,0.0,0.0,0.0,0.0,0.0,0.0,0.0,0.0,0.0,0.0,0.0,0.0,0.0,0.0,0.151,0.1985,0.2316,0.0,0.0,0.0,0.0,0.0,0.0,0.0,0.0,0.0,0.0,0.0,0.0,0.0,0.0,0.0,0.0,0.0,0.0,0.0,0.0,0.0,0.0,0.0,0.0,0.0,0.0,0.0,0.0,0.0,0.0,0.0,0.0,0.0,0.0,0.0,0.0,0.0,0.0,0.0,0.0,0.0,0.0,0.0,0.0,0.0,0.0,0.0,0.0,0.0,0.0,0.0,0.0,0.0,0.0,0.0,0.0,0.0,0.0,0.0,0.0,0.0,0.0,0.0,0.0,0.0,0.0,0.0,0.0,0.0,0.0,0.0,0.0,0.0,0.0,0.0,0.0,0.0,0.0,0.0,0.0,0.0,0.0,0.0,0.0,0.0,0.0,0.0,0.0,0.0,0.0,0.0,0.0,0.0,0.0,0.0,0.0,0.0,0.0,0.0,0.0,0.0,0.0,0.0,0.0,0.0,0.0,0.0,0.0,0.0,0.0,0.0618,0.1153,0.1868,0.0,0.2979,0.0,0.0,0.0,0.0,0.0,0.0,0.0,0.0,0.0,0.0,0.0,0.0,0.0,0.0,0.0,0.0,0.0,0.0,0.0,0.0,0.0,0.0,0.0,0.0,0.0,0.0,0.0,0.0,0.0,0.0,0.0,0.0,0.0,0.0,0.0,0.0,0.0,0.0,0.0,0.0,0.0,0.0,0.0,0.0,0.0,0.0,0.0,0.0,0.0,0.0,0.0,0.0,0.0,0.0,0.0,0.0,0.0,0.0,0.0,0.0,0.0,0.0,0.0,0.0,0.0,0.0,0.0,0.0,0.0,0.0,0.0,0.0,0.0,0.0,0.0,0.0,0.0,0.0,0.0,0.0,0.0,0.0,0.0,0.0,0.0,0.0,0.0,0.0,0.0,0.0,0.0,0.0,0.0,0.0,0.0,0.0,0.0,0.0,0.0,0.0,0.0,0.0,0.0,0.0,0.0,0.0,0.0,0.0,0.0,0.0,0.1135,0.1778,0.266,0.3257,0.0,0.0,0.0,0.0,0.0,0.0,0.0,0.0,0.0,0.0,0.0,0.0,0.0,0.0,0.0,0.0,0.0,0.0,0.0,0.0,0.0,0.0,0.0,0.0,0.0,0.0,0.0,0.0,0.0,0.0,0.0,0.0,0.0,0.0,0.0,0.0,0.0,0.0,0.0,0.0,0.0,0.0,0.0,0.0,0.0,0.0,0.0,0.0,0.0,0.0,0.0,0.0,0.0,0.0,0.0,0.0,0.0,0.0,0.0,0.0,0.0,0.0,0.0,0.0,0.0,0.0,0.0,0.0,0.0,0.0,0.0,0.0,0.0,0.0,0.0,0.0,0.0,0.0,0.0,0.0,0.0,0.0,0.0,0.0,0.0,0.0,0.0,0.0,0.0,0.0,0.0,0.0,0.0,0.0,0.0,0.0,0.0,0.0,0.0,0.0,0.0,0.0,0.0,0.0,0.0,0.0,0.0,0.0,0.0,0.0,0.0749,0.0,0.2512,0.3348,0.378,0.3785,0.0,0.0,0.0,0.0,0.0,0.0,0.0,0.0,0.0,0.0,0.0,0.0,0.0,0.0,0.0,0.0,0.0,0.0,0.0,0.0,0.0,0.0,0.0,0.0,0.0,0.0,0.0,0.0,0.0,0.0,0.0,0.0,0.0,0.0,0.0,0.0,0.0,0.0,0.0,0.0,0.0,0.0,0.0,0.0,0.0,0.0,0.0,0.0,0.0,0.0,0.0,0.0,0.0,0.0,0.0,0.0,0.0,0.0,0.0,0.0,0.0,0.0,0.0,0.0,0.0,0.0,0.0,0.0,0.0,0.0,0.0,0.0,0.0,0.0,0.0,0.0,0.0,0.0,0.0,0.0,0.0,0.0,0.0,0.0,0.0,0.0,0.0,0.0,0.0,0.0,0.0,0.0,0.0,0.0,0.0,0.0,0.0,0.0,0.0,0.0,0.0,0.0,0.0,0.0,0.0,0.0,0.0,0.0,0.0,0.0864,0.195,0.3303,0.3749,0.3899,0.0,0.0,0.0,0.0,0.0,0.0,0.0,0.0,0.0,0.0,0.0,0.0,0.0,0.0,0.0,0.0,0.0,0.0,0.0,0.0,0.0,0.0,0.0,0.0,0.0,0.0,0.0,0.0,0.0,0.0,0.0,0.0,0.0,0.0,0.0,0.0,0.0,0.0,0.0,0.0,0.0,0.0,0.0,0.0,0.0,0.0,0.0,0.0,0.0,0.0,0.0,0.0,0.0,0.0,0.0,0.0,0.0,0.0,0.0,0.0,0.0,0.0,0.0,0.0,0.0,0.0,0.0,0.0,0.0,0.0,0.0,0.0,0.0,0.0,0.0,0.0,0.0,0.0,0.0,0.0,0.0,0.0,0.0,0.0,0.0,0.0,0.0,0.0,0.0,0.0,0.0,0.0,0.0,0.0,0.0,0.0,0.0,0.0,0.0,0.0,0.0,0.0,0.0,0.0,0.0,0.0,0.0,0.0,0.0,0.0156,0.1552,0.2769,0.3684,0.3953,0.4007,0.0,0.0,0.0,0.0,0.0,0.0,0.0,0.0,0.0,0.0,0.0,0.0,0.0,0.0,0.0,0.0,0.0,0.0,0.0,0.0,0.0,0.0,0.0,0.0,0.0,0.0,0.0,0.0,0.0,0.0,0.0,0.0,0.0,0.0,0.0,0.0,0.0,0.0,0.0,0.0,0.0,0.0,0.0,0.0,0.0,0.0,0.0,0.0,0.0,0.0,0.0,0.0,0.0,0.0,0.0,0.0,0.0,0.0,0.0,0.0,0.0,0.0,0.0,0.0,0.0,0.0,0.0,0.0,0.0,0.0,0.0,0.0,0.0,0.0,0.0,0.0,0.0,0.0,0.0,0.0,0.0,0.0,0.0,0.0,0.0,0.0,0.0,0.0,0.0,0.0,0.0,0.0,0.0,0.0,0.0,0.0,0.0,0.0,0.0,0.0,0.0,0.0,0.0,0.0,0.0,0.0,0.0,0.0,0.0,0.0654,0.0,0.322,0.0,0.3975,0.3999,0.0,0.0,0.0,0.0,0.0,0.0,0.0,0.0,0.0,0.0,0.0,0.0,0.0,0.0,0.0,0.0,0.0,0.0,0.0,0.0,0.0,0.0,0.0,0.0,0.0,0.0,0.0,0.0,0.0,0.0,0.0,0.0,0.0,0.0,0.0,0.0,0.0,0.0,0.0,0.0,0.0,0.0,0.0,0.0,0.0,0.0,0.0,0.0,0.0,0.0,0.0,0.0,0.0,0.0,0.0,0.0,0.0,0.0,0.0,0.0,0.0,0.0,0.0,0.0,0.0,0.0,0.0,0.0,0.0,0.0,0.0,0.0,0.0,0.0,0.0,0.0,0.0,0.0,0.0,0.0,0.0,0.0,0.0,0.0,0.0,0.0,0.0,0.0,0.0,0.0,0.0,0.0,0.0,0.0,0.0,0.0,0.0,0.0,0.0,0.0,0.0,0.0,0.0,0.0,0.0,0.0,0.0,0.0,-0.0215,0.1518,0.2584,0.3257,0.3576,0.3859,0.3796,0.0,0.0,0.0,0.0,0.0,0.0,0.0,0.0,0.0,0.0,0.0,0.0,0.0,0.0,0.0,0.0,0.0,0.0,0.0,0.0,0.0,0.0,0.0,0.0,0.0,0.0,0.0,0.0,0.0,0.0,0.0,0.0,0.0,0.0,0.0,0.0,0.0,0.0,0.0,0.0,0.0,0.0,0.0,0.0,0.0,0.0,0.0,0.0,0.0,0.0,0.0,0.0,0.0,0.0,0.0,0.0,0.0,0.0,0.0,0.0,0.0,0.0,0.0,0.0,0.0,0.0,0.0,0.0,0.0,0.0,0.0,0.0,0.0,0.0,0.0,0.0,0.0,0.0,0.0,0.0,0.0,0.0,0.0,0.0,0.0,0.0,0.0,0.0,0.0,0.0,0.0,0.0,0.0,0.0,0.0,0.0,0.0,0.0,0.0,0.0,0.0,0.0,0.0,0.0,0.0,0.0,0.0,0.0,0.0,0.1495,0.2525,0.3202,0.3529,0.363,0.3587,0.0,0.0,0.0,0.0,0.0,0.0,0.0,0.0,0.0,0.0,0.0,0.0,0.0,0.0,0.0,0.0,0.0,0.0,0.0,0.0,0.0,0.0,0.0,0.0,0.0,0.0,0.0,0.0,0.0,0.0,0.0,0.0,0.0,0.0,0.0,0.0,0.0,0.0,0.0,0.0,0.0,0.0,0.0,0.0,0.0,0.0,0.0,0.0,0.0,0.0,0.0,0.0,0.0,0.0,0.0,0.0,0.0,0.0,0.0,0.0,0.0,0.0,0.0,0.0,0.0,0.0,0.0,0.0,0.0,0.0,0.0,0.0,0.0,0.0,0.0,0.0,0.0,0.0,0.0,0.0,0.0,0.0,0.0,0.0,0.0,0.0,0.0,0.0,0.0,0.0,0.0,0.0,0.0,0.0,0.0,0.0,0.0,0.0,0.0,0.0,0.0,0.0,0.0,0.0,0.0,0.0,0.0,0.0,0.0,0.1818,0.2746,0.3433,0.3873,0.3794,0.3647,0.3401,0.0,0.0,0.0,0.0,0.0,0.0,0.0,0.0,0.0,0.0,0.0,0.0,0.0,0.0,0.0,0.0,0.0,0.0,0.0,0.0,0.0,0.0,0.0,0.0,0.0,0.0,0.0,0.0,0.0,0.0,0.0,0.0,0.0,0.0,0.0,0.0,0.0,0.0,0.0,0.0,0.0,0.0,0.0,0.0,0.0,0.0,0.0,0.0,0.0,0.0,0.0,0.0,0.0,0.0,0.0,0.0,0.0,0.0,0.0,0.0,0.0,0.0,0.0,0.0,0.0,0.0,0.0,0.0,0.0,0.0,0.0,0.0,0.0,0.0,0.0,0.0,0.0,0.0,0.0,0.0,0.0,0.0,0.0,0.0,0.0,0.0,0.0,0.0,0.0,0.0,0.0,0.0,0.0,0.0,0.0,0.0,0.0,0.0,0.0,0.0,0.0,0.0,0.0,0.0,0.0,0.0,0.0,0.0,0.2412,0.3197,0.3884,0.4487,0.43,0.3975,0.0,0.0,0.0,0.0,0.0,0.0,0.0,0.0,0.0,0.0,0.0,0.0,0.0,0.0,0.0,0.0,0.0,0.0,0.0,0.0,0.0,0.0,0.0,0.0,0.0,0.0,0.0,0.0,0.0,0.0,0.0,0.0,0.0,0.0,0.0,0.0,0.0,0.0,0.0,0.0,0.0,0.0,0.0,0.0,0.0,0.0,0.0,0.0,0.0,0.0,0.0,0.0,0.0,0.0,0.0,0.0,0.0,0.0,0.0,0.0,0.0,0.0,0.0,0.0,0.0,0.0,0.0,0.0,0.0,0.0,0.0,0.0,0.0,0.0,0.0,0.0,0.0,0.0,0.0,0.0,0.0,0.0,0.0,0.0,0.0,0.0,0.0,0.0,0.0,0.0,0.0,0.0,0.0,0.0,0.0,0.0,0.0,0.0,0.0,0.0,0.0,0.0,0.0,0.0,0.0,0.0,0.0,0.0,0.0,0.2829,0.3408,0.3995,0.4672,0.4377,0.4045,0.0,0.0,0.0,0.0,0.0,0.0,0.0,0.0,0.0,0.0,0.0,0.0,0.0,0.0,0.0,0.0,0.0,0.0,0.0,0.0,0.0,0.0,0.0,0.0,0.0,0.0,0.0,0.0,0.0,0.0,0.0,0.0,0.0,0.0,0.0,0.0,0.0,0.0,0.0,0.0,0.0,0.0,0.0,0.0,0.0,0.0,0.0,0.0,0.0,0.0,0.0,0.0,0.0,0.0,0.0,0.0,0.0,0.0,0.0,0.0,0.0,0.0,0.0,0.0,0.0,0.0,0.0,0.0,0.0,0.0,0.0,0.0,0.0,0.0,0.0,0.0,0.0,0.0,0.0,0.0,0.0,0.0,0.0,0.0,0.0,0.0,0.0,0.0,0.0,0.0,0.0,0.0,0.0,0.0,0.0,0.0,0.0,0.0,0.0,0.0,0.0,0.0,0.0,0.0,0.0,0.0,0.0,0.0,0.0483,0.2445,0.3096,0.3878,0.4742,0.4665,0.4392,0.0,0.0,0.0,0.0,0.0,0.0,0.0,0.0,0.0,0.0,0.0,0.0,0.0,0.0,0.0,0.0,0.0,0.0,0.0,0.0,0.0,0.0,0.0,0.0,0.0,0.0,0.0,0.0,0.0,0.0,0.0,0.0,0.0,0.0,0.0,0.0,0.0,0.0,0.0,0.0,0.0,0.0,0.0,0.0,0.0,0.0,0.0,0.0,0.0,0.0,0.0,0.0,0.0,0.0,0.0,0.0,0.0,0.0,0.0,0.0,0.0,0.0,0.0,0.0,0.0,0.0,0.0,0.0,0.0,0.0,0.0,0.0,0.0,0.0,0.0,0.0,0.0,0.0,0.0,0.0,0.0,0.0,0.0,0.0,0.0,0.0,0.0,0.0,0.0,0.0,0.0,0.0,0.0,0.0,0.0,0.0,0.0,0.0,0.0,0.0,0.0,0.0,0.0,0.0,0.0,0.0,0.0,0.0,-0.0034,0.1574,0.2566,0.3602,0.4668,0.4984,0.4854,0.0,0.0,0.0,0.0,0.0,0.0,0.0,0.0,0.0,0.0,0.0,0.0,0.0,0.0,0.0,0.0,0.0,0.0,0.0,0.0,0.0,0.0,0.0,0.0,0.0,0.0,0.0,0.0,0.0,0.0,0.0,0.0,0.0,0.0,0.0,0.0,0.0,0.0,0.0,0.0,0.0,0.0,0.0,0.0,0.0,0.0,0.0,0.0,0.0,0.0,0.0,0.0,0.0,0.0,0.0,0.0,0.0,0.0,0.0,0.0,0.0,0.0,0.0,0.0,0.0,0.0,0.0,0.0,0.0,0.0,0.0,0.0,0.0,0.0,0.0,0.0,0.0,0.0,0.0,0.0,0.0,0.0,0.0,0.0,0.0,0.0,0.0,0.0,0.0,0.0,0.0,0.0,0.0,0.0,0.0,0.0,0.0,0.0,0.0,0.0,0.0,0.0,0.0,0.0,0.0,0.0,0.0,0.0,0.0105,0.1578,0.2575,0.3622,0.4691,0.511,0.5119,0.0,0.0,0.0,0.0,0.0,0.0,0.0,0.0,0.0,0.0,0.0,0.0,0.0,0.0,0.0,0.0,0.0,0.0,0.0,0.0,0.0,0.0,0.0,0.0,0.0,0.0,0.0,0.0,0.0,0.0,0.0,0.0,0.0,0.0,0.0,0.0,0.0,0.0,0.0,0.0,0.0,0.0,0.0,0.0,0.0,0.0,0.0,0.0,0.325,0.0,0.0,0.0,0.0,0.0,0.0,0.0,0.0,0.0,0.0,0.0,0.0,0.0,0.0,0.0,0.0,0.0,0.0,0.0,0.0,0.0,0.0,0.0,0.0,0.0,0.0,0.0,0.0,0.0,0.0,0.0,0.0,0.0,0.0,0.0,0.0,0.0,0.0,0.0,0.0,0.0,0.0,0.0,0.0,0.0,0.0,0.0,0.0,0.0,0.0,0.0,0.0,0.0,0.0,0.0,0.0,0.0,0.0,0.0,-0.0179,0.0821,0.1863,0.2882,0.3911,0.4612,0.4922,0.0,0.0,0.0,0.0,0.0,0.0,0.0,0.0,0.0,0.0,0.0,0.0,0.0,0.0,0.0,0.0,0.0,0.0,0.0,0.0,0.0,0.0,0.0,0.0,0.0,0.0,0.0,0.0,0.0,0.0,0.0,0.0,0.0,0.0,0.0,0.0,0.0,0.0,0.0,0.0,0.0,0.0,0.0,0.0,0.0,0.0,0.0,0.0,0.0,0.0,0.0,0.0,0.0,0.0,0.0,0.0,0.0,0.0,0.0,0.0,0.0,0.0,0.0,0.0,0.0,0.0,0.0,0.0,0.0,0.0,0.0,0.0,0.0,0.0,0.0,0.0,0.0,0.0,0.0,0.0,0.0,0.0,0.0,0.0,0.0,0.0,0.0,0.0,0.0,0.0,0.0,0.0,0.0,0.0,0.0,0.0,0.0,0.0,0.0,0.0,0.0,0.0,0.0,0.0,0.0,0.0,0.0,-0.0697,-0.0401,0.0039,0.1065,0.2066,0.307,0.3964,0.4555,0.485,0.0,0.0,0.0,0.0,0.0,0.0,0.0,0.0,0.0,0.0,0.0,0.0,0.0,0.0,0.0,0.0,0.0,0.0,0.0,0.0,0.0,0.0,0.0,0.0,0.0,0.0,0.0,0.0,0.0,0.0,0.0,0.0,0.0,0.0,0.0,0.0,0.0,0.0,-0.27,-0.3535,0.0,0.0,0.0,0.0,0.0,0.0,0.0,0.0,-0.0122,0.0,0.0,0.0,0.0,0.0,0.0,0.0,0.0,0.0,0.0,0.0,0.0,0.0,0.0,0.0,0.0,0.0,0.0,0.0,0.0,0.0,0.0,0.0,0.0,0.0,0.0,0.0,0.0,0.0,0.0,0.0,0.0,0.0,0.0,0.0,0.0,0.0,0.0,0.0,0.0,0.0,0.0,0.0,0.0,0.0,0.0,0.0,0.0,0.0,0.0,0.0,0.0,0.0,0.0,0.0,0.0,-0.0734,-0.0436,-0.0184,0.0,0.105,0.206,0.307,0.3749,0.4298,0.466,0.0,0.0,0.0,0.0,0.0,0.0,0.0,0.0,0.0,0.0,0.0,0.0,0.0,0.0,0.0,0.0,0.0,0.0,0.0,0.0,0.0,0.0,0.0,0.0,0.0,0.0,0.0,0.0,0.0,0.0,0.0,0.0,0.0,0.0,0.0,0.0,0.0,0.0,0.0,-0.4992,-0.5422,0.0,0.0,0.0,0.0,0.0,0.0,0.0,0.0,-0.1717,0.0,0.0,0.0,0.0,0.0,0.0,0.0,0.0,0.0,0.0,0.0,0.0,0.0,0.0,0.0,0.0,0.0,0.0,0.0,0.0,0.0,0.0,0.0,0.0,0.0,0.0,0.0,0.0,0.0,0.0,0.0,0.0,0.0,0.0,0.0,0.0,0.0,0.0,0.0,0.0,0.0,0.0,0.0,0.0,0.0,0.0,0.0,0.0,0.0,0.0,0.0,0.0,0.0,0.0,0.0,-0.0586,-0.038,-0.015,0.0,0.0479,0.1275,0.2266,0.2816,0.3281,0.0,0.0,0.0,0.0,0.0,0.0,0.0,0.0,0.0,0.0,0.0,0.0,0.0,0.0,0.0,0.0,0.0,0.0,0.0,0.0,0.0,0.0,0.0,0.0,0.0,0.0,0.0,0.0,0.0,0.0,0.0,0.0,0.0,0.0,0.0,0.0,0.0,0.0,0.0,0.0,-0.6275,-0.6746,-0.7432,0.0,0.0,0.0,0.0,0.0,0.0,-0.4909,-0.3867,0.0,0.0,0.0,0.0,0.0,0.0,0.0,0.0,0.0,0.0,0.0,0.0,0.0,0.0,0.0,0.0,0.0,0.0,0.0,0.0,0.0,0.0,0.0,0.0,0.0,0.0,0.0,0.0,0.0,0.0,0.0,0.0,0.0,0.0,0.0,0.0,0.0,0.0,0.0,0.0,0.0,0.0,0.0,0.0,0.0,0.0,0.0,0.0,0.0,0.0,0.0,0.0,0.0,0.0,0.0,-0.0432,-0.0318,-0.0152,0.0,0.0,0.051,0.1566,0.1887,0.2259,0.0,0.0,0.0,0.0,0.0,0.0,0.0,0.0,0.0,0.0,0.0,0.0,0.0,0.0,0.0,0.0,0.0,0.0,0.0,0.0,0.0,0.0,0.0,0.0,0.0,0.0,0.0,0.0,0.0,0.0,0.0,0.0,0.0,0.0,0.0,0.0,0.0,0.0,0.0,0.0,0.0,-0.7928,-0.8699,-0.83,0.0,0.0,0.0,0.0,-0.7614,-0.6931,0.0,0.0,0.0,0.0,0.0,0.0,0.0,0.0,0.0,0.0,0.0,0.0,0.0,0.0,0.0,0.0,0.0,0.0,0.0,0.0,0.0,0.0,0.0,0.0,0.0,0.0,0.0,0.0,0.0,0.0,0.0,0.0,0.0,0.0,0.0,0.0,0.0,0.0,0.0,0.0,0.0,0.0,0.0,0.0,0.0,0.0,0.0,0.0,0.0,0.0,0.0,0.0,0.0,0.0,0.0,0.0,-0.0247,-0.0104,0.0,0.0,0.0,0.051,0.1566,0.1467,0.1778,0.0,0.0,0.0,0.0,0.0,0.0,0.0,0.0,0.0,0.0,0.0,0.0,0.0,0.0,0.0,0.0,0.0,0.0,0.0,0.0,0.0,0.0,0.0,0.0,0.0,0.0,0.0,0.0,0.0,0.0,0.0,0.0,0.0,0.0,0.0,0.0,0.0,0.0,0.0,0.0,0.0,-0.8619,-0.909,-0.9331,-0.923,0.0,0.0,-0.9761,-0.9738,-0.934,0.0,0.0,0.0,0.0,0.0,0.0,0.0,0.0,0.0,0.0,0.0,0.0,0.0,0.0,0.0,0.0,0.0,0.0,0.0,0.0,0.0,0.0,0.0,0.0,0.0,0.0,0.0,0.0,0.0,0.0,0.0,0.0,0.0,0.0,0.0,0.0,0.0,0.0,0.0,0.0,0.0,0.0,0.0,0.0,0.0,0.0,0.0,0.0,0.0,0.0,0.0,0.0,0.0,0.0,0.0,-0.0394,-0.0309,-0.0107,0.0,0.0,0.0,0.0235,0.0667,0.0961,0.121,0.0,0.0,0.0,0.0,0.0,0.0,0.0,0.0,0.0,0.0,0.0,0.0,0.0,0.0,0.0,0.0,0.0,0.0,0.0,0.0,0.0,0.0,0.0,0.0,0.0,0.0,0.0,0.0,0.0,0.0,0.0,0.0,0.0,0.0,0.0,0.0,0.0,0.0,0.0,0.0,0.0,0.0,-0.9644,-1.0134,0.0,0.0,0.0,-1.079,-1.0731,0.0,0.0,0.0,0.0,0.0,0.0,0.0,0.0,0.0,0.0,0.0,0.0,0.0,0.0,0.0,0.0,0.0,0.0,0.0,0.0,0.0,0.0,0.0,0.0,0.0,0.0,0.0,0.0,0.0,0.0,0.0,0.0,0.0,0.0,0.0,0.0,0.0,0.0,0.0,0.0,0.0,0.0,0.0,0.0,0.0,0.0,0.0,0.0,0.0,0.0,0.0,0.0,0.0,0.0,0.0,0.0,0.0,-0.0468,-0.0438,-0.0275,0.0,0.0,0.0,0.0,0.0501,0.0,0.0,0.0,0.0,0.0,0.0,0.0,0.0,0.0,0.0,0.0,0.0,0.0,0.0,0.0,0.0,0.0,0.0,0.0,0.0,0.0,0.0,0.0,0.0,0.0,0.0,0.0,0.0,0.0,0.0,0.0,0.0,0.0,0.0,0.0,0.0,0.0,0.0,0.0,0.0,0.0,0.0,-0.9724,-1.0267,-1.0902,-1.1243,0.0,0.0,-1.1574,-1.1482,-1.1283,-1.0499,0.0,0.0,0.0,0.0,0.0,0.0,0.0,0.0,0.0,0.0,0.0,0.0,0.0,0.0,0.0,0.0,0.0,0.0,0.0,0.0,0.0,0.0,0.0,0.0,0.0,0.0,0.0,0.0,0.0,0.0,0.0,0.0,0.0,0.0,0.0,0.0,0.0,0.0,0.0,0.0,0.0,0.0,0.0,0.0,0.0,0.0,0.0,0.0,0.0,0.0,0.0,0.0,0.0,0.0,0.0,-0.0739,-0.1213,-0.098,0.0,0.0,0.0,0.0,0.0255,0.0471,0.0,0.0,0.0,0.0,0.0,0.0,0.0,0.0,0.0,0.0,0.0,0.0,0.0,0.0,0.0,0.0,0.0,0.0,0.0,0.0,0.0,0.0,0.0,0.0,0.0,0.0,0.0,0.0,0.0,0.0,0.0,0.0,0.0,0.0,0.0,0.0,0.0,0.0,0.0,0.0,0.0,-1.062,-1.0895,-1.1663,-1.2204,0.0,0.0,-1.2208,-1.2215,-1.2661,-1.2125,-0.9555,0.0,0.0,0.0,0.0,0.0,0.0,0.0,0.0,0.0,0.0,0.0,0.0,0.0,0.0,0.0,0.0,0.0,0.0,0.0,0.0,0.0,0.0,0.0,0.0,0.0,0.0,0.0,0.0,0.0,0.0,0.0,0.0,0.0,0.0,0.0,0.0,0.0,0.0,0.0,0.0,0.0,0.0,0.0,0.0,0.0,0.0,0.0,0.0,0.0,0.0,0.0,0.0,0.0,-0.1967,-0.1865,-0.1693,-0.1412,-0.098,-0.0353,0.0,0.0,0.0185,0.0311,0.0,0.0,0.0,0.0,0.0,0.0,0.0,0.0,0.0,0.0,0.0,0.0,0.0,0.0,0.0,0.0,0.0,0.0,0.0,0.0,0.0,0.0,0.0,0.0,0.0,0.0,0.0,0.0,-0.319,-0.3172,-0.2664,0.0,0.0,0.0,0.0,0.0,0.0,0.0,0.0,0.0,0.0,-1.1095,-1.1703,-1.2412,0.0,0.0,-1.2886,-1.3027,-1.2886,-1.2739,-1.2111,-1.0581,-0.9662,0.0,0.0,0.0,0.0,0.0,0.0,0.0,0.0,0.0,0.0,0.0,0.0,0.0,0.0,0.0,0.0,0.0,0.0,0.0,0.0,0.0,0.0,0.0,0.0,0.0,0.0,0.0,0.0,0.0,0.0,0.0,0.0,0.0,0.0,0.0,0.0,0.0,0.0,0.0,0.0,0.0,0.0,0.0,0.0,0.0,0.0,0.0,0.0,0.0,0.0,0.0,0.0,-0.2595,-0.2765,-0.2584,-0.2231,-0.1606,-0.0863,-0.0314,-0.0039,0.0113,0.0142,0.0,0.0,0.0,0.0,0.0,0.0,0.0,0.0,0.0,0.0,0.0,0.0,0.0,0.0,0.0,0.0,0.0,0.0,0.0,0.0,0.0,0.0,0.0,0.0,0.0,0.0,0.0,0.0,-0.3846,-0.3772,-0.3151,0.0,0.0,0.0,0.0,0.0,0.0,0.0,0.0,0.0,0.0,-1.1806,-1.2478,-1.3019,-1.3287,-1.3206,-1.3353,-1.34,-1.324,-1.2852,-1.2271,-1.1361,0.0,0.0,0.0,0.0,0.0,0.0,0.0,0.0,0.0,0.0,0.0,0.0,0.0,0.0,0.0,0.0,0.0,0.0,0.0,0.0,0.0,0.0,0.0,0.0,0.0,0.0,0.0,-0.0401,0.0,0.0,-0.0389,0.0,0.0,0.0,0.0,0.0,0.0,0.0,0.0,0.0,0.0,0.0,0.0,0.0,0.0,0.0,0.0,0.0,0.0,0.0,0.0,0.0,0.0,-0.3542,-0.3143,-0.4087,-0.3636,-0.1685,-0.1568,-0.1019,-0.0039,0.0,0.0073,0.0169,0.0,0.0,0.0,0.0,0.0,0.0,0.0,0.0,0.0,0.0,0.0,0.0,0.0,0.0,0.0,0.0,0.0,0.0,0.0,0.0,0.0,0.0,0.0,0.0,0.0,0.0,-0.4069,-0.3767,-0.3595,0.0,0.0,0.0,0.0,0.0,0.0,0.0,0.0,0.0,0.0,-1.1832,-1.2857,-1.314,-1.3407,-1.3693,-1.4008,-1.3594,-1.3227,-1.3233,-1.32,-1.2847,0.0,0.0,0.0,0.0,0.0,0.0,0.0,0.0,0.0,0.0,0.0,0.0,0.0,0.0,0.0,0.0,0.0,0.0,0.0,0.0,0.0,0.0,0.0,0.0,0.0,0.0,0.0,-0.1895,-0.1709,0.0,0.0,0.0,0.0,0.0,0.0,0.0,0.0,0.0,0.0,0.0,-0.297,-0.324,0.0,0.0,0.0,0.0,0.0,0.0,0.0,0.0,0.0,0.0,0.0,0.0,-0.4144,-0.4398,-0.4609,-0.4095,-0.2839,-0.2013,-0.1098,0.0,0.0,0.0037,0.0068,0.0,0.0,0.0,0.0,0.0,0.0,0.0,0.0,0.0,0.0,0.0,0.0,0.0,0.0,0.0,0.0,0.0,0.0,0.0,0.0,0.0,0.0,0.0,0.0,0.0,-0.5781,0.0,0.0,0.0,0.0,0.0,0.0,0.0,0.0,0.0,0.0,0.0,-1.0147,-1.1832,-1.2513,-1.3032,-1.3694,-1.3874,-1.4041,0.0,0.0,0.0,0.0,0.0,0.0,0.0,0.0,0.0,0.0,0.0,0.0,0.0,0.0,-1.0231,-0.8745,-0.8366,-0.8397,-0.874,0.0,0.0,0.0,0.0,0.0,0.0,0.0,0.0,0.0,0.0,0.0,0.0,0.0,0.0,-0.2963,-0.2793,-0.271,0.0,0.0,0.0,0.0,0.0,0.0,0.0,0.0,-0.3723,-0.403,-0.4204,-0.452,-0.4496,0.0,-0.4246,-0.3663,0.0,0.0,0.0,0.0,0.0,0.0,0.0,0.0,-0.4621,-0.5227,-0.5298,-0.4877,-0.4003,-0.2846,-0.1705,-0.0675,-0.0234,0.0,0.0,0.0,0.0,0.0,0.0,0.0,0.0,0.0,0.0,0.0,0.0,0.0,0.0,0.0,0.0,0.0,0.0,0.0,0.0,0.0,0.0,0.0,0.0,0.0,0.0,0.0,-0.6233,0.0,0.0,0.0,0.0,0.0,0.0,0.0,0.0,0.0,-0.9342,-1.0194,-1.1357,-1.2891,-1.3273,-1.3581,-1.4063,0.0,0.0,0.0,0.0,0.0,0.0,0.0,-1.3634,-1.3568,-1.3641,-1.3775,-1.3935,-1.416,-1.4368,-1.4368,0.0,0.0,-1.1484,-1.1044,-1.1053,-1.1343,-1.1676,-1.2005,-1.2254,-1.2563,-1.2901,0.0,0.0,0.0,0.0,0.0,0.0,0.0,0.0,-0.4128,-0.3876,0.0,-0.3772,0.0,0.0,0.0,0.0,-0.3331,-0.3427,0.0,0.0,-0.4796,-0.4781,-0.4565,-0.5345,-0.5254,-0.435,-0.4904,-0.499,-0.4597,-0.3936,0.0,0.0,0.0,0.0,0.0,0.0,-0.4935,-0.5604,-0.618,-0.6059,-0.51,-0.4016,-0.2916,-0.182,-0.0621,0.0,0.0,0.0,0.0,0.0,0.0,0.0,0.0,0.0,0.0,0.0,0.0,0.0,0.0,0.0,0.0,0.0,0.0,0.0,0.0,0.0,0.0,0.0,0.0,0.0,0.0,-0.582,0.0,0.0,0.0,0.0,0.0,0.0,0.0,0.0,0.0,0.0,-1.0707,-1.1886,-1.3005,-1.3527,0.0,0.0,0.0,0.0,-1.4877,-1.4616,-1.4563,-1.4576,-1.4546,-1.4576,-1.4649,-1.4968,0.0,0.0,-1.5444,-1.5458,-1.5484,-1.5471,-1.5664,-1.5385,-1.4007,-1.3508,-1.344,-1.3783,-1.4071,-1.4381,-1.4515,-1.4719,-1.4977,-0.5986,0.0,0.0,0.0,0.0,-0.5071,-0.5256,-0.5692,-0.5507,-0.5312,-0.5119,-0.5039,0.0,0.0,0.0,0.0,0.0,0.0,-0.4942,-0.5431,-0.5811,-0.6019,-0.6201,-0.6557,-0.6489,-0.6145,-0.6312,-0.6247,-0.5965,-0.5757,-0.4998,-0.3729,0.0,0.0,0.0,0.0,-0.5424,-0.5888,-0.6381,-0.6201,-0.5352,-0.4861,-0.3699,-0.1864,-0.0631,0.0,0.0,0.0,0.0,0.0,0.0,0.0,0.0,0.0,0.0,0.0,0.0,0.0,0.0,0.0,0.0,0.0,0.0,0.0,0.0,0.0,0.0,0.0,0.0,0.0,-0.6501,-0.6817,-0.6984,0.0,0.0,0.0,0.0,0.0,0.0,0.0,0.0,0.0,-1.2946,-1.2911,-1.3092,0.0,0.0,-1.4255,-1.4382,-1.4897,-1.5311,-1.5438,-1.5405,0.0,-1.5738,-1.5591,-1.5438,-1.5565,-1.5999,-1.64,-1.6663,-1.6871,-1.6954,-1.6947,-1.7027,-1.691,-1.6527,-1.5681,-1.5259,-1.5504,-1.5671,-1.5798,-1.6039,-1.6152,-1.6213,-0.691,-0.6359,-0.6067,-0.5979,-0.6118,-0.6043,-0.6227,-0.661,-0.6481,-0.6369,-0.623,-0.6152,-0.5802,-0.5281,-0.5083,0.0,0.0,0.0,-0.6101,-0.6453,-0.6728,-0.697,-0.7197,-0.7285,-0.7233,-0.7149,-0.7132,-0.6976,-0.6732,-0.6617,-0.6055,-0.5011,0.0,0.0,-0.499,-0.5508,-0.5928,-0.6301,-0.6627,-0.6518,-0.608,-0.5531,-0.4342,-0.2471,-0.1719,-0.1295,-0.1227,-0.1246,-0.1236,-0.1222,-0.1166,-0.1208,0.0,0.0,0.0,0.0,0.0,0.0,0.0,0.0,0.0,0.0,0.0,-0.4259,0.0,0.0,0.0,0.0,-0.6181,-0.662,-0.7482,-0.7706,0.0,0.0,0.0,0.0,0.0,0.0,0.0,-1.1413,-1.2494,-1.3494,-1.4315,-1.4168,-1.4168,-1.471,-1.4883,-1.4977,-1.503,0.0,-1.5939,-1.5999,-1.6106,-1.6239,-1.6413,-1.6393,-1.6393,-1.6506,-1.6807,-1.7148,-1.7455,-1.7562,-1.7662,-1.7862,-1.7849,-1.7802,-1.7923,-1.7348,-1.6881,-1.6967,-1.7081,-1.7215,-1.7388,-1.7321,-1.7268,-0.7672,-0.7621,-0.7075,-0.6895,-0.6937,-0.694,-0.7054,-0.7129,-0.7129,-0.7058,-0.695,-0.7061,-0.6851,-0.6371,-0.6381,0.0,-0.6766,-0.7007,-0.7244,-0.7439,-0.7533,-0.7597,-0.7597,-0.7597,-0.7597,-0.7594,-0.7504,-0.7316,-0.7122,-0.6909,-0.6695,-0.6579,-0.6271,-0.607,-0.6057,-0.6238,-0.6457,-0.6695,-0.6848,-0.6953,-0.7088,-0.599,-0.4788,-0.3494,-0.3403,-0.3282,-0.3088,-0.3085,-0.3095,-0.3092,-0.2973,-0.2874,-0.2717,0.0,0.0,0.0,0.0,0.0,0.0,0.0,0.0,0.0,0.0,0.0,0.0,0.0,0.0,0.0,-0.7705,0.0,-0.8509,-0.8536,0.0,0.0,0.0,-0.9777,-1.0673,-1.1551,-1.2371,-1.3213,0.0,0.0,-1.5075,-1.5551,-1.5864,-1.5884,-1.6126,-1.6172,-1.5899,-1.6339,-1.6647,-1.6393,-1.6593,-1.6767,-1.6807,-1.7038,-1.7253,-1.7422,-1.7595,-1.7702,-1.7882,-1.7862,-1.7916,-1.8357,-1.8257,-1.8102,-1.843,-1.8417,-1.8444,-1.8069,-1.827,-1.845,-1.8397,-1.8203,-1.809,-0.8272,-0.8258,-0.8116,-0.7821,-0.7441,-0.7438,-0.7458,-0.7492,-0.7489,-0.7472,-0.7434,-0.735,-0.7173,-0.6893,-0.7054,-0.719,-0.7221,-0.7407,-0.7509,-0.7546,-0.758,-0.7597,-0.7597,-0.7597,-0.7597,-0.7594,-0.7563,-0.7526,-0.7489,-0.7421,-0.7309,-0.7204,-0.7088,-0.677,-0.6272,-0.6388,-0.6555,-0.6698,-0.6851,-0.6953,-0.7041,-0.599,-0.5167,-0.4692,-0.3838,-0.3322,-0.3127,-0.3124,-0.3056,-0.2949,-0.2921,-0.2887,-0.2925,-0.2595,0.0,0.0,0.0,0.0,0.0,0.0,0.0,0.0,0.0,-0.5824,-0.6039,0.0,-0.7766,0.0,-0.8348,-0.8898,-0.9626,-0.9677,0.0,0.0,-1.1403,-1.1744,-1.2228,-1.3058,-1.3728,-1.4162,-1.4783,-1.5384,-1.5899,-1.6273,-1.658,-1.6844,-1.6506,-1.6246,-1.6192,-1.6717,-1.7079,-1.7025,-1.7219,-1.7375,-1.7355,-1.7481,-1.7554,-1.7621,-1.7782,-1.7909,-1.7982,-1.8183,-1.8323,-1.847,-1.8444,-1.8424,-1.8497,-1.8657,-1.8791,-1.8718,-1.8604,-1.8497,-1.849,-1.8437,-1.841,-0.8535,-0.8535,-0.8535,-0.8289,-0.7991,-0.7994,-0.7957,-0.7902,-0.7899,-0.7862,-0.7739,-0.7634,-0.756,-0.7496,-0.756,-0.7604,-0.7675,-0.7756,-0.7797,-0.7797,-0.7794,-0.7797,-0.7794,-0.7794,-0.7797,-0.779,-0.7726,-0.7692,-0.7689,-0.7631,-0.756,-0.7472,-0.7521,-0.7197,-0.6675,-0.6668,-0.6685,-0.6702,-0.6809,-0.6953,-0.7088,-0.643,-0.5966,-0.5688,-0.5039,-0.4584,-0.4312,-0.4305,-0.4291,-0.4176,-0.4139,-0.4079,-0.4059,-0.3683,-0.3424,0.0,0.0,0.0,0.0,0.0,0.0,0.0,0.0,0.0,0.0,0.0,-0.8856,-0.9022,-0.9737,-1.0421,-1.1029,-1.1209,-1.1603,-1.2385,-1.2846,-1.3206,-1.35,-1.4329,-1.497,-1.5271,-1.5818,-1.6342,-1.6677,-1.6914,-1.7154,-1.7373,-1.7054,-1.6904,-1.6881,-1.7148,-1.7393,-1.74,-1.7475,-1.7589,-1.7589,-1.7702,-1.7789,-1.7809,-1.805,-1.8283,-1.8348,-1.8464,-1.8564,-1.8804,-1.8778,-1.8731,-1.8858,-1.8998,-1.9125,-1.9105,-1.8998,-1.8891,-1.8934,-1.8778,-1.8704,-0.854,-0.854,-0.854,-0.854,-0.854,-0.8543,-0.8448,-0.835,-0.8347,-0.8221,-0.8035,-0.7953,-0.797,-0.8039,-0.7957,-0.797,-0.8042,-0.8079,-0.8019,-0.8069,-0.7998,-0.7988,-0.7988,-0.7988,-0.7988,-0.7982,-0.7906,-0.7793,-0.7834,-0.7716,-0.7645,-0.7628,-0.7628,-0.7475,-0.7132,-0.7004,-0.6902,-0.6736,-0.6881,-0.6964,-0.7065,-0.695,-0.6783,-0.6525,-0.6375,-0.6163,-0.5844,-0.5813,-0.5789,-0.5769,-0.5689,-0.5528,-0.5423,-0.4948,-0.4554,0.0,-0.4025,0.0,0.0,0.0,0.0,0.0,0.0,0.0,0.0,-0.9728,-1.0154,-1.045,-1.1443,-1.2214,-1.2498,-1.2804,-1.3125,-1.3507,-1.4001,-1.4436,-1.4783,-1.5484,-1.6052,-1.6353,-1.6891,-1.7206,-1.7253,-1.7435,-1.7582,-1.7569,-1.7535,-1.7502,-1.7562,-1.7555,-1.7562,-1.7589,-1.7589,-1.7602,-1.7675,-1.7876,-1.7995,-1.8055,-1.835,-1.8624,-1.8844,-1.8744,-1.8771,-1.9199,-1.9138,-1.9072,-1.9383,-1.941,-1.9417,-1.9403,-1.9383,-1.9377,-1.9363,-1.9145,-1.9078,-0.8852,-0.8797,-0.8852,-0.8797,-0.8852,-0.8852,-0.8696,-0.8442,-0.8442,-0.8425,-0.8397,-0.8367,-0.837,-0.8394,-0.8367,-0.837,-0.8391,-0.8279,-0.8228,-0.8221,-0.8099,-0.7988,-0.7988,-0.7988,-0.7988,-0.7988,-0.7958,-0.7948,-0.7994,-0.7967,-0.7843,-0.7773,-0.7773,-0.7624,-0.7343,0.0,0.0,0.0,-0.698,-0.7014,-0.693,-0.6903,-0.6783,-0.6521,-0.6375,0.0,-0.5993,-0.5864,-0.5749,-0.5637,-0.5603,0.0,0.0,0.0,0.0,0.0,0.0,0.0,0.0,0.0,0.0,0.0,-0.8755,-0.9718,-0.9715,-1.0982,-1.2037,-1.2572,-1.2832,-1.3173,-1.3694,-1.3836,-1.4235,-1.5204,-1.5385,-1.5705,-1.6219,-1.644,-1.6653,-1.6998,-1.7132,-1.7293,-1.7514,-1.7555,-1.7582,-1.7589,-1.7589,-1.7589,-1.7589,-1.7595,-1.7589,-1.7589,-1.7609,-1.7689,-1.7869,-1.7969,-1.8129,-1.8364,-1.8651,-1.8844,-1.8925,-1.9098,-1.9243,-1.9424,-1.9325,-1.9343,-1.9359,-1.9424,-1.9424,-1.9424,-1.9424,-1.9424,-1.9424,-1.9325,-1.9299,-0.8937,-0.8937,-0.8937,-0.8937,0.0,-0.8937,-0.8797,-0.8703,-0.8628,-0.8554,-0.8535,-0.8535,-0.8535,-0.8535,-0.8535,-0.8535,-0.8479,-0.8408,-0.8374,-0.837,-0.8292,-0.8258,-0.8255,-0.8187,-0.8153,-0.815,-0.8075,-0.7988,-0.7988,-0.7988,-0.7951,-0.7923,-0.7874,-0.7811,-0.7594,-0.7522,-0.7373,-0.7149,-0.7217,-0.7217,-0.7146,-0.7031,-0.6892,-0.6597,-0.6484,0.0,0.0,0.0,0.0,0.0,0.0,0.0,0.0,0.0,0.0,-0.5832,-0.5767,-0.5791,-0.6004,-0.6603,-0.7203,-0.7747,-0.9994,-1.1435,-1.1484,-1.2516,-1.3367,-1.3814,-1.4242,-1.4683,-1.5117,-1.5291,-1.5611,-1.6186,-1.6259,-1.6393,-1.666,-1.684,-1.6981,-1.7186,-1.7326,-1.7474,-1.7562,-1.7589,-1.7589,-1.7589,-1.7589,-1.7642,-1.7762,-1.7675,-1.7629,-1.7776,-1.7816,-1.7916,-1.8155,-1.8355,-1.8455,-1.8704,-1.8951,-1.9112,-1.9145,-1.9272,-1.9424,-1.9424,-1.9424,-1.9424,-1.9424,-1.9424,-1.9424,-1.9424,-1.9424,-1.9424,-1.9424,-1.9424,-1.9424,-0.8937,-0.8937,-0.8937,-0.8898,-0.8977,-0.8922,-0.8939,-0.8952,-0.8774,0.0,0.0,-0.8564,-0.8564,-0.8564,-0.8564,-0.8564,-0.856,-0.8537,-0.852,-0.852,-0.8496,-0.8535,-0.8476,-0.8415,-0.8309,-0.8303,-0.8153,-0.8079,-0.8079,-0.8002,-0.7988,-0.7988,-0.7988,-0.7924,-0.7851,-0.7736,-0.7614,-0.7492,-0.7484,-0.7397,-0.7415,-0.7244,-0.6997,-0.6749,-0.6634,-0.6383,-0.6122,-0.6084,-0.6013,-0.5895,-0.6027,-0.6084,-0.6152,-0.6295,-0.6429,-0.6453,-0.648,-0.6603,-0.68,-0.7454,-0.8132,-0.8873,-1.1184,-1.2895,-1.3563,-1.4162,-1.4589,-1.4883,-1.5565,-1.6086,-1.6333,-1.656,-1.6727,-1.6774,-1.6787,-1.68,-1.6867,-1.7119,-1.7286,-1.7306,-1.7487,-1.7589,-1.7582,-1.7589,-1.7609,-1.7662,-1.7695,-1.7776,-1.7955,-1.7936,-1.7883,-1.8029,-1.8069,-1.8223,-1.851,-1.8731,-1.8868,-1.8998,-1.9199,-1.9417,-1.9424,-1.9424,-1.9424,-1.9424,-1.9424,-1.9424,-1.9424,-1.9424,-1.9424,-1.9424,-1.9424,-1.9424,-1.9424,-1.9424,-1.9424,-0.894,-0.8937,-0.8937,-0.9011,-0.918,-0.918,-0.9198,-0.9293,-0.9028,-0.8838,-0.8876,-0.8821,-0.8876,-0.8817,-0.8872,-0.8821,-0.8866,-0.8737,-0.8679,-0.8672,-0.8543,-0.8535,-0.8482,-0.8462,-0.8455,-0.8445,-0.8306,-0.8238,-0.8225,-0.8056,-0.7988,-0.7992,-0.7988,-0.7978,-0.7958,-0.7938,-0.7917,-0.7894,-0.7695,-0.7506,-0.7419,-0.7395,-0.7197,-0.6909,-0.6753,-0.659,-0.6457,-0.634,-0.6259,-0.6242,-0.6375,-0.6471,-0.6603,-0.6753,-0.6892,-0.7014,-0.7143,-0.7282,-0.7327,-0.7628,-0.8981,-1.1517,-1.2323,-1.3396,-1.5258,-1.5765,-1.6092,-1.6366,-1.65,-1.6593,-1.6647,-1.67,-1.6834,-1.7048,-1.7139,-1.7233,-1.7395,-1.7468,-1.7554,-1.7554,-1.7555,-1.7589,-1.7609,-1.7609,-1.7709,-1.7856,-1.7955,-1.8049,-1.8337,-1.8397,-1.8377,-1.8417,-1.843,-1.8551,-1.8798,-1.8891,-1.9038,-1.9272,-1.9383,-1.9424,-1.9424,-1.9424,-1.9424,-1.9424,-1.9424,-1.9424,-1.9424,-1.9424,-1.9424,-1.9424,-1.9424,-1.9424,-1.9424,-1.9424,-1.9424,-0.9178,-0.9178,-0.9178,-0.9215,-0.9333,-0.9333,-0.9313,-0.9367,-0.9239,-0.9133,-0.9052,-0.8974,-0.8937,-0.8937,-0.8937,-0.8937,-0.8878,-0.8814,-0.8835,-0.8774,-0.876,-0.8726,-0.872,-0.8645,-0.8608,-0.8594,-0.8459,-0.8387,-0.8432,-0.8313,-0.8279,-0.8275,-0.8204,-0.8073,-0.7995,-0.7988,-0.7988,-0.7985,-0.7906,-0.7715,-0.7614,-0.7611,-0.7509,-0.7295,-0.7224,-0.7119,-0.7006,-0.6941,-0.6869,-0.6739,-0.6881,-0.7037,-0.7065,-0.721,-0.7394,-0.7564,-0.7695,-0.7804,-0.8016,-0.8099,-0.9084,-1.1123,-1.224,-1.3518,-1.5245,-1.606,-1.6633,-1.6907,-1.6991,-1.7014,-1.7161,-1.7181,-1.7241,-1.742,-1.7434,-1.7487,-1.7555,-1.7589,-1.7589,-1.7589,-1.7589,-1.7649,-1.7816,-1.7836,-1.7949,-1.8237,-1.8404,-1.8522,-1.8711,-1.8858,-1.8898,-1.8764,-1.8731,-1.8851,-1.9105,-1.9165,-1.9225,-1.9417,-1.9424,-1.9424,-1.9424,-1.9424,-1.9424,-1.9424,-1.9424,-1.9424,-1.9424,-1.9424,-1.9424,-1.9424,-1.9424,-1.9424,-1.9424,-1.9424,-1.9424,-0.9381,-0.9381,-0.9381,-0.9401,-0.9435,-0.9466,-0.9479,-0.9479,-0.9445,-0.9364,-0.9303,-0.9103,-0.8983,-0.9039,-0.9039,-0.9039,-0.8979,-0.9001,-0.8988,-0.8984,-0.8898,-0.8937,-0.8871,-0.876,-0.876,-0.8743,-0.8604,-0.8533,-0.853,-0.8499,-0.8535,-0.8469,-0.8426,-0.8255,-0.814,-0.8089,-0.8089,-0.8089,-0.8089,-0.7998,-0.7868,-0.7862,-0.779,-0.7658,-0.7645,-0.7577,-0.7434,-0.747,-0.737,-0.722,-0.7421,-0.7522,-0.7533,-0.7699,-0.7902,-0.8059,-0.8089,-0.8255,-0.8503,-0.8533,-0.912,-1.0464,-1.2116,-1.3657,-1.5077,-1.6291,-1.7068,-1.7273,-1.73,-1.7387,-1.7508,-1.7569,-1.7609,-1.7669,-1.7689,-1.7689,-1.7695,-1.7742,-1.7749,-1.7716,-1.7742,-1.7782,-1.7683,-1.7864,-1.827,-1.8551,-1.8844,-1.9011,-1.9052,-1.9239,-1.9245,-1.9112,-1.9018,-1.9098,-1.939,-1.9417,-1.9417,-1.9424,-1.9424,-1.9424,-1.9424,-1.9424,-1.9424,-1.9424,-1.9424,-1.9424,-1.9366,-1.9004,-1.9004,-1.9185,-1.9068,-1.8881,-1.9307,-1.8946,-1.9062,-0.9388,-0.9381,-0.9395,-0.9459,-0.9598,-0.9717,-0.9768,-0.9754,-0.9642,-0.9581,-0.954,-0.9408,-0.9337,-0.9344,-0.9334,-0.9327,-0.9317,-0.9251,-0.919,-0.9117,-0.8998,-0.8937,-0.8888,-0.8868,-0.8865,-0.8838,-0.8757,-0.8689,-0.8682,-0.856,-0.8542,-0.8535,-0.8469,-0.8452,-0.8435,-0.8431,-0.8438,-0.8442,-0.8442,-0.8303,-0.7988,-0.7968,-0.7946,-0.7797,-0.7797,-0.7726,-0.7614,-0.7577,-0.7573,-0.758,-0.7824,-0.7924,-0.7948,-0.8238,-0.846,-0.8435,-0.8438,-0.8516,-0.8669,-0.8689,-0.9334,-1.0925,-1.241,-1.397,-1.5584,-1.7041,-1.7749,-1.7576,-1.7503,-1.7477,-1.7635,-1.7563,-1.7636,-1.7976,-1.7949,-1.7955,-1.8029,-1.825,-1.8303,-1.7975,-1.8203,-1.79,-1.6888,-1.7495,-1.841,-1.8555,-1.9041,-1.9214,-1.9041,-1.908,-1.8997,-1.9138,-1.9254,-1.9254,-1.9366,-1.9424,-1.9424,-1.9424,-1.9424,-1.9424,-1.9424,-1.9424,-1.9424,-1.9424,-1.9424,-1.9424,-1.8939,-1.8402,-1.7923,-1.87,-1.8402,-1.78,-1.8765,-1.8344,-1.7981,-0.9639,-0.9642,-0.9642,-0.9676,-0.9741,-0.9798,-0.9819,-0.9812,-0.9761,-0.9734,-0.9727,-0.9666,-0.9547,-0.9384,-0.9381,-0.9381,-0.9374,-0.9317,-0.9347,-0.9283,-0.9225,-0.915,-0.9072,-0.9069,-0.9022,-0.8885,-0.8817,-0.8845,-0.878,-0.8784,-0.8706,-0.8625,-0.8615,-0.8574,-0.8542,-0.8535,-0.8535,-0.8535,-0.8535,-0.8421,-0.8319,-0.8303,-0.8272,-0.8218,-0.8208,-0.8184,-0.813,-0.8123,-0.8119,-0.8126,-0.8238,-0.8303,-0.8303,-0.8418,-0.8523,-0.8611,-0.8703,-0.8777,-0.8842,-0.879,-0.9127,-0.9939,-1.2202,-1.3883,-1.4665,-1.6045,-1.6833,-1.674,-1.6709,-1.7049,-1.7825,-1.7274,-1.7106,-1.8003,-1.831,-1.8303,-1.831,-1.8424,-1.843,-1.833,-1.841,-1.7938,-1.6813,-1.7083,-1.7631,-1.7923,-1.8584,-1.8939,-1.8227,-1.7987,-1.7572,-1.6803,-1.6568,-1.7455,-1.8765,-1.9424,-1.9366,-1.9366,-1.9424,-1.9424,-1.9366,-1.9424,-1.9424,-1.9424,-1.9424,-1.9004,-1.804,-1.846,-1.8525,-1.8583,-1.8765,-1.8642,-1.9301,-1.8104,-1.7566,-0.9819,-0.9819,-0.9819,-0.9819,-0.9819,-0.9819,-0.9819,-0.9819,-0.9819,-0.9819,-0.9819,-0.9819,-0.9707,-0.952,-0.95,-0.95,-0.95,-0.9462,-0.9445,-0.9439,-0.9405,-0.932,-0.9279,-0.9268,-0.9164,-0.9076,-0.9006,-0.8986,-0.8998,-0.895,-0.8879,-0.8788,-0.8771,-0.8716,-0.8618,-0.8608,-0.8608,-0.8611,-0.8608,-0.8608,-0.8608,-0.8608,-0.8567,-0.8492,-0.8535,-0.8535,-0.8535,-0.8535,-0.8535,-0.8535,-0.852,-0.8547,-0.8543,-0.8581,-0.8655,-0.8771,-0.8913,-0.8998,-0.8998,-0.9035,-0.9103,-0.9425,-1.1677,-1.3162,-1.3569,-1.4701,-1.5535,-1.5659,-1.5316,-1.5568,-1.6776,-1.6546,-1.6564,-1.7266,-1.7914,-1.8437,-1.7976,-1.8322,-1.8718,-1.8631,-1.8249,-1.7522,-1.6316,-1.5776,-1.5633,-1.6298,-1.7267,-1.7812,-1.668,-1.6321,-1.5908,-1.4782,-1.4663,-1.5553,-1.7636,-1.7812,-1.8052,-1.8233,-1.811,-1.8583,-1.8887,-1.9004,-1.9424,-1.9424,-1.9424,-1.9185,-1.846,-1.8765,-1.8525,-1.7806,-1.8163,-1.9243,-1.9366,-1.7806,-1.6556,-0.9819,-0.9819,-0.9819,-0.9819,-0.9819,-0.9819,-0.9819,-0.9819,-0.9819,-0.9819,-0.9819,-0.9819,-0.9812,-0.9785,-0.9771,-0.9795,-0.9774,-0.9652,-0.9598,-0.9588,-0.9462,-0.9384,-0.9374,-0.9371,-0.9364,-0.9323,-0.932,-0.9266,-0.92,-0.9018,-0.8937,-0.8881,-0.8888,-0.8875,-0.8906,-0.8848,-0.8858,-0.8831,-0.8886,-0.8854,-0.8906,-0.8854,-0.8767,-0.8547,-0.8545,-0.8559,-0.8499,-0.8542,-0.8545,-0.8542,-0.8628,-0.8703,-0.871,-0.8835,-0.8916,-0.8885,-0.9062,-0.92,-0.9217,-0.932,-0.9351,-0.9538,-1.0904,-1.1833,-1.2301,-1.3485,-1.4316,-1.4592,-1.3264,-1.2958,-1.3924,-1.5207,-1.5551,-1.5029,-1.7267,-1.8027,-1.686,-1.8161,-1.9044,-1.8656,-1.7508,-1.6202,-1.4801,-1.3338,-1.3526,-1.4361,-1.4842,-1.4901,-1.4842,-1.4723,-1.4545,-1.4302,-1.4247,-1.4604,-1.4837,-1.5553,-1.5375,-1.5612,-1.668,-1.7202,-1.7683,-1.8163,-1.8823,-1.9424,-1.9424,-1.9301,-1.9062,-1.846,-1.7624,-1.7443,-1.8409,-1.9191,-1.9424,-1.6685,-1.5375,-0.9819,-0.9819,-0.9819,-0.9819,-0.9819,-0.9819,-0.9819,-0.9819,-0.9819,-0.9819,-0.9819,-0.9819,-0.9819,-0.9819,-0.9819,-0.9819,-0.9815,-0.9764,-0.9744,-0.9737,-0.9686,-0.9615,-0.953,-0.9527,-0.9469,-0.9391,-0.9381,-0.9354,-0.9303,-0.9242,-0.9222,-0.9222,-0.9222,-0.9178,-0.9093,-0.9079,-0.9035,-0.8947,-0.8937,-0.8925,-0.9059,-0.8988,-0.8923,-0.8965,-0.8818,-0.8774,-0.8774,-0.8774,-0.8774,-0.8774,-0.8774,-0.8801,-0.8869,-0.8994,-0.9076,-0.9089,-0.9218,-0.93,-0.9364,-0.9347,-0.9429,-0.9634,-1.0969,-1.185,-1.2128,-1.2588,-1.2976,-1.2791,-1.1619,-1.094,-1.1589,-1.3536,-1.4971,-1.4986,-1.7187,-1.8417,-1.7374,-1.7447,-1.7821,-1.734,-1.5617,-1.3696,-1.3347,-1.2513,-1.2453,-1.3053,-1.3889,-1.4009,-1.3292,-1.3053,-1.2753,-1.1796,-1.1499,-1.1559,-1.1559,-1.3526,-1.4658,-1.4718,-1.5311,-1.6079,-1.6674,-1.7267,-1.7923,-1.9004,-1.9185,-1.9062,-1.87,-1.8221,-1.7325,-1.7507,-1.8525,-1.9249,-1.9424,-1.6685,-1.5198,-0.9819,-0.9819,-0.9819,-0.9819,-0.9819,-0.9819,-0.9819,-0.9819,-0.9819,-0.9819,-0.9819,-0.9819,-0.9819,-0.9819,-0.9819,-0.9819,-0.9819,-0.9819,-0.9819,-0.9819,-0.9819,-0.9768,-0.9693,-0.968,-0.9625,-0.9527,-0.9473,-0.9456,-0.9449,-0.9405,-0.9381,-0.9378,-0.9381,-0.9388,-0.9296,-0.9282,-0.9174,-0.9096,-0.9083,-0.9133,-0.9205,-0.9133,-0.9127,-0.9255,-0.913,-0.9032,-0.8892,-0.8937,-0.8908,-0.8998,-0.9008,-0.9028,-0.9086,-0.9171,-0.9286,-0.9299,-0.9371,-0.9452,-0.9466,-0.9496,-0.9571,-0.9663,-1.0617,-1.1316,-1.1426,-1.1434,-1.1615,-1.1736,-1.1314,-1.066,-1.1736,-1.387,-1.4713,-1.3944,-1.5908,-1.7155,-1.5725,-1.5897,-1.6197,-1.5891,-1.3989,-1.2513,-1.2153,-1.1679,-1.1438,-1.1438,-1.2453,-1.2453,-1.1675,-1.1378,-1.1137,-1.0061,-1.0001,-1.0119,-1.024,-1.1736,-1.2453,-1.2633,-1.3586,-1.4535,-1.5483,-1.6133,-1.7085,-1.8227,-1.8765,-1.8583,-1.8279,-1.7864,-1.7741,-1.7747,-1.8467,-1.9366,-1.835,-1.6744,-1.5375,-0.9819,-0.9819,-0.9819,-0.9819,-0.9819,-0.9819,-0.9819,-0.9819,-0.9819,-0.9819,-0.9819,-0.9819,-0.9819,-0.9819,-0.9819,-0.9819,-0.9819,-0.9819,-0.9819,-0.9819,-0.9819,-0.9819,-0.9802,-0.9798,-0.9795,-0.9774,-0.9669,-0.9608,-0.9602,-0.949,-0.9425,-0.9405,-0.9425,-0.9422,-0.9384,-0.9381,-0.9378,-0.9344,-0.9334,-0.9357,-0.9378,-0.9354,-0.9354,-0.9378,-0.9361,-0.9228,-0.8974,-0.8964,-0.9035,-0.9193,-0.9214,-0.9286,-0.9327,-0.9371,-0.9381,-0.9405,-0.9527,-0.9605,-0.9625,-0.972,-0.9774,-0.9795,-0.9869,-1.0041,-1.0112,-1.024,-1.0838,-1.1856,-1.2337,-1.2753,-1.4183,-1.5548,-1.4945,-1.1197,-1.3526,-1.4718,-1.3347,-1.3765,-1.4604,-1.4421,-1.3048,-1.2277,-1.1856,-1.0959,-1.0179,-1.0179,-1.024,-1.0418,-1.024,-1.0179,-0.994,-0.9822,-0.9819,-0.9819,-0.9819,-0.9879,-0.994,-1.0179,-1.1434,-1.2569,-1.3581,-1.4411,-1.566,-1.6856,-1.8169,-1.8163,-1.8344,-1.8046,-1.8402,-1.8525,-1.9185,-1.9307,-1.8409,-1.7155,-1.5435,-0.9819,-0.9819,-0.9819,-0.9819,-0.9819,-0.9819,-0.9819,-0.9819,-0.9819,-0.9819,-0.9819,-0.9819,-0.9819,-0.9819,-0.9819,-0.9819,-0.9819,-0.9819,-0.9819,-0.9819,-0.9819,-0.9819,-0.9819,-0.9819,-0.9819,-0.9815,-0.9778,-0.9754,-0.9741,-0.9696,-0.9686,-0.9683,-0.968,-0.9629,-0.954,-0.9537,-0.9493,-0.9391,-0.9381,-0.9429,-0.9513,-0.9435,-0.9432,-0.9517,-0.9435,-0.933,-0.9252,-0.9242,-0.9266,-0.931,-0.931,-0.9334,-0.9391,-0.9483,-0.9534,-0.9554,-0.9673,-0.9754,-0.9758,-0.9788,-0.9819,-0.9819,-0.9819,-0.9819,-0.994,-1.0778,-1.1559,-1.2333,-1.3172,-1.4128,-1.4599,-1.5015,-1.4237,-1.1736,-1.4297,-1.4891,-1.2689,-1.3467,-1.3885,-1.3112,-1.2513,-1.1796,-1.0838,-0.994,-0.9819,-0.9819,-0.9819,-0.9819,-0.9819,-0.9819,-0.9819,-0.9819,-0.9819,-0.9819,-0.9819,-0.9819,-0.9819,-0.9819,-1.0479,-1.1197,-1.2093,-1.3108,-1.4297,-1.5725,-1.7032,-1.7864,-1.8104,-1.8286,-1.8525,-1.8706,-1.8765,-1.8887,-1.8946,-1.7572,-1.5435,-0.9819,-0.9819,-0.9819,-0.9819,-0.9819,-0.9819,-0.9819,-0.9819,-0.9819,-0.9819,-0.9819,-0.9819,-0.9819,-0.9819,-0.9819,-0.9819,-0.9819,-0.9819,-0.9819,-0.9819,-0.9819,-0.9819,-0.9819,-0.9819,-0.9819,-0.9819,-0.9819,-0.9819,-0.9819,-0.9819,-0.9819,-0.9819,-0.9819,-0.9778,-0.9696,-0.9686,-0.9632,-0.9554,-0.9547,-0.9591,-0.9646,-0.9591,-0.9588,-0.9663,-0.9595,-0.9551,-0.9547,-0.9544,-0.952,-0.9486,-0.9513,-0.9544,-0.9554,-0.9635,-0.969,-0.9707,-0.9764,-0.9819,-0.9819,-0.9815,-0.9819,-0.9819,-0.9819,-0.9819,-1.0001,-1.0899,-1.1555,-1.3108,-1.3944,-1.5079,-1.609,-1.579,-1.4837,-1.3287,-1.4118,-1.4059,-1.1972,-1.2153,-1.2749,-1.2093,-1.1675,-1.114,-1.0842,-1.0001,-0.9879,-0.9819,-0.9819,-0.9819,-0.9819,-0.9819,-0.9819,-0.9819,-0.9819,-0.9819,-0.9819,-0.9819,-0.9819,-0.9819,-0.994,-1.0422,-1.102,-1.2093,-1.3287,-1.5128,-1.6674,-1.7513,-1.7812,-1.7923,-1.804,-1.8221,-1.859,-1.8525,-1.835,-1.6503,-1.4545,-0.9819,-0.9819,-0.9819,-0.9819,-0.9819,-0.9819,-0.9819,-0.9819,-0.9819,-0.9819,-0.9819,-0.9819,-0.9819,-0.9819,-0.9819,-0.9819,-0.9819,-0.9819,-0.9819,-0.9819,-0.9819,-0.9819,-0.9819,-0.9819,-0.9819,-0.9819,-0.9819,-0.9819,-0.9819,-0.9819,-0.9819,-0.9819,-0.9819,-0.9819,-0.9798,-0.9815,-0.9798,-0.9778,-0.9791,-0.9798,-0.9805,-0.9805,-0.9802,-0.9808,-0.9795,-0.9785,-0.9778,-0.9771,-0.9734,-0.9656,-0.9727,-0.9774,-0.9805,-0.9819,-0.9808,-0.9802,-0.9819,-0.9819,-0.9819,-0.9819,-0.9819,-0.9819,-0.9819,-0.9819,-0.9879,-1.0297,-1.1615,-1.4004,-1.4718,-1.5967,-1.787,-1.7624,-1.6074,-1.448,-1.3108,-1.1675,-1.0358,-1.0297,-1.108,-1.1796,-1.102,-1.0361,-1.1499,-1.0479,-0.994,-0.9819,-0.9819,-0.9819,-0.9819,-0.9819,-0.9819,-0.9819,-0.9819,-0.9819,-0.9819,-0.9819,-0.9819,-0.9819,-0.9819,-1.0001,-1.0243,-1.1137,-1.2273,-1.4118,-1.5483,-1.6503,-1.7455,-1.7507,-1.8104,-1.8823,-1.8823,-1.8409,-1.7331,-1.573,-1.4123,-0.9819,-0.9819,-0.9819,-0.9819,-0.9819,-0.9819,-0.9819,-0.9819,-0.9819,-0.9819,-0.9819,-0.9819,-0.9819,-0.9819,-0.9819,-0.9819,-0.9819,-0.9819,-0.9819,-0.9819,-0.9819,-0.9819,-0.9819,-0.9819,-0.9819,-0.9819,-0.9819,-0.9819,-0.9819,-0.9819,-0.9819,-0.9819,-0.9819,-0.9819,-0.9819,-0.9819,-0.9819,-0.9819,-0.9819,-0.9819,-0.9819,-0.9819,-0.9819,-0.9819,-0.9819,-0.9819,-0.9819,-0.9819,-0.9808,-0.9774,-0.9795,-0.9819,-0.9819,-0.9819,-0.9819,-0.9819,-0.9819,-0.9819,-0.9819,-0.9819,-0.9819,-0.9819,-0.9819,-0.9819,-0.9822,-1.0899,-1.2453,-1.4421,-1.5553,-1.655,-1.7384,-1.7144,-1.566,-1.3228,-1.1495,-1.0781,-1.1257,-1.1615,-1.1796,-1.2032,-1.1675,-1.1197,-1.0539,-1.0179,-0.9819,-0.9819,-0.9819,-0.9819,-0.9819,-0.9819,-0.9819,-0.9819,-0.9819,-0.9819,-0.9819,-0.9819,-0.9819,-0.9819,-0.9819,-0.9819,-0.994,-1.024,-1.1318,-1.2689,-1.3103,-1.3999,-1.5961,-1.7085,-1.8104,-1.835,-1.8648,-1.7987,-1.7032,-1.5601,-1.3939,-0.9819,-0.9819,-0.9819,-0.9819,-0.9819,-0.9819,-0.9819,-0.9819,-0.9819,-0.9819,-0.9819,-0.9819,-0.9819,-0.9819,-0.9819,-0.9819,-0.9819,-0.9819,-0.9819,-0.9819,-0.9819,-0.9819,-0.9819,-0.9819,-0.9819,-0.9819,-0.9819,-0.9819,-0.9819,-0.9819,-0.9819,-0.9819,-0.9819,-0.9819,-0.9819,-0.9819,-0.9819,-0.9819,-0.9819,-0.9819,-0.9819,-0.9819,-0.9819,-0.9819,-0.9819,-0.9819,-0.9819,-0.9819,-0.9819,-0.9819,-0.9819,-0.9819,-0.9819,-0.9819,-0.9819,-0.9819,-0.9819,-0.9819,-0.9819,-0.9819,-0.9819,-0.9819,-0.9819,-0.9819,-0.994,-1.0781,-1.1856,-1.3412,-1.447,-1.5246,-1.5725,-1.5424,-1.382,-1.1615,-1.0361,-1.0179,-1.1137,-1.1076,-1.1197,-1.1197,-1.1137,-1.0899,-0.9879,-0.9819,-0.9819,-0.9819,-0.9819,-0.9819,-0.9819,-0.9819,-0.9819,-0.9819,-0.9819,-0.9819,-0.9819,-0.9819,-0.9819,-0.9819,-0.9819,-0.9819,-0.9819,-0.9819,-1.0721,-1.1559,-1.1378,-1.1972,-1.4351,-1.5843,-1.5607,-1.6085,-1.7038,-1.6856,-1.5483,-1.5004,-1.3402,-0.9819,-0.9819,-0.9819,-0.9819,-0.9819,-0.9819,-0.9819,-0.9819,-0.9819,-0.9819,-0.9819,-0.9819,-0.9819,-0.9819,-0.9819,-0.9819,-0.9819,-0.9819,-0.9819,-0.9819,-0.9819,-0.9819,-0.9819,-0.9819,-0.9819,-0.9819,-0.9819,-0.9819,-0.9819,-0.9819,-0.9819,-0.9819,-0.9819,-0.9819,-0.9819,-0.9819,-0.9819,-0.9819,-0.9819,-0.9819,-0.9819,-0.9819,-0.9819,-0.9819,-0.9819,-0.9819,-0.9819,-0.9819,-0.9819,-0.9819,-0.9819,-0.9819,-0.9819,-0.9819,-0.9819,-0.9819,-0.9819,-0.9819,-0.9819,-0.9819,-0.9819,-0.9819,-0.9819,-0.9819,-0.9819,-1.0061,-1.0721,-1.2397,-1.2213,-1.3168,-1.3825,-1.2988,-1.1675,-1.0301,-0.9822,-0.9819,-0.9819,-0.9819,-0.9819,-0.9819,-0.9822,-0.9822,-0.9819,-0.9819,-0.9819,-0.9819,-0.9819,-0.9819,-0.9819,-0.9819,-0.9819,-0.9819,-0.9819,-0.9819,-0.9819,-0.9819,-0.9819,-0.9819,-0.9819,-0.9819,-0.9819,-1.0001,-1.06,-1.0959,-1.0721,-1.1559,-1.3467,-1.4004,-1.3646,-1.4361,-1.579,-1.448,-1.2988,-1.3283,-1.2393,-0.9819,-0.9819,-0.9819,-0.9819,-0.9819,-0.9819,-0.9819,-0.9819,-0.9819,-0.9819,-0.9819,-0.9819,-0.9819,-0.9819,-0.9819,-0.9819,-0.9819,-0.9819,-0.9819,-0.9819,-0.9819,-0.9819,-0.9819,-0.9819,-0.9819,-0.9819,-0.9819,-0.9819,-0.9819,-0.9819,-0.9819,-0.9819,-0.9819,-0.9819,-0.9819,-0.9819,-0.9819,-0.9819,-0.9819,-0.9819,-0.9819,-0.9819,-0.9819,-0.9819,-0.9819,-0.9819,-0.9819,-0.9819,-0.9819,-0.9819,-0.9819,-0.9819,-0.9819,-0.9819,-0.9819,-0.9819,-0.9819,-0.9819,-0.9819,-0.9819,-0.9819,-0.9819,-0.9819,-0.9819,-0.9819,-0.9819,-1.0539,-1.1796,-1.2213,-1.2273,-1.2513,-1.1257,-1.0422,-0.994,-0.9819,-0.9819,-0.9819,-0.9819,-0.9819,-0.9819,-0.9819,-0.9819,-0.9819,-0.9819,-0.9819,-0.9819,-0.9819,-0.9819,-0.9819,-0.9819,-0.9819,-0.9819,-0.9819,-0.9819,-0.9819,-0.9819,-0.9819,-0.9819,-0.9819,-0.9819,-0.9819,-0.9819,-1.0301,-1.0301,-1.0061,-1.1257,-1.2573,-1.2753,-1.2457,-1.3531,-1.4247,-1.3112,-1.2213,-1.2093,-1.1736,-0.9819,-0.9819,-0.9819,-0.9819,-0.9819,-0.9819,-0.9819,-0.9819,-0.9819,-0.9819,-0.9819,-0.9819,-0.9819,-0.9819,-0.9819,-0.9819,-0.9819,-0.9819,-0.9819,-0.9819,-0.9819,-0.9819,-0.9819,-0.9819,-0.9819,-0.9819,-0.9819,-0.9819,-0.9819,-0.9819,-0.9819,-0.9819,-0.9819,-0.9819,-0.9819,-0.9819,-0.9819,-0.9819,-0.9819,-0.9819,-0.9819,-0.9819,-0.9819,-0.9819,-0.9819,-0.9819,-0.9819,-0.9819,-0.9819,-0.9819,-0.9819,-0.9819,-0.9819,-0.9819,-0.9819,-0.9819,-0.9819,-0.9819,-0.9819,-0.9819,-0.9819,-0.9819,-0.9819,-0.9819,-0.9819,-0.9819,-1.0119,-1.0838,-1.108,-1.108,-1.1016,-1.0539,-0.9819,-0.9819,-0.9819,-0.9819,-0.9819,-0.9819,-0.9819,-0.9819,-0.9819,-0.9819,-0.9819,-0.9819,-0.9819,-0.9819,-0.9819,-0.9819,-0.9819,-0.9819,-0.9819,-0.9819,-0.9819,-0.9819,-0.9819,-0.9819,-0.9819,-0.9819,-0.9819,-0.9819,-0.9819,-0.9819,-0.9819,-0.9822,-0.9822,-1.0001,-1.102,-1.114,-1.1322,-1.1559,-1.1796,-1.1675,-1.1495,-1.1016,-1.0717,-0.9819,-0.9819,-0.9819,-0.9819,-0.9819,-0.9819,-0.9819,-0.9819,-0.9819,-0.9819,-0.9819,-0.9819,-0.9819,-0.9819,-0.9819,-0.9819,-0.9819,-0.9819,-0.9819,-0.9819,-0.9819,-0.9819,-0.9819,-0.9819,-0.9819,-0.9819,-0.9819,-0.9819,-0.9819,-0.9819,-0.9819,-0.9819,-0.9819,-0.9819,-0.9819,-0.9819,-0.9819,-0.9819,-0.9819,-0.9819,-0.9819,-0.9819,-0.9819,-0.9819,-0.9819,-0.9819,-0.9819,-0.9819,-0.9819,-0.9819,-0.9819,-0.9819,-0.9819,-0.9819,-0.9819,-0.9819,-0.9819,-0.9819,-0.9819,-0.9819,-0.9819,-0.9819,-0.9819,-0.9819,-0.9819,-0.9819,-0.9879,-0.9879,-1.0001,-1.0001,-0.9822,-0.9819,-0.9819,-0.9819,-0.9819,-0.9819,-0.9819,-0.9819,-0.9819,-0.9819,-0.9819,-0.9819,-0.9819,-0.9819,-0.9819,-0.9819,-0.9819,-0.9819,-0.9819,-0.9819,-0.9819,-0.9819,-0.9819,-0.9819,-0.9819,-0.9819,-0.9819,-0.9819,-0.9819,-0.9819,-0.9819,-0.9819,-0.9819,-0.9819,-0.9819,-0.994,-1.0001,-1.0301,-1.024,-0.9819,-1.0001,-1.0539,-1.0358,-0.9879,-0.9822,-0.9819,-0.9819,-0.9819,-0.9822,-0.9822,-0.9822,-0.9829,-0.9819,-0.9825,-0.9819,-0.9819,-0.9819,-0.9819,-0.9819,-0.9819,-0.9819,-0.9819,-0.9819,-0.9819,-0.9819,-0.9819,-0.9819,-0.9819,-0.9819,-0.9819,-0.9819,-0.9819,-0.9819,-0.9819,-0.9819,-0.9819,-0.9819,-0.9819,-0.9819,-0.9819,-0.9819,-0.9819,-0.9819,-0.9819,-0.9819,-0.9819,-0.9819,-0.9819,-0.9819,-0.9819,-0.9819,-0.9819,-0.9819,-0.9819,-0.9819,-0.9819,-0.9819,-0.9819,-0.9819,-0.9819,-0.9819,-0.9819,-0.9819,-0.9819,-0.9819,-0.9819,-0.9819,-0.9819,-0.9819,-0.9819,-0.9819,-0.9819,-0.9819,-0.9819,-0.9819,-0.9819,-0.9819,-0.9819,-0.9819,-0.9819,-0.9819,-0.9819,-0.9819,-0.9819,-0.9819,-0.9819,-0.9819,-0.9819,-0.9819,-0.9819,-0.9819,-0.9819,-0.9819,-0.9819,-0.9819,-0.9819,-0.9819,-0.9819,-0.9819,-0.9819,-0.9819,-0.9819,-0.9819,-0.9819,-0.9819,-0.9819,-0.9819,-0.9819,-0.9819,-0.9819,-0.9819,-0.9819,-0.9819,-0.9819,-0.9819,-0.9819,-0.9819,-0.9819,-0.9819,-0.9819,-0.9819,-0.9768,-0.9842,-0.9876,-0.9876,-0.9876,-0.9876,-0.9862,-0.9859,-0.9819,-0.9819,-0.9819,-0.9819,-0.9819,-0.9819,-0.9819,-0.9819,-0.9819,-0.9819,-0.9819,-0.9819,-0.9819,-0.9819,-0.9819,-0.9819,-0.9819,-0.9819,-0.9819,-0.9819,-0.9819,-0.9819,-0.9819,-0.9819,-0.9819,-0.9819,-0.9819,-0.9819,-0.9819,-0.9819,-0.9819,-0.9819,-0.9819,-0.9819,-0.9819,-0.9819,-0.9819,-0.9819,-0.9819,-0.9819,-0.9819,-0.9819,-0.9819,-0.9819,-0.9819,-0.9819,-0.9819,-0.9819,-0.9819,-0.9819,-0.9819,-0.9819,-0.9819,-0.9819,-0.9819,-0.9819,-0.9819,-0.9819,-0.9819,-0.9819,-0.9819,-0.9819,-0.9819,-0.9819,-0.9819,-0.9819,-0.9819,-0.9819,-0.9819,-0.9819,-0.9819,-0.9819,-0.9819,-0.9819,-0.9819,-0.9819,-0.9819,-0.9819,-0.9819,-0.9819,-0.9819,-0.9819,-0.9819,-0.9819,-0.9819,-0.9819,-0.9819,-0.9819,-0.9819,-0.9819,-0.9819,-0.9819,-0.9819,-0.9819,-0.9819,-0.9819,-0.9819,-0.9819,-0.9819,-0.9819,-0.9819,-0.9819,-0.9819,-0.9819,-0.9819,-0.9819,-0.9819,-0.9832,-0.9923,-0.997,-0.995,-0.9974,-0.9963,-0.992,-0.9873,-0.9819,-0.9819,-0.9819,-0.9819,-0.9819,-0.9819,-0.9819,-0.9819,-0.9819,-0.9819,-0.9819,-0.9819,-0.9819,-0.9819,-0.9819,-0.9819,-0.9819,-0.9819,-0.9819,-0.9819,-0.9819,-0.9819,-0.9819,-0.9819,-0.9819,-0.9819,-0.9819,-0.9819,-0.9819,-0.9819,-0.9819,-0.9819,-0.9819,-0.9819,-0.9819,-0.9819,-0.9819,-0.9819,-0.9819,-0.9819,-0.9819,-0.9819,-0.9819,-0.9819,-0.9819,-0.9819,-0.9819,-0.9819,-0.9819,-0.9819,-0.9819,-0.9819,-0.9819,-0.9819,-0.9819,-0.9819,-0.9819,-0.9819,-0.9819,-0.9819,-0.9819,-0.9819,-0.9819,-0.9819,-0.9819,-0.9819,-0.9819,-0.9819,-0.9819,-0.9819,-0.9819,-0.9819,-0.9819,-0.9819,-0.9819,-0.9819,-0.9819,-0.9819,-0.9819,-0.9819,-0.9819,-0.9819,-0.9819,-0.9819,-0.9819,-0.9819,-0.9819,-0.9819,-0.9819,-0.9819,-0.9819,-0.9819,-0.9819,-0.9819,-0.9819,-0.9819,-0.9819,-0.9819,-0.9819,-0.9819,-0.9819,-0.9819,-0.9819,-0.9819,-0.9819,-0.9819,-0.9819,-0.9771,-0.9926,-0.9909,-0.9893,-0.9943,-0.9978,-0.9812,-0.9842,-0.9819,-0.9819,-0.9819,-0.9819,-0.9819,-0.9819,-0.9819,-0.9819,-0.9819,-0.9819,-0.9819,-0.9819,-0.9819,-0.9819,-0.9819,-0.9819,-0.9819,-0.9819,-0.9819,-0.9819,-0.9819,-0.9819,-0.9819,-0.9819,-0.9819,-0.9819,-0.9819,-0.9819,-0.9819,-0.9819,-0.9819,-0.9819,-0.9819,-0.9819,-0.9819,-0.9819,-0.9819,-0.9819,-0.9819,-0.9819,-0.9819,-0.9819,-0.9819,-0.9819,-0.9819,-0.9819,-0.9819,-0.9819,-0.9819,-0.9819,-0.9819,-0.9819,-0.9819,-0.9819,-0.9819,-0.9819,-0.9819,-0.9819,-0.9819,-0.9819,-0.9819,-0.9819,-0.9819,-0.9819,-0.9819,-0.9819,-0.9819,-0.9819,-0.9819,-0.9819,-0.9819,-0.9819,-0.9819,-0.9819,-0.9819,-0.9819,-0.9819,-0.9819,-0.9819,-0.9819,-0.9819,-0.9819,-0.9819,-0.9819,-0.9819,-0.9819,-0.9819,-0.9819,-0.9819,-0.9819,-0.9819,-0.9819,-0.9819,-0.9819,-0.9819,-0.9819,-0.9819,-0.9819,-0.9819,-0.9819,-0.9819,-0.9819,-0.9819,-0.9819,-0.9819,-0.9819,-0.9819,-0.9842,-1.0083,-1.0144,-1.0097,-1.0154,-1.0144,-1.0053,-0.9897,-0.9819,-0.9819,-0.9819,-0.9819,-0.9819,-0.9819,-0.9819,-0.9819,-0.9819,-0.9819,-0.9819,-0.9819,-0.9819,-0.9819,-0.9819,-0.9819,-0.9819,-0.9819,-0.9819,-0.9819,-0.9819,-0.9819,-0.9819,-0.9819,-0.9819,-0.9819,-0.9819,-0.9819,-0.9819,-0.9819,-0.9819,-0.9819,-0.9819,-0.9819,-0.9819,-0.9819,-0.9819,-0.9819,-0.9819,-0.9819,-0.9819,-0.9819,-0.9819,-0.9819,-0.9819,-0.9819,-0.9819,-0.9819,-0.9819,-0.9819,-0.9819,-0.9819,-0.9819,-0.9819,-0.9819,-0.9819,-0.9819,-0.9819,-0.9819,-0.9819,-0.9819,-0.9819,-0.9819,-0.9819,-0.9819,-0.9819,-0.9819,-0.9819,-0.9819,-0.9819,-0.9819,-0.9819,-0.9819,-0.9819,-0.9819,-0.9819,-0.9819,-0.9819,-0.9819,-0.9819,-0.9819,-0.9819,-0.9819,-0.9819,-0.9819,-0.9819,-0.9819,-0.9819,-0.9819,-0.9819,-0.9819,-0.9819,-0.9819,-0.9819,-0.9819,-0.9819,-0.9819,-0.9819,-0.9819,-0.9819,-0.9819,-0.9819,-0.9819,-0.9819,-0.9819,-0.9819,-0.9819,-0.9852,-1.0154,-1.0239,-1.0178,-1.0243,-1.0226,-1.0127,-0.9917,-0.9819,-0.9819,-0.9819,-0.9819,-0.9819,-0.9819,-0.9819,-0.9819,-0.9819,-0.9819,-0.9819,-0.9819,-0.9819,-0.9819,-0.9819,-0.9819,-0.9819,-0.9819,-0.9819,-0.9819,-0.9819,-0.9819,-0.9819,-0.9819,-0.9819,-0.9819,-0.9819,-0.9819,-0.9819,-0.9819,-0.9819,-0.9819,-0.9819,-0.9819,-0.9819,-0.9819,-0.9819,-0.9819,-0.9819,-0.9819,-0.9819,-0.9819,-0.9819,-0.9819,-0.9819,-0.9819,-0.9819,-0.9819,-0.9819,-0.9819,-0.9819,-0.9819,-0.9819,-0.9819,-0.9819,-0.9819,-0.9819,-0.9819,-0.9819,-0.9819,-0.9819,-0.9819,-0.9819,-0.9819,-0.9819,-0.9819,-0.9819,-0.9819,-0.9819,-0.9819,-0.9819,-0.9819,-0.9819,-0.9819,-0.9819,-0.9819,-0.9819,-0.9819,-0.9819,-0.9819,-0.9819,-0.9819,-0.9819,-0.9819,-0.9819,-0.9819,-0.9819,-0.9819,-0.9819,-0.9819,-0.9819,-0.9819,-0.9819,-0.9819,-0.9819,-0.9819,-0.9819,-0.9819,-0.9819,-0.9819,-0.9819,-0.9819,-0.9819,-0.9819,-0.9819,-0.9819,-0.9819,-0.9846,-1.0151,-1.0131,-0.991,-1.0161,-1.0124,-0.9937,-0.9859,-0.9768,-0.9819,-0.9819,-0.9819,-0.9819,-0.9819,-0.9819,-0.9819,-0.9819,-0.9819,-0.9819,-0.9819,-0.9819,-0.9819,-0.9819,-0.9819,-0.9819,-0.9819,-0.9819,-0.9819,-0.9819,-0.9819,-0.9819,-0.9819,-0.9819,-0.9819,-0.9819,-0.9819,-0.9819,-0.9819,-0.9819,-0.9819,-0.9819,-0.9819,-0.9819,-0.9819,-0.9819,-0.9819,-0.9819,-0.9819,-0.9819,-0.9819,-0.9819,-0.9819,-0.9819,-0.9819,-0.9819,-0.9819,-0.9819,-0.9819,-0.9819,-0.9819,-0.9819,-0.9819,-0.9819,-0.9819,-0.9819,-0.9819,-0.9819,-0.9819,-0.9819,-0.9819,-0.9819,-0.9819,-0.9819,-0.9819,-0.9819,-0.9819,-0.9819,-0.9819,-0.9819,-0.9819,-0.9819,-0.9819,-0.9819,-0.9819,-0.9819,-0.9819,-0.9819,-0.9819,-0.9819,-0.9819,-0.9819,-0.9819,-0.9819,-0.9819,-0.9819,-0.9819,-0.9819,-0.9819,-0.9819,-0.9819,-0.9819,-0.9819,-0.9819,-0.9819,-0.9819,-0.9819,-0.9819,-0.9819,-0.9819,-0.9819,-0.9819,-0.9819,-0.9819,-0.9819,-0.9819,-0.9849,-1.0151,-1.0215,-1.0117,-1.0321,-1.0293,-1.0107,-1.0002,-0.9839,-0.9825,-0.9819,-0.9819,-0.9819,-0.9819,-0.9819,-0.9819,-0.9819,-0.9819,-0.9819,-0.9819,-0.9819,-0.9819,-0.9819,-0.9819,-0.9819,-0.9819,-0.9819,-0.9819,-0.9819,-0.9819,-0.9819,-0.9819,-0.9819,-0.9819,-0.9819,-0.9819,-0.9819,-0.9819,-0.9819,-0.9819,-0.9819,-0.9819,-0.9819,-0.9819,-0.9819,-0.9819,-0.9819,-0.9819,-0.9819,-0.9819,-0.9819,-0.9819,-0.9819,-0.9819,-0.9819,-0.9819,-0.9819,-0.9819,-0.9819,-0.9819,-0.9819,-0.9819,-0.9819,-0.9819,-0.9819,-0.9819,-0.9819,-0.9819,-0.9819,-0.9819,-0.9819,-0.9819,-0.9819,-0.9819,-0.9819,-0.9819,-0.9819,-0.9819,-0.9819,-0.9819,-0.9819,-0.9819,-0.9819,-0.9819,-0.9819,-0.9819,-0.9819,-0.9819,-0.9819,-0.9819,-0.9819,-0.9819,-0.9819,-0.9819,-0.9819,-0.9819,-0.9819,-0.9819,-0.9819,-0.9819,-0.9819,-0.9819,-0.9819,-0.9819,-0.9819,-0.9819,-0.9819,-0.9819,-0.9819,-0.9819,-0.9819,-0.9819,-0.9819,-0.9819,-0.9849,-0.992,-1.0171,-1.0253,-1.0239,-1.0412,-1.0412,-1.0276,-1.0164,-1.0029,-0.9829,-0.989,-0.9856,-0.9832,-0.9819,-0.9819,-0.9819,-0.9819,-0.9819,-0.9819,-0.9819,-0.9819,-0.9819,-0.9819,-0.9819,-0.9819,-0.9819,-0.9819,-0.9819,-0.9819,-0.9819,-0.9819,-0.9819,-0.9819,-0.9819,-0.9819,-0.9819,-0.9819,-0.9819,-0.9819,-0.9819,-0.9819,-0.9819,-0.9819,-0.9819,-0.9819,-0.9819,-0.9819,-0.9819,-0.9819,-0.9819,-0.9819,-0.9819,-0.9819,-0.9819,-0.9819,-0.9819,-0.9819,-0.9819,-0.9819,-0.9819,-0.9819,-0.9819,-0.9819,-0.9819,-0.9819,-0.9819,-0.9819,-0.9819,-0.9819,-0.9819,-0.9819,-0.9819,-0.9819,-0.9819,-0.9819,-0.9819,-0.9819,-0.9819,-0.9819,-0.9819,-0.9819,-0.9819,-0.9819,-0.9819,-0.9819,-0.9819,-0.9819,-0.9819,-0.9819,-0.9819,-0.9819,-0.9819,-0.9819,-0.9819,-0.9819,-0.9819,-0.9819,-0.9819,-0.9819,-0.9819,-0.9819,-0.9819,-0.9819,-0.9819,-0.9819,-0.9819,-0.9819,-0.9819,-0.9819,-0.9819,-0.9819,-0.9819,-0.9819,-0.9819,-0.9907,-0.9994,-1.0215,-1.0202,-1.0137,-1.0375,-1.0419,-1.0307,-1.0266,-1.0164,-0.9967,-0.9963,-0.9883,-0.9849,-0.9819,-0.9819,-0.9819,-0.9819,-0.9819,-0.9819,-0.9819,-0.9819,-0.9819,-0.9819,-0.9819,-0.9819,-0.9819,-0.9819,-0.9819,-0.9819,-0.9819,-0.9819,-0.9819,-0.9819,-0.9819,-0.9819,-0.9819,-0.9819,-0.9819,-0.9819,-0.9819,-0.9819,-0.9819,-0.9819,-0.9819,-0.9819,-0.9819,-0.9819,-0.9819,-0.9819,-0.9819,-0.9819,-0.9819,-0.9819,-0.9819,-0.9819,-0.9819,-0.9819,-0.9819,-0.9819,-0.9819,-0.9819,-0.9819,-0.9819,-0.9819,-0.9819,-0.9819,-0.9819,-0.9819,-0.9819,-0.9819,-0.9819,-0.9819,-0.9819,-0.9819,-0.9819,-0.9819,-0.9819,-0.9819,-0.9819,-0.9819,-0.9819,-0.9819,-0.9819,-0.9819,-0.9819,-0.9819,-0.9819,-0.9819,-0.9819,-0.9819,-0.9819,-0.9819,-0.9819,-0.9819,-0.9819,-0.9819,-0.9819,-0.9819,-0.9819,-0.9819,-0.9819,-0.9819,-0.9819,-0.9819,-0.9819,-0.9819,-0.9819,-0.9819,-0.9819,-0.9819,-0.9819,-0.9819,-0.9819,-0.9819,-0.9849,-0.9997,-1.0212,-1.0304,-1.0365,-1.0555,-1.0561,-1.0419,-1.0317,-1.0195,-1.0011,-0.999,-0.9903,-0.9859,-0.9829,-0.9829,-0.9829,-0.9819,-0.9819,-0.9825,-0.9822,-0.9819,-0.9819,-0.9819,-0.9819,-0.9819,-0.9819,-0.9819,-0.9819,-0.9819,-0.9819,-0.9819,-0.9819,-0.9819,-0.9819,-0.9819,-0.9819,-0.9819,-0.9819,-0.9819,-0.9819,-0.9819,-0.9819,-0.9819,-0.9819,-0.9819,-0.9819,-0.9819,-0.9819,-0.9819,-0.9819,-0.9819,-0.9819,-0.9819,-0.9819,-0.9819,-0.9819,-0.9819,-0.9819,-0.9819,-0.9819,-0.9819,-0.9819,-0.9819,-0.9819,-0.9819,-0.9819,-0.9819,-0.9819,-0.9819,-0.9819,-0.9819,-0.9819,-0.9819,-0.9819,-0.9819,-0.9819,-0.9819,-0.9819,-0.9819,-0.9819,-0.9819,-0.9819,-0.9819,-0.9819,-0.9819,-0.9819,-0.9819,-0.9819,-0.9819,-0.9819,-0.9819,-0.9819,-0.9819,-0.9819,-0.9819,-0.9819,-0.9819,-0.9819,-0.9819,-0.9819,-0.9819,-0.9819,-0.9819,-0.9819,-0.9819,-0.9819,-0.9819,-0.9819,-0.9819,-0.9819,-0.9819,-0.9819,-0.9819,-0.9819,-0.9944,-1.0134,-1.0239,-1.0395,-1.0568,-1.0677,-1.066,-1.0561,-1.047,-1.0344,-1.0222,-1.0158,-1.0049,-0.9941,-0.9839,-0.9897,-0.99,-0.99,-0.99,-0.9829,-0.9836,-0.9825,-0.9819,-0.9819,-0.9819,-0.9819,-0.9819,-0.9819,-0.9819,-0.9819,-0.9819,-0.9819,-0.9819,-0.9819,-0.9819,-0.9819,-0.9819,-0.9819,-0.9819,-0.9819,-0.9819,-0.9819,-0.9819,-0.9819,-0.9819,-0.9819,-0.9819,-0.9819,-0.9819,-0.9819,-0.9819,-0.9819,-0.9819,-0.9819,-0.9819,-0.9819,-0.9819,-0.9819,-0.9819,-0.9819,-0.9819,-0.9819,-0.9819,-0.9819,-0.9819,-0.9819,-0.9819,-0.9819,-0.9819,-0.9819,-0.9819,-0.9819,-0.9819,-0.9819,-0.9819,-0.9819,-0.9819,-0.9819,-0.9819,-0.9819,-0.9819,-0.9819,-0.9819,-0.9819,-0.9819,-0.9819,-0.9819,-0.9819,-0.9819,-0.9819,-0.9819,-0.9819,-0.9819,-0.9819,-0.9819,-0.9819,-0.9819,-0.9819,-0.9819,-0.9819,-0.9819,-0.9819,-0.9819,-0.9819,-0.9819,-0.9819,-0.9819,-0.9819,-0.9819,-0.9819,-0.9819,-0.9819,-0.9819,-0.9819,-0.9819,-0.9995,-1.0256,-1.0273,-1.0432,-1.0677,-1.0707,-1.0714,-1.0714,-1.0711,-1.0616,-1.047,-1.0324,-1.0198,-1.008,-0.9997,-0.9994,-0.9974,-0.9977,-0.996,-0.992,-0.988,-0.9846,-0.9819,-0.9819,-0.9819,-0.9819,-0.9819,-0.9819,-0.9819,-0.9819,-0.9819,-0.9819,-0.9819,-0.9819,-0.9819,-0.9819,-0.9819,-0.9819,-0.9819,-0.9819,-0.9819,-0.9819,-0.9819,-0.9819,-0.9819,-0.9819,-0.9819,-0.9819,-0.9819,-0.9819,-0.9819,-0.9819,-0.9819,-0.9819,-0.9819,-0.9819,-0.9819,-0.9819,-0.9819,-0.9819,-0.9819,-0.9819,-0.9819,-0.9819,-0.9819,-0.9819,-0.9819,-0.9819,-0.9819,-0.9819,-0.9819,-0.9819,-0.9819,-0.9819,-0.9819,-0.9819,-0.9819,-0.9819,-0.9819,-0.9819,-0.9819,-0.9819,-0.9819,-0.9819,-0.9819,-0.9819,-0.9819,-0.9819,-0.9819,-0.9819,-0.9819,-0.9819,-0.9819,-0.9819,-0.9819,-0.9819,-0.9819,-0.9819,-0.9819,-0.9819,-0.9819,-0.9819,-0.9819,-0.9819,-0.9819,-0.9819,-0.9819,-0.9819,-0.9819,-0.9819,-0.9819,-0.9819,-0.9819,-0.9819,-0.9819,-0.9934,-1.011,-1.0051,-1.0287,-1.0551,-1.067,-1.0721,-1.0721,-1.0717,-1.0636,-1.0487,-1.0449,-1.0337,-1.0222,-1.0212,-1.0212,-1.0175,-1.0114,-1.0,-0.9933,-0.9856,-0.9849,-0.9819,-0.9819,-0.9819,-0.9819,-0.9819,-0.9819,-0.9819,-0.9819,-0.9819,-0.9819,-0.9819,-0.9819,-0.9819,-0.9819,-0.9819,-0.9819,-0.9819,-0.9819,-0.9819,-0.9819,-0.9819,-0.9819,-0.9819,-0.9819,-0.9819,-0.9819,-0.9819,-0.9819,-0.9819,-0.9819,-0.9819,-0.9819,-0.9819,-0.9819,-0.9819,-0.9819,-0.9819,-0.9819,-0.9819,-0.9819,-0.9819,-0.9819,-0.9819,-0.9819,-0.9819,-0.9819,-0.9819,-0.9819,-0.9819,-0.9819,-0.9819,-0.9819,-0.9819,-0.9819,-0.9819,-0.9819,-0.9819,-0.9819,-0.9819,-0.9819,-0.9819,-0.9819,-0.9819,-0.9819,-0.9819,-0.9819,-0.9819,-0.9819,-0.9819,-0.9819,-0.9819,-0.9819,-0.9819,-0.9819,-0.9819,-0.9819,-0.9819,-0.9819,-0.9819,-0.9819,-0.9819,-0.9819,-0.9819,-0.9819,-0.9819,-0.9819,-0.9819,-0.9819,-0.9819,-0.9819,-0.9819,-0.9819,-0.9819,-0.9849,-0.998,-0.999,-1.0219,-1.048,-1.0592,-1.066,-1.0711,-1.0721,-1.0663,-1.0578,-1.0517,-1.0443,-1.0375,-1.0361,-1.0361,-1.0354,-1.0297,-1.0226,-1.0117,-0.9903,-0.989,-0.9849,-0.9819,-0.9819,-0.9819,-0.9819,-0.9819,-0.9819,-0.9819,-0.9819,-0.9819,-0.9819,-0.9819,-0.9819,-0.9819,-0.9819,-0.9819,-0.9819,-0.9819,-0.9819,-0.9819,-0.9819,-0.9819,-0.9819,-0.9819,-0.9819,-0.9819,-0.9819,-0.9819,-0.9819,-0.9819,-0.9819,-0.9819,-0.9819,-0.9819,-0.9819,-0.9819,-0.9819,-0.9819,-0.9819,-0.9819,-0.9819,-0.9819,-0.9819,-0.9819,-0.9819,-0.9819,-0.9819,-0.9819,-0.9819,-0.9819,-0.9819,-0.9819,-0.9819,-0.9819,-0.9819,-0.9819,-0.9819,-0.9819,-0.9819,-0.9819,-0.9819,-0.9819,-0.9819,-0.9819,-0.9819,-0.9819,-0.9819,-0.9819,-0.9819,-0.9819,-0.9819,-0.9819,-0.9819,-0.9819,-0.9819,-0.9819,-0.9819,-0.9819,-0.9819,-0.9819,-0.9819,-0.9819,-0.9819,-0.9819,-0.9819,-0.9819,-0.9819,-0.9819,-0.9819,-0.9819,-0.9819,-0.9819,-0.9819,-0.9842,-0.9967,-0.9984,-1.0132,-1.0439,-1.048,-1.0575,-1.0697,-1.0711,-1.0717,-1.0683,-1.0575,-1.0521,-1.051,-1.0514,-1.0514,-1.0477,-1.0422,-1.0314,-1.0256,-0.9977,-0.9852,-0.9842,-0.9819,-0.9819,-0.9819,-0.9819,-0.9819,-0.9819,-0.9819,-0.9819,-0.9819,-0.9819,-0.9819,-0.9819,-0.9819,-0.965,-0.9136,-0.9538,-0.9819,-0.9819,-0.9819,-0.9819,-0.9819,-0.9819,-0.9819,-0.9819,-0.9819,-0.9819,-0.9819,-0.9819,-0.9819,-0.9819,-0.9819,-0.9819,-0.9819,-0.9819,-0.9819,-0.9819,-0.9819,-0.9819,-0.9819,-0.9819,-0.9819,-0.9819,-0.9819,-0.9819,-0.9819,-0.9819,-0.9819,-0.9819,-0.9819,-0.9819,-0.9819,-0.9819,-0.9819,-0.9819,-0.9819,-0.9819,-0.9819,-0.9819,-0.9819,-0.9819,-0.9819,-0.9819,-0.9819,-0.9819,-0.9819,-0.9819,-0.9819,-0.9819,-0.9819,-0.9819,-0.9819,-0.9819,-0.9819,-0.9819,-0.9819,-0.9819,-0.9819,-0.9819,-0.9819,-0.9819,-0.9819,-0.9819,-0.9819,-0.9819,-0.9819,-0.9819,-0.9819,-0.9819,-0.9819,-0.9819,-0.9819,-0.9819,-0.9778,-0.9886,-0.9936,-1.0034,-1.0122,-1.0399,-1.0507,-1.0558,-1.0673,-1.0714,-1.0711,-1.068,-1.0587,-1.0379,-1.0376,-1.0376,-1.0287,-0.9698,-1.0206,-1.0016,-0.979,-0.9739,-0.9768,-0.9819,-0.9765,-0.9819,-0.9819,-0.948,-0.9534,-0.9589,-0.9761,-0.9819,-0.9819,-0.9819,-0.9761,-0.9704,-0.9197,-0.8453,-0.8796,-0.9194,-0.9249,-0.9589,-0.9819,-0.9819,-0.9819,-0.9819,-0.9819,-0.9819,-0.9819,-0.9819,-0.9819,-0.9819,-0.9819,-0.9819,-0.9819,-0.9819,-0.9819,-0.9819,-0.9819,-0.9819,-0.9819,-0.9819,-0.9819,-0.9819,-0.9819,-0.9819,-0.9819,-0.9819,-0.9819,-0.9819,-0.9819,-0.9819,-0.9819,-0.9819,-0.9819,-0.9819,-0.9819,-0.9819,-0.9819,-0.9819,-0.9819,-0.9819,-0.9819,-0.9819,-0.9819,-0.9819,-0.9819,-0.9819,-0.9819,-0.9819,-0.9819,-0.9819,-0.9819,-0.9819,-0.9819,-0.9819,-0.9819,-0.9819,-0.9819,-0.9819,-0.9819,-0.9819,-0.9819,-0.9819,-0.9819,-0.9819,-0.9819,-0.9819,-0.9819,-0.9819,-0.9819,-0.9819,-0.9819,-0.9819,-0.9819,-0.9819,-0.9832,-0.9849,-0.993,-1.0011,-1.0229,-1.0365,-1.0493,-1.0585,-1.066,-1.0714,-1.0654,-1.0316,-0.9643,-0.9507,-0.8972,-0.8681,-0.8118,-0.8391,-0.8707,-0.9149,-0.9338,-0.9451,-0.9704,-0.9084,-0.8968,-0.7986,-0.7692,-0.8562,-0.8796,-0.8796,-0.9534,-0.9765,-0.9761,-0.9646,-0.9197,-0.8394,-0.7521,-0.7751,-0.7692,-0.8043,-0.8737,-0.965,-0.9819,-0.9761,-0.9761,-0.9819,-0.9819,-0.9819,-0.9819,-0.9819,-0.9819,-0.9819,-0.9819,-0.9819,-0.9819,-0.9819,-0.9819,-0.9819,-0.9819,-0.9819,-0.9819,-0.9819,-0.9819,-0.9819,-0.9819,-0.9819,-0.9819,-0.9819,-0.9819,-0.9819,-0.9819,-0.9819,-0.9819,-0.9819,-0.9819,-0.9819,-0.9819,-0.9819,-0.9819,-0.9819,-0.9819,-0.9819,-0.9819,-0.9819,-0.9819,-0.9819,-0.9819,-0.9819,-0.9819,-0.9819,-0.9819,-0.9819,-0.9819,-0.9819,-0.9819,-0.9819,-0.9819,-0.9819,-0.9819,-0.9819,-0.9819,-0.9819,-0.9819,-0.9819,-0.9819,-0.9819,-0.9819,-0.9819,-0.9819,-0.9819,-0.9819,-0.9819,-0.9819,-0.9819,-0.9819,-0.9819,-0.9822,-0.9897,-0.995,-0.9987,-1.0192,-1.0341,-1.0217,-1.0369,-1.0541,-1.0366,-0.9371,-0.8501,-0.7897,-0.6762,-0.6078,-0.6295,-0.661,-0.7117,-0.7607,-0.8293,-0.9048,-0.9534,-0.8854,-0.758,-0.6336,-0.6454,-0.7048,-0.7521,-0.8335,-0.931,-0.965,-0.9704,-0.9136,-0.8276,-0.7228,-0.6275,-0.5791,-0.5124,-0.6031,-0.7518,-0.8562,-0.9194,-0.9477,-0.9592,-0.9707,-0.9819,-0.9819,-0.9819,-0.9819,-0.9819,-0.9819,-0.9819,-0.9819,-0.9819,-0.9819,-0.9819,-0.9819,-0.9819,-0.9819,-0.9819,-0.9819,-0.9819,-0.9819,-0.9819,-0.9819,-0.9704,-0.9704,-0.9704,-0.9704,-0.9819,-0.9819,-0.9819,-0.9819,-0.9819,-0.9819,-0.9819,-0.9819,-0.9819,-0.9819,-0.9819,-0.9819,-0.9819,-0.9819,-0.9819,-0.9819,-0.9819,-0.9819,-0.9819,-0.9819,-0.9819,-0.9819,-0.9819,-0.9819,-0.9819,-0.9819,-0.9819,-0.9819,-0.9819,-0.9819,-0.9819,-0.9819,-0.9819,-0.9819,-0.9819,-0.9819,-0.9819,-0.9819,-0.9819,-0.9819,-0.9819,-0.9819,-0.9819,-0.9819,-0.9819,-0.9819,-0.9819,-0.9778,-0.9883,-0.9933,-1.0024,-0.985,-0.8834,-0.9068,-0.9695,-0.8993,-0.823,-0.7964,-0.7964,-0.6762,-0.4753,-0.4656,-0.5017,-0.5617,-0.6655,-0.7376,-0.8054,-0.8623,-0.8567,-0.705,-0.5307,-0.5184,-0.5491,-0.6578,-0.7523,-0.7983,-0.931,-0.9026,-0.793,-0.6992,-0.5976,-0.4819,-0.4324,-0.3949,-0.3513,-0.488,-0.6454,-0.7226,-0.7873,-0.8682,-0.9368,-0.9761,-0.9819,-0.9819,-0.9819,-0.9819,-0.9819,-0.9819,-0.9819,-0.9819,-0.9819,-0.9819,-0.9819,-0.9819,-0.9819,-0.9819,-0.9819,-0.9819,-0.9819,-0.9819,-0.9704,-0.9477,-0.9477,-0.9477,-0.9538,-0.9765,-0.9819,-0.9819,-0.9819,-0.9819,-0.9819,-0.9819,-0.9819,-0.9819,-0.9819,-0.9819,-0.9819,-0.9819,-0.9819,-0.9819,-0.9819,-0.9819,-0.9819,-0.9819,-0.9819,-0.9819,-0.9819,-0.9819,-0.9819,-0.9819,-0.9819,-0.9819,-0.9819,-0.9819,-0.9819,-0.9819,-0.9819,-0.9819,-0.9819,-0.9819,-0.9819,-0.9819,-0.9819,-0.9819,-0.9819,-0.9819,-0.9819,-0.9819,-0.9819]}]]